<?xml version="1.0" encoding="UTF-8" standalone="no" ?>
<gpx xmlns="http://www.topografix.com/GPX/1/1" xmlns:xsi="http://www.w3.org/2001/XMLSchema-instance" xsi:schemaLocation="http://www.topografix.com/GPX/1/1 http://www.topografix.com/GPX/1/1/gpx.xsd" version="1.1" creator="VisuGPX - https://www.visugpx.com">
  <metadata>
    <name>11611181-Verdun J1</name>
  </metadata>
  <trk>
    <name><![CDATA[11611181-Verdun J1]]></name>
    <trkseg>
      <trkpt lat="43.84637" lon="6.5132">
        <ele>726</ele>
        <time>2020-07-04T20:12:38Z</time>
      </trkpt>
      <trkpt lat="43.84642" lon="6.51262">
        <ele>726</ele>
        <time>2020-07-04T20:12:45Z</time>
      </trkpt>
      <trkpt lat="43.84642" lon="6.51254">
        <ele>726</ele>
        <time>2020-07-04T20:12:47Z</time>
      </trkpt>
      <trkpt lat="43.84611" lon="6.51241">
        <ele>726</ele>
        <time>2020-07-04T20:12:52Z</time>
      </trkpt>
      <trkpt lat="43.84609" lon="6.51223">
        <ele>725</ele>
        <time>2020-07-04T20:12:55Z</time>
      </trkpt>
      <trkpt lat="43.8461" lon="6.51196">
        <ele>725</ele>
        <time>2020-07-04T20:12:58Z</time>
      </trkpt>
      <trkpt lat="43.84611" lon="6.51168">
        <ele>724</ele>
        <time>2020-07-04T20:13:02Z</time>
      </trkpt>
      <trkpt lat="43.84614" lon="6.51074">
        <ele>724</ele>
        <time>2020-07-04T20:13:14Z</time>
      </trkpt>
      <trkpt lat="43.84617" lon="6.50999">
        <ele>724</ele>
        <time>2020-07-04T20:13:23Z</time>
      </trkpt>
      <trkpt lat="43.84617" lon="6.5099">
        <ele>724</ele>
        <time>2020-07-04T20:13:25Z</time>
      </trkpt>
      <trkpt lat="43.84618" lon="6.50951">
        <ele>723</ele>
        <time>2020-07-04T20:13:30Z</time>
      </trkpt>
      <trkpt lat="43.84619" lon="6.50939">
        <ele>723</ele>
        <time>2020-07-04T20:13:31Z</time>
      </trkpt>
      <trkpt lat="43.8462" lon="6.50894">
        <ele>723</ele>
        <time>2020-07-04T20:13:37Z</time>
      </trkpt>
      <trkpt lat="43.8462" lon="6.50869">
        <ele>723</ele>
        <time>2020-07-04T20:13:40Z</time>
      </trkpt>
      <trkpt lat="43.84619" lon="6.50855">
        <ele>723</ele>
        <time>2020-07-04T20:13:42Z</time>
      </trkpt>
      <trkpt lat="43.84616" lon="6.50841">
        <ele>723</ele>
        <time>2020-07-04T20:13:44Z</time>
      </trkpt>
      <trkpt lat="43.84591" lon="6.50735">
        <ele>723</ele>
        <time>2020-07-04T20:13:58Z</time>
      </trkpt>
      <trkpt lat="43.84587" lon="6.50718">
        <ele>723</ele>
        <time>2020-07-04T20:14:00Z</time>
      </trkpt>
      <trkpt lat="43.84581" lon="6.50694">
        <ele>722</ele>
        <time>2020-07-04T20:14:04Z</time>
      </trkpt>
      <trkpt lat="43.84569" lon="6.50643">
        <ele>722</ele>
        <time>2020-07-04T20:14:11Z</time>
      </trkpt>
      <trkpt lat="43.84561" lon="6.50609">
        <ele>722</ele>
        <time>2020-07-04T20:14:15Z</time>
      </trkpt>
      <trkpt lat="43.8455" lon="6.50565">
        <ele>722</ele>
        <time>2020-07-04T20:14:21Z</time>
      </trkpt>
      <trkpt lat="43.84539" lon="6.50529">
        <ele>722</ele>
        <time>2020-07-04T20:14:26Z</time>
      </trkpt>
      <trkpt lat="43.84526" lon="6.50496">
        <ele>722</ele>
        <time>2020-07-04T20:14:31Z</time>
      </trkpt>
      <trkpt lat="43.84515" lon="6.50465">
        <ele>723</ele>
        <time>2020-07-04T20:14:35Z</time>
      </trkpt>
      <trkpt lat="43.84483" lon="6.50379">
        <ele>724</ele>
        <time>2020-07-04T20:14:48Z</time>
      </trkpt>
      <trkpt lat="43.84483" lon="6.50379">
        <ele>724</ele>
        <time>2020-07-04T20:14:48Z</time>
      </trkpt>
      <trkpt lat="43.84478" lon="6.50367">
        <ele>724</ele>
        <time>2020-07-04T20:14:50Z</time>
      </trkpt>
      <trkpt lat="43.84471" lon="6.50349">
        <ele>723</ele>
        <time>2020-07-04T20:14:52Z</time>
      </trkpt>
      <trkpt lat="43.84318" lon="6.50049">
        <ele>726</ele>
        <time>2020-07-04T20:15:39Z</time>
      </trkpt>
      <trkpt lat="43.8431" lon="6.50011">
        <ele>728</ele>
        <time>2020-07-04T20:15:44Z</time>
      </trkpt>
      <trkpt lat="43.84292" lon="6.49872">
        <ele>737</ele>
        <time>2020-07-04T20:16:03Z</time>
      </trkpt>
      <trkpt lat="43.8429" lon="6.49865">
        <ele>737</ele>
        <time>2020-07-04T20:16:04Z</time>
      </trkpt>
      <trkpt lat="43.84259" lon="6.49808">
        <ele>729</ele>
        <time>2020-07-04T20:16:13Z</time>
      </trkpt>
      <trkpt lat="43.8424" lon="6.49768">
        <ele>729</ele>
        <time>2020-07-04T20:16:19Z</time>
      </trkpt>
      <trkpt lat="43.8418" lon="6.49632">
        <ele>726</ele>
        <time>2020-07-04T20:16:39Z</time>
      </trkpt>
      <trkpt lat="43.84129" lon="6.49571">
        <ele>722</ele>
        <time>2020-07-04T20:16:51Z</time>
      </trkpt>
      <trkpt lat="43.84076" lon="6.4952">
        <ele>723</ele>
        <time>2020-07-04T20:17:03Z</time>
      </trkpt>
      <trkpt lat="43.84018" lon="6.49457">
        <ele>724</ele>
        <time>2020-07-04T20:17:16Z</time>
      </trkpt>
      <trkpt lat="43.83979" lon="6.49424">
        <ele>722</ele>
        <time>2020-07-04T20:17:24Z</time>
      </trkpt>
      <trkpt lat="43.83972" lon="6.49416">
        <ele>722</ele>
        <time>2020-07-04T20:17:26Z</time>
      </trkpt>
      <trkpt lat="43.83959" lon="6.49396">
        <ele>724</ele>
        <time>2020-07-04T20:17:29Z</time>
      </trkpt>
      <trkpt lat="43.83948" lon="6.49385">
        <ele>724</ele>
        <time>2020-07-04T20:17:31Z</time>
      </trkpt>
      <trkpt lat="43.83903" lon="6.49356">
        <ele>724</ele>
        <time>2020-07-04T20:17:40Z</time>
      </trkpt>
      <trkpt lat="43.83885" lon="6.49346">
        <ele>726</ele>
        <time>2020-07-04T20:17:44Z</time>
      </trkpt>
      <trkpt lat="43.83873" lon="6.49345">
        <ele>728</ele>
        <time>2020-07-04T20:17:46Z</time>
      </trkpt>
      <trkpt lat="43.83855" lon="6.49353">
        <ele>728</ele>
        <time>2020-07-04T20:17:49Z</time>
      </trkpt>
      <trkpt lat="43.83838" lon="6.49368">
        <ele>726</ele>
        <time>2020-07-04T20:17:53Z</time>
      </trkpt>
      <trkpt lat="43.83819" lon="6.49403">
        <ele>720</ele>
        <time>2020-07-04T20:17:58Z</time>
      </trkpt>
      <trkpt lat="43.83814" lon="6.49408">
        <ele>719</ele>
        <time>2020-07-04T20:18:00Z</time>
      </trkpt>
      <trkpt lat="43.83807" lon="6.49409">
        <ele>718</ele>
        <time>2020-07-04T20:18:01Z</time>
      </trkpt>
      <trkpt lat="43.838" lon="6.49408">
        <ele>718</ele>
        <time>2020-07-04T20:18:02Z</time>
      </trkpt>
      <trkpt lat="43.83795" lon="6.49404">
        <ele>719</ele>
        <time>2020-07-04T20:18:03Z</time>
      </trkpt>
      <trkpt lat="43.83758" lon="6.49353">
        <ele>730</ele>
        <time>2020-07-04T20:18:12Z</time>
      </trkpt>
      <trkpt lat="43.83744" lon="6.49338">
        <ele>734</ele>
        <time>2020-07-04T20:18:16Z</time>
      </trkpt>
      <trkpt lat="43.83729" lon="6.49325">
        <ele>735</ele>
        <time>2020-07-04T20:18:19Z</time>
      </trkpt>
      <trkpt lat="43.83702" lon="6.49309">
        <ele>736</ele>
        <time>2020-07-04T20:18:24Z</time>
      </trkpt>
      <trkpt lat="43.83658" lon="6.49294">
        <ele>738</ele>
        <time>2020-07-04T20:18:32Z</time>
      </trkpt>
      <trkpt lat="43.8363" lon="6.49291">
        <ele>741</ele>
        <time>2020-07-04T20:18:37Z</time>
      </trkpt>
      <trkpt lat="43.83616" lon="6.49294">
        <ele>741</ele>
        <time>2020-07-04T20:18:39Z</time>
      </trkpt>
      <trkpt lat="43.83604" lon="6.49301">
        <ele>740</ele>
        <time>2020-07-04T20:18:42Z</time>
      </trkpt>
      <trkpt lat="43.83591" lon="6.49319">
        <ele>735</ele>
        <time>2020-07-04T20:18:45Z</time>
      </trkpt>
      <trkpt lat="43.83586" lon="6.49323">
        <ele>735</ele>
        <time>2020-07-04T20:18:46Z</time>
      </trkpt>
      <trkpt lat="43.83539" lon="6.49344">
        <ele>728</ele>
        <time>2020-07-04T20:18:55Z</time>
      </trkpt>
      <trkpt lat="43.83529" lon="6.49345">
        <ele>727</ele>
        <time>2020-07-04T20:18:57Z</time>
      </trkpt>
      <trkpt lat="43.83519" lon="6.49344">
        <ele>727</ele>
        <time>2020-07-04T20:18:58Z</time>
      </trkpt>
      <trkpt lat="43.83492" lon="6.49332">
        <ele>727</ele>
        <time>2020-07-04T20:19:03Z</time>
      </trkpt>
      <trkpt lat="43.83485" lon="6.49327">
        <ele>726</ele>
        <time>2020-07-04T20:19:05Z</time>
      </trkpt>
      <trkpt lat="43.83479" lon="6.49319">
        <ele>725</ele>
        <time>2020-07-04T20:19:06Z</time>
      </trkpt>
      <trkpt lat="43.83475" lon="6.4931">
        <ele>725</ele>
        <time>2020-07-04T20:19:08Z</time>
      </trkpt>
      <trkpt lat="43.83475" lon="6.49293">
        <ele>726</ele>
        <time>2020-07-04T20:19:10Z</time>
      </trkpt>
      <trkpt lat="43.83492" lon="6.49233">
        <ele>733</ele>
        <time>2020-07-04T20:19:18Z</time>
      </trkpt>
      <trkpt lat="43.835" lon="6.49213">
        <ele>733</ele>
        <time>2020-07-04T20:19:21Z</time>
      </trkpt>
      <trkpt lat="43.83511" lon="6.49193">
        <ele>736</ele>
        <time>2020-07-04T20:19:24Z</time>
      </trkpt>
      <trkpt lat="43.83516" lon="6.4918">
        <ele>737</ele>
        <time>2020-07-04T20:19:26Z</time>
      </trkpt>
      <trkpt lat="43.83518" lon="6.49166">
        <ele>738</ele>
        <time>2020-07-04T20:19:28Z</time>
      </trkpt>
      <trkpt lat="43.83517" lon="6.4914">
        <ele>736</ele>
        <time>2020-07-04T20:19:31Z</time>
      </trkpt>
      <trkpt lat="43.83512" lon="6.4911">
        <ele>734</ele>
        <time>2020-07-04T20:19:35Z</time>
      </trkpt>
      <trkpt lat="43.83501" lon="6.49071">
        <ele>729</ele>
        <time>2020-07-04T20:19:41Z</time>
      </trkpt>
      <trkpt lat="43.83492" lon="6.49026">
        <ele>728</ele>
        <time>2020-07-04T20:19:47Z</time>
      </trkpt>
      <trkpt lat="43.83492" lon="6.49019">
        <ele>728</ele>
        <time>2020-07-04T20:19:48Z</time>
      </trkpt>
      <trkpt lat="43.83494" lon="6.49005">
        <ele>729</ele>
        <time>2020-07-04T20:19:49Z</time>
      </trkpt>
      <trkpt lat="43.83501" lon="6.48993">
        <ele>730</ele>
        <time>2020-07-04T20:19:51Z</time>
      </trkpt>
      <trkpt lat="43.83532" lon="6.48959">
        <ele>733</ele>
        <time>2020-07-04T20:19:58Z</time>
      </trkpt>
      <trkpt lat="43.83541" lon="6.48944">
        <ele>734</ele>
        <time>2020-07-04T20:20:01Z</time>
      </trkpt>
      <trkpt lat="43.83544" lon="6.48931">
        <ele>733</ele>
        <time>2020-07-04T20:20:03Z</time>
      </trkpt>
      <trkpt lat="43.83544" lon="6.48917">
        <ele>732</ele>
        <time>2020-07-04T20:20:05Z</time>
      </trkpt>
      <trkpt lat="43.8353" lon="6.48858">
        <ele>732</ele>
        <time>2020-07-04T20:20:12Z</time>
      </trkpt>
      <trkpt lat="43.83519" lon="6.48798">
        <ele>733</ele>
        <time>2020-07-04T20:20:20Z</time>
      </trkpt>
      <trkpt lat="43.83502" lon="6.48734">
        <ele>728</ele>
        <time>2020-07-04T20:20:29Z</time>
      </trkpt>
      <trkpt lat="43.83501" lon="6.48724">
        <ele>728</ele>
        <time>2020-07-04T20:20:30Z</time>
      </trkpt>
      <trkpt lat="43.83503" lon="6.48701">
        <ele>728</ele>
        <time>2020-07-04T20:20:33Z</time>
      </trkpt>
      <trkpt lat="43.83507" lon="6.48678">
        <ele>729</ele>
        <time>2020-07-04T20:20:36Z</time>
      </trkpt>
      <trkpt lat="43.83524" lon="6.48611">
        <ele>730</ele>
        <time>2020-07-04T20:20:46Z</time>
      </trkpt>
      <trkpt lat="43.83528" lon="6.48603">
        <ele>731</ele>
        <time>2020-07-04T20:20:47Z</time>
      </trkpt>
      <trkpt lat="43.83549" lon="6.48584">
        <ele>737</ele>
        <time>2020-07-04T20:20:51Z</time>
      </trkpt>
      <trkpt lat="43.83553" lon="6.48578">
        <ele>739</ele>
        <time>2020-07-04T20:20:52Z</time>
      </trkpt>
      <trkpt lat="43.83556" lon="6.48563">
        <ele>740</ele>
        <time>2020-07-04T20:20:54Z</time>
      </trkpt>
      <trkpt lat="43.83555" lon="6.48548">
        <ele>740</ele>
        <time>2020-07-04T20:20:56Z</time>
      </trkpt>
      <trkpt lat="43.83531" lon="6.48441">
        <ele>740</ele>
        <time>2020-07-04T20:21:11Z</time>
      </trkpt>
      <trkpt lat="43.83521" lon="6.48417">
        <ele>740</ele>
        <time>2020-07-04T20:21:14Z</time>
      </trkpt>
      <trkpt lat="43.83507" lon="6.48395">
        <ele>740</ele>
        <time>2020-07-04T20:21:18Z</time>
      </trkpt>
      <trkpt lat="43.83463" lon="6.48353">
        <ele>735</ele>
        <time>2020-07-04T20:21:28Z</time>
      </trkpt>
      <trkpt lat="43.83446" lon="6.48321">
        <ele>738</ele>
        <time>2020-07-04T20:21:33Z</time>
      </trkpt>
      <trkpt lat="43.83428" lon="6.48301">
        <ele>740</ele>
        <time>2020-07-04T20:21:37Z</time>
      </trkpt>
      <trkpt lat="43.8342" lon="6.48293">
        <ele>741</ele>
        <time>2020-07-04T20:21:38Z</time>
      </trkpt>
      <trkpt lat="43.83385" lon="6.48276">
        <ele>739</ele>
        <time>2020-07-04T20:21:45Z</time>
      </trkpt>
      <trkpt lat="43.83359" lon="6.4826">
        <ele>737</ele>
        <time>2020-07-04T20:21:50Z</time>
      </trkpt>
      <trkpt lat="43.83339" lon="6.48245">
        <ele>736</ele>
        <time>2020-07-04T20:21:54Z</time>
      </trkpt>
      <trkpt lat="43.83331" lon="6.48236">
        <ele>735</ele>
        <time>2020-07-04T20:21:56Z</time>
      </trkpt>
      <trkpt lat="43.83316" lon="6.48216">
        <ele>733</ele>
        <time>2020-07-04T20:22:00Z</time>
      </trkpt>
      <trkpt lat="43.83303" lon="6.48193">
        <ele>733</ele>
        <time>2020-07-04T20:22:03Z</time>
      </trkpt>
      <trkpt lat="43.83294" lon="6.48159">
        <ele>735</ele>
        <time>2020-07-04T20:22:08Z</time>
      </trkpt>
      <trkpt lat="43.83283" lon="6.48084">
        <ele>739</ele>
        <time>2020-07-04T20:22:18Z</time>
      </trkpt>
      <trkpt lat="43.83279" lon="6.48069">
        <ele>738</ele>
        <time>2020-07-04T20:22:20Z</time>
      </trkpt>
      <trkpt lat="43.83257" lon="6.48024">
        <ele>735</ele>
        <time>2020-07-04T20:22:27Z</time>
      </trkpt>
      <trkpt lat="43.83217" lon="6.47951">
        <ele>731</ele>
        <time>2020-07-04T20:22:39Z</time>
      </trkpt>
      <trkpt lat="43.83208" lon="6.47926">
        <ele>731</ele>
        <time>2020-07-04T20:22:42Z</time>
      </trkpt>
      <trkpt lat="43.83204" lon="6.47897">
        <ele>732</ele>
        <time>2020-07-04T20:22:46Z</time>
      </trkpt>
      <trkpt lat="43.83205" lon="6.47856">
        <ele>735</ele>
        <time>2020-07-04T20:22:51Z</time>
      </trkpt>
      <trkpt lat="43.83203" lon="6.47848">
        <ele>735</ele>
        <time>2020-07-04T20:22:52Z</time>
      </trkpt>
      <trkpt lat="43.83193" lon="6.4782">
        <ele>732</ele>
        <time>2020-07-04T20:22:56Z</time>
      </trkpt>
      <trkpt lat="43.8318" lon="6.47752">
        <ele>731</ele>
        <time>2020-07-04T20:23:05Z</time>
      </trkpt>
      <trkpt lat="43.83162" lon="6.47699">
        <ele>725</ele>
        <time>2020-07-04T20:23:13Z</time>
      </trkpt>
      <trkpt lat="43.83155" lon="6.47672">
        <ele>724</ele>
        <time>2020-07-04T20:23:17Z</time>
      </trkpt>
      <trkpt lat="43.83154" lon="6.47619">
        <ele>727</ele>
        <time>2020-07-04T20:23:24Z</time>
      </trkpt>
      <trkpt lat="43.8315" lon="6.47601">
        <ele>726</ele>
        <time>2020-07-04T20:23:26Z</time>
      </trkpt>
      <trkpt lat="43.8314" lon="6.47581">
        <ele>724</ele>
        <time>2020-07-04T20:23:29Z</time>
      </trkpt>
      <trkpt lat="43.83132" lon="6.47554">
        <ele>724</ele>
        <time>2020-07-04T20:23:33Z</time>
      </trkpt>
      <trkpt lat="43.83126" lon="6.47525">
        <ele>724</ele>
        <time>2020-07-04T20:23:37Z</time>
      </trkpt>
      <trkpt lat="43.83121" lon="6.47483">
        <ele>725</ele>
        <time>2020-07-04T20:23:42Z</time>
      </trkpt>
      <trkpt lat="43.8312" lon="6.47443">
        <ele>727</ele>
        <time>2020-07-04T20:23:47Z</time>
      </trkpt>
      <trkpt lat="43.83112" lon="6.474">
        <ele>729</ele>
        <time>2020-07-04T20:23:53Z</time>
      </trkpt>
      <trkpt lat="43.83105" lon="6.47383">
        <ele>729</ele>
        <time>2020-07-04T20:23:55Z</time>
      </trkpt>
      <trkpt lat="43.83095" lon="6.47369">
        <ele>728</ele>
        <time>2020-07-04T20:23:58Z</time>
      </trkpt>
      <trkpt lat="43.83054" lon="6.47331">
        <ele>722</ele>
        <time>2020-07-04T20:24:07Z</time>
      </trkpt>
      <trkpt lat="43.83048" lon="6.47319">
        <ele>721</ele>
        <time>2020-07-04T20:24:09Z</time>
      </trkpt>
      <trkpt lat="43.83043" lon="6.47305">
        <ele>721</ele>
        <time>2020-07-04T20:24:11Z</time>
      </trkpt>
      <trkpt lat="43.83034" lon="6.47272">
        <ele>722</ele>
        <time>2020-07-04T20:24:15Z</time>
      </trkpt>
      <trkpt lat="43.83023" lon="6.47247">
        <ele>721</ele>
        <time>2020-07-04T20:24:19Z</time>
      </trkpt>
      <trkpt lat="43.83018" lon="6.47232">
        <ele>722</ele>
        <time>2020-07-04T20:24:21Z</time>
      </trkpt>
      <trkpt lat="43.83011" lon="6.47204">
        <ele>724</ele>
        <time>2020-07-04T20:24:25Z</time>
      </trkpt>
      <trkpt lat="43.83008" lon="6.47196">
        <ele>724</ele>
        <time>2020-07-04T20:24:26Z</time>
      </trkpt>
      <trkpt lat="43.83003" lon="6.47188">
        <ele>724</ele>
        <time>2020-07-04T20:24:27Z</time>
      </trkpt>
      <trkpt lat="43.82985" lon="6.47174">
        <ele>721</ele>
        <time>2020-07-04T20:24:31Z</time>
      </trkpt>
      <trkpt lat="43.82971" lon="6.47159">
        <ele>720</ele>
        <time>2020-07-04T20:24:34Z</time>
      </trkpt>
      <trkpt lat="43.82962" lon="6.47146">
        <ele>719</ele>
        <time>2020-07-04T20:24:37Z</time>
      </trkpt>
      <trkpt lat="43.82946" lon="6.47109">
        <ele>720</ele>
        <time>2020-07-04T20:24:42Z</time>
      </trkpt>
      <trkpt lat="43.82917" lon="6.47019">
        <ele>719</ele>
        <time>2020-07-04T20:24:55Z</time>
      </trkpt>
      <trkpt lat="43.82905" lon="6.46979">
        <ele>718</ele>
        <time>2020-07-04T20:25:00Z</time>
      </trkpt>
      <trkpt lat="43.82904" lon="6.46949">
        <ele>718</ele>
        <time>2020-07-04T20:25:04Z</time>
      </trkpt>
      <trkpt lat="43.82914" lon="6.46899">
        <ele>720</ele>
        <time>2020-07-04T20:25:11Z</time>
      </trkpt>
      <trkpt lat="43.82915" lon="6.46868">
        <ele>719</ele>
        <time>2020-07-04T20:25:15Z</time>
      </trkpt>
      <trkpt lat="43.82911" lon="6.4685">
        <ele>717</ele>
        <time>2020-07-04T20:25:17Z</time>
      </trkpt>
      <trkpt lat="43.82894" lon="6.46802">
        <ele>714</ele>
        <time>2020-07-04T20:25:24Z</time>
      </trkpt>
      <trkpt lat="43.82891" lon="6.46786">
        <ele>714</ele>
        <time>2020-07-04T20:25:26Z</time>
      </trkpt>
      <trkpt lat="43.82891" lon="6.46771">
        <ele>714</ele>
        <time>2020-07-04T20:25:28Z</time>
      </trkpt>
      <trkpt lat="43.82893" lon="6.46747">
        <ele>715</ele>
        <time>2020-07-04T20:25:31Z</time>
      </trkpt>
      <trkpt lat="43.829" lon="6.46707">
        <ele>715</ele>
        <time>2020-07-04T20:25:36Z</time>
      </trkpt>
      <trkpt lat="43.82908" lon="6.46675">
        <ele>716</ele>
        <time>2020-07-04T20:25:41Z</time>
      </trkpt>
      <trkpt lat="43.82909" lon="6.46658">
        <ele>717</ele>
        <time>2020-07-04T20:25:43Z</time>
      </trkpt>
      <trkpt lat="43.82904" lon="6.46643">
        <ele>716</ele>
        <time>2020-07-04T20:25:45Z</time>
      </trkpt>
      <trkpt lat="43.82874" lon="6.46572">
        <ele>710</ele>
        <time>2020-07-04T20:25:56Z</time>
      </trkpt>
      <trkpt lat="43.82864" lon="6.46543">
        <ele>707</ele>
        <time>2020-07-04T20:26:00Z</time>
      </trkpt>
      <trkpt lat="43.82863" lon="6.46534">
        <ele>707</ele>
        <time>2020-07-04T20:26:01Z</time>
      </trkpt>
      <trkpt lat="43.8287" lon="6.46423">
        <ele>712</ele>
        <time>2020-07-04T20:26:15Z</time>
      </trkpt>
      <trkpt lat="43.82869" lon="6.46404">
        <ele>712</ele>
        <time>2020-07-04T20:26:18Z</time>
      </trkpt>
      <trkpt lat="43.82864" lon="6.46393">
        <ele>711</ele>
        <time>2020-07-04T20:26:19Z</time>
      </trkpt>
      <trkpt lat="43.82835" lon="6.46357">
        <ele>705</ele>
        <time>2020-07-04T20:26:26Z</time>
      </trkpt>
      <trkpt lat="43.82829" lon="6.46346">
        <ele>705</ele>
        <time>2020-07-04T20:26:28Z</time>
      </trkpt>
      <trkpt lat="43.82823" lon="6.4633">
        <ele>706</ele>
        <time>2020-07-04T20:26:30Z</time>
      </trkpt>
      <trkpt lat="43.82809" lon="6.46304">
        <ele>705</ele>
        <time>2020-07-04T20:26:35Z</time>
      </trkpt>
      <trkpt lat="43.82801" lon="6.46286">
        <ele>705</ele>
        <time>2020-07-04T20:26:37Z</time>
      </trkpt>
      <trkpt lat="43.82773" lon="6.46204">
        <ele>704</ele>
        <time>2020-07-04T20:26:49Z</time>
      </trkpt>
      <trkpt lat="43.82769" lon="6.4617">
        <ele>704</ele>
        <time>2020-07-04T20:26:53Z</time>
      </trkpt>
      <trkpt lat="43.82771" lon="6.46153">
        <ele>704</ele>
        <time>2020-07-04T20:26:56Z</time>
      </trkpt>
      <trkpt lat="43.82778" lon="6.4613">
        <ele>705</ele>
        <time>2020-07-04T20:26:59Z</time>
      </trkpt>
      <trkpt lat="43.82788" lon="6.4611">
        <ele>705</ele>
        <time>2020-07-04T20:27:02Z</time>
      </trkpt>
      <trkpt lat="43.82806" lon="6.46084">
        <ele>706</ele>
        <time>2020-07-04T20:27:07Z</time>
      </trkpt>
      <trkpt lat="43.82824" lon="6.46041">
        <ele>706</ele>
        <time>2020-07-04T20:27:13Z</time>
      </trkpt>
      <trkpt lat="43.82855" lon="6.45992">
        <ele>709</ele>
        <time>2020-07-04T20:27:21Z</time>
      </trkpt>
      <trkpt lat="43.82859" lon="6.45977">
        <ele>708</ele>
        <time>2020-07-04T20:27:23Z</time>
      </trkpt>
      <trkpt lat="43.8286" lon="6.45944">
        <ele>704</ele>
        <time>2020-07-04T20:27:28Z</time>
      </trkpt>
      <trkpt lat="43.82862" lon="6.45931">
        <ele>703</ele>
        <time>2020-07-04T20:27:29Z</time>
      </trkpt>
      <trkpt lat="43.82871" lon="6.45908">
        <ele>703</ele>
        <time>2020-07-04T20:27:33Z</time>
      </trkpt>
      <trkpt lat="43.8289" lon="6.45876">
        <ele>703</ele>
        <time>2020-07-04T20:27:38Z</time>
      </trkpt>
      <trkpt lat="43.82915" lon="6.45851">
        <ele>703</ele>
        <time>2020-07-04T20:27:43Z</time>
      </trkpt>
      <trkpt lat="43.82923" lon="6.4584">
        <ele>703</ele>
        <time>2020-07-04T20:27:45Z</time>
      </trkpt>
      <trkpt lat="43.82936" lon="6.45808">
        <ele>705</ele>
        <time>2020-07-04T20:27:50Z</time>
      </trkpt>
      <trkpt lat="43.82958" lon="6.45767">
        <ele>707</ele>
        <time>2020-07-04T20:27:57Z</time>
      </trkpt>
      <trkpt lat="43.82969" lon="6.45739">
        <ele>705</ele>
        <time>2020-07-04T20:28:01Z</time>
      </trkpt>
      <trkpt lat="43.83042" lon="6.45631">
        <ele>713</ele>
        <time>2020-07-04T20:28:20Z</time>
      </trkpt>
      <trkpt lat="43.83049" lon="6.45617">
        <ele>715</ele>
        <time>2020-07-04T20:28:22Z</time>
      </trkpt>
      <trkpt lat="43.83052" lon="6.45608">
        <ele>715</ele>
        <time>2020-07-04T20:28:23Z</time>
      </trkpt>
      <trkpt lat="43.83055" lon="6.45586">
        <ele>714</ele>
        <time>2020-07-04T20:28:26Z</time>
      </trkpt>
      <trkpt lat="43.83054" lon="6.45544">
        <ele>710</ele>
        <time>2020-07-04T20:28:32Z</time>
      </trkpt>
      <trkpt lat="43.83048" lon="6.45483">
        <ele>703</ele>
        <time>2020-07-04T20:28:39Z</time>
      </trkpt>
      <trkpt lat="43.83046" lon="6.45451">
        <ele>702</ele>
        <time>2020-07-04T20:28:44Z</time>
      </trkpt>
      <trkpt lat="43.83047" lon="6.45432">
        <ele>702</ele>
        <time>2020-07-04T20:28:46Z</time>
      </trkpt>
      <trkpt lat="43.83058" lon="6.45354">
        <ele>701</ele>
        <time>2020-07-04T20:28:56Z</time>
      </trkpt>
      <trkpt lat="43.83067" lon="6.45321">
        <ele>700</ele>
        <time>2020-07-04T20:29:01Z</time>
      </trkpt>
      <trkpt lat="43.83087" lon="6.45281">
        <ele>696</ele>
        <time>2020-07-04T20:29:07Z</time>
      </trkpt>
      <trkpt lat="43.83101" lon="6.45262">
        <ele>697</ele>
        <time>2020-07-04T20:29:10Z</time>
      </trkpt>
      <trkpt lat="43.83133" lon="6.45227">
        <ele>704</ele>
        <time>2020-07-04T20:29:18Z</time>
      </trkpt>
      <trkpt lat="43.83153" lon="6.45193">
        <ele>706</ele>
        <time>2020-07-04T20:29:23Z</time>
      </trkpt>
      <trkpt lat="43.83161" lon="6.4517">
        <ele>705</ele>
        <time>2020-07-04T20:29:27Z</time>
      </trkpt>
      <trkpt lat="43.8317" lon="6.45121">
        <ele>703</ele>
        <time>2020-07-04T20:29:33Z</time>
      </trkpt>
      <trkpt lat="43.83175" lon="6.45073">
        <ele>703</ele>
        <time>2020-07-04T20:29:39Z</time>
      </trkpt>
      <trkpt lat="43.83172" lon="6.4505">
        <ele>701</ele>
        <time>2020-07-04T20:29:42Z</time>
      </trkpt>
      <trkpt lat="43.83161" lon="6.45011">
        <ele>699</ele>
        <time>2020-07-04T20:29:48Z</time>
      </trkpt>
      <trkpt lat="43.83157" lon="6.44987">
        <ele>700</ele>
        <time>2020-07-04T20:29:51Z</time>
      </trkpt>
      <trkpt lat="43.83158" lon="6.44977">
        <ele>699</ele>
        <time>2020-07-04T20:29:52Z</time>
      </trkpt>
      <trkpt lat="43.83164" lon="6.44951">
        <ele>696</ele>
        <time>2020-07-04T20:29:56Z</time>
      </trkpt>
      <trkpt lat="43.83181" lon="6.44918">
        <ele>701</ele>
        <time>2020-07-04T20:30:01Z</time>
      </trkpt>
      <trkpt lat="43.83187" lon="6.44898">
        <ele>703</ele>
        <time>2020-07-04T20:30:04Z</time>
      </trkpt>
      <trkpt lat="43.83195" lon="6.44871">
        <ele>704</ele>
        <time>2020-07-04T20:30:07Z</time>
      </trkpt>
      <trkpt lat="43.832" lon="6.44842">
        <ele>704</ele>
        <time>2020-07-04T20:30:11Z</time>
      </trkpt>
      <trkpt lat="43.83202" lon="6.44813">
        <ele>704</ele>
        <time>2020-07-04T20:30:15Z</time>
      </trkpt>
      <trkpt lat="43.83202" lon="6.44738">
        <ele>710</ele>
        <time>2020-07-04T20:30:25Z</time>
      </trkpt>
      <trkpt lat="43.83199" lon="6.4468">
        <ele>724</ele>
        <time>2020-07-04T20:30:32Z</time>
      </trkpt>
      <trkpt lat="43.83187" lon="6.44622">
        <ele>742</ele>
        <time>2020-07-04T20:30:40Z</time>
      </trkpt>
      <trkpt lat="43.83164" lon="6.44541">
        <ele>765</ele>
        <time>2020-07-04T20:30:51Z</time>
      </trkpt>
      <trkpt lat="43.83152" lon="6.44517">
        <ele>768</ele>
        <time>2020-07-04T20:30:55Z</time>
      </trkpt>
      <trkpt lat="43.83141" lon="6.44503">
        <ele>764</ele>
        <time>2020-07-04T20:30:57Z</time>
      </trkpt>
      <trkpt lat="43.83113" lon="6.44475">
        <ele>734</ele>
        <time>2020-07-04T20:31:04Z</time>
      </trkpt>
      <trkpt lat="43.83088" lon="6.44449">
        <ele>713</ele>
        <time>2020-07-04T20:31:09Z</time>
      </trkpt>
      <trkpt lat="43.83077" lon="6.44434">
        <ele>713</ele>
        <time>2020-07-04T20:31:12Z</time>
      </trkpt>
      <trkpt lat="43.83072" lon="6.44422">
        <ele>715</ele>
        <time>2020-07-04T20:31:14Z</time>
      </trkpt>
      <trkpt lat="43.8307" lon="6.44406">
        <ele>715</ele>
        <time>2020-07-04T20:31:16Z</time>
      </trkpt>
      <trkpt lat="43.83074" lon="6.44379">
        <ele>710</ele>
        <time>2020-07-04T20:31:19Z</time>
      </trkpt>
      <trkpt lat="43.83081" lon="6.44355">
        <ele>704</ele>
        <time>2020-07-04T20:31:23Z</time>
      </trkpt>
      <trkpt lat="43.83087" lon="6.44339">
        <ele>701</ele>
        <time>2020-07-04T20:31:25Z</time>
      </trkpt>
      <trkpt lat="43.83095" lon="6.44326">
        <ele>701</ele>
        <time>2020-07-04T20:31:27Z</time>
      </trkpt>
      <trkpt lat="43.83112" lon="6.44307">
        <ele>699</ele>
        <time>2020-07-04T20:31:31Z</time>
      </trkpt>
      <trkpt lat="43.83131" lon="6.44292">
        <ele>697</ele>
        <time>2020-07-04T20:31:35Z</time>
      </trkpt>
      <trkpt lat="43.83156" lon="6.44278">
        <ele>692</ele>
        <time>2020-07-04T20:31:40Z</time>
      </trkpt>
      <trkpt lat="43.83216" lon="6.44239">
        <ele>690</ele>
        <time>2020-07-04T20:31:51Z</time>
      </trkpt>
      <trkpt lat="43.83235" lon="6.44221">
        <ele>690</ele>
        <time>2020-07-04T20:31:56Z</time>
      </trkpt>
      <trkpt lat="43.83251" lon="6.442">
        <ele>688</ele>
        <time>2020-07-04T20:31:59Z</time>
      </trkpt>
      <trkpt lat="43.83267" lon="6.44173">
        <ele>688</ele>
        <time>2020-07-04T20:32:04Z</time>
      </trkpt>
      <trkpt lat="43.83274" lon="6.44159">
        <ele>688</ele>
        <time>2020-07-04T20:32:06Z</time>
      </trkpt>
      <trkpt lat="43.83312" lon="6.44068">
        <ele>686</ele>
        <time>2020-07-04T20:32:20Z</time>
      </trkpt>
      <trkpt lat="43.83336" lon="6.43998">
        <ele>683</ele>
        <time>2020-07-04T20:32:30Z</time>
      </trkpt>
      <trkpt lat="43.83343" lon="6.43968">
        <ele>686</ele>
        <time>2020-07-04T20:32:34Z</time>
      </trkpt>
      <trkpt lat="43.83345" lon="6.43951">
        <ele>687</ele>
        <time>2020-07-04T20:32:36Z</time>
      </trkpt>
      <trkpt lat="43.83345" lon="6.43862">
        <ele>685</ele>
        <time>2020-07-04T20:32:47Z</time>
      </trkpt>
      <trkpt lat="43.83341" lon="6.43828">
        <ele>683</ele>
        <time>2020-07-04T20:32:52Z</time>
      </trkpt>
      <trkpt lat="43.83329" lon="6.43768">
        <ele>683</ele>
        <time>2020-07-04T20:33:00Z</time>
      </trkpt>
      <trkpt lat="43.83307" lon="6.43624">
        <ele>686</ele>
        <time>2020-07-04T20:33:19Z</time>
      </trkpt>
      <trkpt lat="43.83299" lon="6.43555">
        <ele>691</ele>
        <time>2020-07-04T20:33:28Z</time>
      </trkpt>
      <trkpt lat="43.83292" lon="6.43535">
        <ele>692</ele>
        <time>2020-07-04T20:33:30Z</time>
      </trkpt>
      <trkpt lat="43.83282" lon="6.4352">
        <ele>691</ele>
        <time>2020-07-04T20:33:33Z</time>
      </trkpt>
      <trkpt lat="43.83193" lon="6.43427">
        <ele>687</ele>
        <time>2020-07-04T20:33:53Z</time>
      </trkpt>
      <trkpt lat="43.83171" lon="6.43392">
        <ele>683</ele>
        <time>2020-07-04T20:33:59Z</time>
      </trkpt>
      <trkpt lat="43.83146" lon="6.43363">
        <ele>682</ele>
        <time>2020-07-04T20:34:05Z</time>
      </trkpt>
      <trkpt lat="43.83134" lon="6.43344">
        <ele>682</ele>
        <time>2020-07-04T20:34:08Z</time>
      </trkpt>
      <trkpt lat="43.83131" lon="6.43334">
        <ele>682</ele>
        <time>2020-07-04T20:34:09Z</time>
      </trkpt>
      <trkpt lat="43.83128" lon="6.43312">
        <ele>682</ele>
        <time>2020-07-04T20:34:12Z</time>
      </trkpt>
      <trkpt lat="43.83126" lon="6.4322">
        <ele>682</ele>
        <time>2020-07-04T20:34:24Z</time>
      </trkpt>
      <trkpt lat="43.83122" lon="6.43195">
        <ele>682</ele>
        <time>2020-07-04T20:34:27Z</time>
      </trkpt>
      <trkpt lat="43.83114" lon="6.43167">
        <ele>680</ele>
        <time>2020-07-04T20:34:31Z</time>
      </trkpt>
      <trkpt lat="43.8308" lon="6.43088">
        <ele>677</ele>
        <time>2020-07-04T20:34:43Z</time>
      </trkpt>
      <trkpt lat="43.83066" lon="6.43046">
        <ele>678</ele>
        <time>2020-07-04T20:34:49Z</time>
      </trkpt>
      <trkpt lat="43.83062" lon="6.43036">
        <ele>677</ele>
        <time>2020-07-04T20:34:50Z</time>
      </trkpt>
      <trkpt lat="43.83051" lon="6.43002">
        <ele>677</ele>
        <time>2020-07-04T20:34:55Z</time>
      </trkpt>
      <trkpt lat="43.83045" lon="6.42948">
        <ele>676</ele>
        <time>2020-07-04T20:35:02Z</time>
      </trkpt>
      <trkpt lat="43.83044" lon="6.4293">
        <ele>676</ele>
        <time>2020-07-04T20:35:04Z</time>
      </trkpt>
      <trkpt lat="43.83047" lon="6.42873">
        <ele>677</ele>
        <time>2020-07-04T20:35:12Z</time>
      </trkpt>
      <trkpt lat="43.83047" lon="6.42862">
        <ele>677</ele>
        <time>2020-07-04T20:35:13Z</time>
      </trkpt>
      <trkpt lat="43.83042" lon="6.42844">
        <ele>677</ele>
        <time>2020-07-04T20:35:16Z</time>
      </trkpt>
      <trkpt lat="43.83023" lon="6.42802">
        <ele>676</ele>
        <time>2020-07-04T20:35:22Z</time>
      </trkpt>
      <trkpt lat="43.83001" lon="6.42767">
        <ele>675</ele>
        <time>2020-07-04T20:35:28Z</time>
      </trkpt>
      <trkpt lat="43.8297" lon="6.42738">
        <ele>675</ele>
        <time>2020-07-04T20:35:35Z</time>
      </trkpt>
      <trkpt lat="43.82964" lon="6.4273">
        <ele>675</ele>
        <time>2020-07-04T20:35:36Z</time>
      </trkpt>
      <trkpt lat="43.82946" lon="6.42679">
        <ele>678</ele>
        <time>2020-07-04T20:35:43Z</time>
      </trkpt>
      <trkpt lat="43.82938" lon="6.42667">
        <ele>678</ele>
        <time>2020-07-04T20:35:45Z</time>
      </trkpt>
      <trkpt lat="43.8293" lon="6.42657">
        <ele>680</ele>
        <time>2020-07-04T20:35:47Z</time>
      </trkpt>
      <trkpt lat="43.82919" lon="6.4265">
        <ele>680</ele>
        <time>2020-07-04T20:35:50Z</time>
      </trkpt>
      <trkpt lat="43.82893" lon="6.4264">
        <ele>681</ele>
        <time>2020-07-04T20:35:54Z</time>
      </trkpt>
      <trkpt lat="43.82863" lon="6.42616">
        <ele>683</ele>
        <time>2020-07-04T20:36:00Z</time>
      </trkpt>
      <trkpt lat="43.82828" lon="6.42601">
        <ele>683</ele>
        <time>2020-07-04T20:36:07Z</time>
      </trkpt>
      <trkpt lat="43.82799" lon="6.42591">
        <ele>685</ele>
        <time>2020-07-04T20:36:12Z</time>
      </trkpt>
      <trkpt lat="43.82786" lon="6.42589">
        <ele>686</ele>
        <time>2020-07-04T20:36:15Z</time>
      </trkpt>
      <trkpt lat="43.82763" lon="6.42594">
        <ele>686</ele>
        <time>2020-07-04T20:36:19Z</time>
      </trkpt>
      <trkpt lat="43.82748" lon="6.42602">
        <ele>685</ele>
        <time>2020-07-04T20:36:22Z</time>
      </trkpt>
      <trkpt lat="43.82742" lon="6.42608">
        <ele>685</ele>
        <time>2020-07-04T20:36:23Z</time>
      </trkpt>
      <trkpt lat="43.82682" lon="6.42693">
        <ele>686</ele>
        <time>2020-07-04T20:36:38Z</time>
      </trkpt>
      <trkpt lat="43.82666" lon="6.42724">
        <ele>684</ele>
        <time>2020-07-04T20:36:43Z</time>
      </trkpt>
      <trkpt lat="43.8266" lon="6.4274">
        <ele>682</ele>
        <time>2020-07-04T20:36:45Z</time>
      </trkpt>
      <trkpt lat="43.82648" lon="6.42786">
        <ele>679</ele>
        <time>2020-07-04T20:36:52Z</time>
      </trkpt>
      <trkpt lat="43.82644" lon="6.42823">
        <ele>677</ele>
        <time>2020-07-04T20:36:57Z</time>
      </trkpt>
      <trkpt lat="43.82642" lon="6.42877">
        <ele>674</ele>
        <time>2020-07-04T20:37:03Z</time>
      </trkpt>
      <trkpt lat="43.8264" lon="6.42911">
        <ele>673</ele>
        <time>2020-07-04T20:37:08Z</time>
      </trkpt>
      <trkpt lat="43.82637" lon="6.42926">
        <ele>673</ele>
        <time>2020-07-04T20:37:10Z</time>
      </trkpt>
      <trkpt lat="43.82617" lon="6.42997">
        <ele>672</ele>
        <time>2020-07-04T20:37:20Z</time>
      </trkpt>
      <trkpt lat="43.8261" lon="6.43014">
        <ele>672</ele>
        <time>2020-07-04T20:37:22Z</time>
      </trkpt>
      <trkpt lat="43.82593" lon="6.43038">
        <ele>671</ele>
        <time>2020-07-04T20:37:26Z</time>
      </trkpt>
      <trkpt lat="43.82587" lon="6.43043">
        <ele>671</ele>
        <time>2020-07-04T20:37:28Z</time>
      </trkpt>
      <trkpt lat="43.82576" lon="6.43048">
        <ele>672</ele>
        <time>2020-07-04T20:37:30Z</time>
      </trkpt>
      <trkpt lat="43.82544" lon="6.43043">
        <ele>675</ele>
        <time>2020-07-04T20:37:35Z</time>
      </trkpt>
      <trkpt lat="43.82457" lon="6.43049">
        <ele>679</ele>
        <time>2020-07-04T20:37:51Z</time>
      </trkpt>
      <trkpt lat="43.82409" lon="6.43062">
        <ele>676</ele>
        <time>2020-07-04T20:38:00Z</time>
      </trkpt>
      <trkpt lat="43.82366" lon="6.43098">
        <ele>671</ele>
        <time>2020-07-04T20:38:09Z</time>
      </trkpt>
      <trkpt lat="43.82349" lon="6.43116">
        <ele>669</ele>
        <time>2020-07-04T20:38:12Z</time>
      </trkpt>
      <trkpt lat="43.82343" lon="6.43125">
        <ele>668</ele>
        <time>2020-07-04T20:38:14Z</time>
      </trkpt>
      <trkpt lat="43.82331" lon="6.43136">
        <ele>667</ele>
        <time>2020-07-04T20:38:17Z</time>
      </trkpt>
      <trkpt lat="43.82312" lon="6.43138">
        <ele>667</ele>
        <time>2020-07-04T20:38:20Z</time>
      </trkpt>
      <trkpt lat="43.82277" lon="6.43128">
        <ele>668</ele>
        <time>2020-07-04T20:38:26Z</time>
      </trkpt>
      <trkpt lat="43.82236" lon="6.43112">
        <ele>670</ele>
        <time>2020-07-04T20:38:34Z</time>
      </trkpt>
      <trkpt lat="43.82223" lon="6.4311">
        <ele>670</ele>
        <time>2020-07-04T20:38:36Z</time>
      </trkpt>
      <trkpt lat="43.82207" lon="6.43115">
        <ele>670</ele>
        <time>2020-07-04T20:38:39Z</time>
      </trkpt>
      <trkpt lat="43.82183" lon="6.43134">
        <ele>669</ele>
        <time>2020-07-04T20:38:44Z</time>
      </trkpt>
      <trkpt lat="43.82173" lon="6.43137">
        <ele>669</ele>
        <time>2020-07-04T20:38:46Z</time>
      </trkpt>
      <trkpt lat="43.82163" lon="6.43137">
        <ele>670</ele>
        <time>2020-07-04T20:38:48Z</time>
      </trkpt>
      <trkpt lat="43.82133" lon="6.43131">
        <ele>676</ele>
        <time>2020-07-04T20:38:53Z</time>
      </trkpt>
      <trkpt lat="43.82123" lon="6.43131">
        <ele>678</ele>
        <time>2020-07-04T20:38:55Z</time>
      </trkpt>
      <trkpt lat="43.82115" lon="6.43135">
        <ele>678</ele>
        <time>2020-07-04T20:38:56Z</time>
      </trkpt>
      <trkpt lat="43.82101" lon="6.43151">
        <ele>676</ele>
        <time>2020-07-04T20:39:00Z</time>
      </trkpt>
      <trkpt lat="43.82083" lon="6.43184">
        <ele>670</ele>
        <time>2020-07-04T20:39:05Z</time>
      </trkpt>
      <trkpt lat="43.82076" lon="6.43195">
        <ele>672</ele>
        <time>2020-07-04T20:39:07Z</time>
      </trkpt>
      <trkpt lat="43.8206" lon="6.43211">
        <ele>677</ele>
        <time>2020-07-04T20:39:10Z</time>
      </trkpt>
      <trkpt lat="43.82045" lon="6.43235">
        <ele>678</ele>
        <time>2020-07-04T20:39:14Z</time>
      </trkpt>
      <trkpt lat="43.82033" lon="6.43263">
        <ele>677</ele>
        <time>2020-07-04T20:39:19Z</time>
      </trkpt>
      <trkpt lat="43.82017" lon="6.43319">
        <ele>672</ele>
        <time>2020-07-04T20:39:26Z</time>
      </trkpt>
      <trkpt lat="43.82011" lon="6.43331">
        <ele>670</ele>
        <time>2020-07-04T20:39:28Z</time>
      </trkpt>
      <trkpt lat="43.81997" lon="6.4335">
        <ele>671</ele>
        <time>2020-07-04T20:39:32Z</time>
      </trkpt>
      <trkpt lat="43.81965" lon="6.43381">
        <ele>677</ele>
        <time>2020-07-04T20:39:39Z</time>
      </trkpt>
      <trkpt lat="43.8195" lon="6.43404">
        <ele>676</ele>
        <time>2020-07-04T20:39:43Z</time>
      </trkpt>
      <trkpt lat="43.81918" lon="6.43485">
        <ele>667</ele>
        <time>2020-07-04T20:39:54Z</time>
      </trkpt>
      <trkpt lat="43.81896" lon="6.43535">
        <ele>674</ele>
        <time>2020-07-04T20:40:02Z</time>
      </trkpt>
      <trkpt lat="43.8187" lon="6.43581">
        <ele>677</ele>
        <time>2020-07-04T20:40:09Z</time>
      </trkpt>
      <trkpt lat="43.81851" lon="6.43603">
        <ele>678</ele>
        <time>2020-07-04T20:40:14Z</time>
      </trkpt>
      <trkpt lat="43.81828" lon="6.43623">
        <ele>678</ele>
        <time>2020-07-04T20:40:19Z</time>
      </trkpt>
      <trkpt lat="43.81814" lon="6.43632">
        <ele>677</ele>
        <time>2020-07-04T20:40:21Z</time>
      </trkpt>
      <trkpt lat="43.81772" lon="6.43652">
        <ele>677</ele>
        <time>2020-07-04T20:40:29Z</time>
      </trkpt>
      <trkpt lat="43.81756" lon="6.43657">
        <ele>677</ele>
        <time>2020-07-04T20:40:32Z</time>
      </trkpt>
      <trkpt lat="43.81725" lon="6.43661">
        <ele>679</ele>
        <time>2020-07-04T20:40:38Z</time>
      </trkpt>
      <trkpt lat="43.81676" lon="6.43662">
        <ele>685</ele>
        <time>2020-07-04T20:40:46Z</time>
      </trkpt>
      <trkpt lat="43.81655" lon="6.43667">
        <ele>690</ele>
        <time>2020-07-04T20:40:50Z</time>
      </trkpt>
      <trkpt lat="43.81637" lon="6.43679">
        <ele>698</ele>
        <time>2020-07-04T20:40:54Z</time>
      </trkpt>
      <trkpt lat="43.81601" lon="6.43708">
        <ele>699</ele>
        <time>2020-07-04T20:41:01Z</time>
      </trkpt>
      <trkpt lat="43.81592" lon="6.43719">
        <ele>695</ele>
        <time>2020-07-04T20:41:03Z</time>
      </trkpt>
      <trkpt lat="43.81587" lon="6.43732">
        <ele>688</ele>
        <time>2020-07-04T20:41:05Z</time>
      </trkpt>
      <trkpt lat="43.81576" lon="6.43768">
        <ele>683</ele>
        <time>2020-07-04T20:41:10Z</time>
      </trkpt>
      <trkpt lat="43.8157" lon="6.43785">
        <ele>688</ele>
        <time>2020-07-04T20:41:13Z</time>
      </trkpt>
      <trkpt lat="43.81563" lon="6.43797">
        <ele>691</ele>
        <time>2020-07-04T20:41:15Z</time>
      </trkpt>
      <trkpt lat="43.81553" lon="6.43809">
        <ele>693</ele>
        <time>2020-07-04T20:41:17Z</time>
      </trkpt>
      <trkpt lat="43.81543" lon="6.43817">
        <ele>692</ele>
        <time>2020-07-04T20:41:19Z</time>
      </trkpt>
      <trkpt lat="43.81531" lon="6.43822">
        <ele>691</ele>
        <time>2020-07-04T20:41:21Z</time>
      </trkpt>
      <trkpt lat="43.81521" lon="6.43822">
        <ele>689</ele>
        <time>2020-07-04T20:41:23Z</time>
      </trkpt>
      <trkpt lat="43.81492" lon="6.43816">
        <ele>687</ele>
        <time>2020-07-04T20:41:28Z</time>
      </trkpt>
      <trkpt lat="43.81484" lon="6.43818">
        <ele>687</ele>
        <time>2020-07-04T20:41:30Z</time>
      </trkpt>
      <trkpt lat="43.8147" lon="6.43825">
        <ele>686</ele>
        <time>2020-07-04T20:41:32Z</time>
      </trkpt>
      <trkpt lat="43.81453" lon="6.43823">
        <ele>686</ele>
        <time>2020-07-04T20:41:35Z</time>
      </trkpt>
      <trkpt lat="43.81415" lon="6.43824">
        <ele>685</ele>
        <time>2020-07-04T20:41:42Z</time>
      </trkpt>
      <trkpt lat="43.81376" lon="6.43807">
        <ele>674</ele>
        <time>2020-07-04T20:41:50Z</time>
      </trkpt>
      <trkpt lat="43.81284" lon="6.43707">
        <ele>670</ele>
        <time>2020-07-04T20:42:10Z</time>
      </trkpt>
      <trkpt lat="43.81263" lon="6.43689">
        <ele>670</ele>
        <time>2020-07-04T20:42:15Z</time>
      </trkpt>
      <trkpt lat="43.81235" lon="6.43669">
        <ele>666</ele>
        <time>2020-07-04T20:42:20Z</time>
      </trkpt>
      <trkpt lat="43.81223" lon="6.43663">
        <ele>666</ele>
        <time>2020-07-04T20:42:23Z</time>
      </trkpt>
      <trkpt lat="43.81176" lon="6.43643">
        <ele>668</ele>
        <time>2020-07-04T20:42:31Z</time>
      </trkpt>
      <trkpt lat="43.81162" lon="6.43639">
        <ele>669</ele>
        <time>2020-07-04T20:42:34Z</time>
      </trkpt>
      <trkpt lat="43.81155" lon="6.4364">
        <ele>670</ele>
        <time>2020-07-04T20:42:35Z</time>
      </trkpt>
      <trkpt lat="43.81139" lon="6.43646">
        <ele>671</ele>
        <time>2020-07-04T20:42:38Z</time>
      </trkpt>
      <trkpt lat="43.81097" lon="6.43676">
        <ele>670</ele>
        <time>2020-07-04T20:42:46Z</time>
      </trkpt>
      <trkpt lat="43.81076" lon="6.43687">
        <ele>674</ele>
        <time>2020-07-04T20:42:50Z</time>
      </trkpt>
      <trkpt lat="43.81041" lon="6.437">
        <ele>682</ele>
        <time>2020-07-04T20:42:57Z</time>
      </trkpt>
      <trkpt lat="43.8103" lon="6.43706">
        <ele>684</ele>
        <time>2020-07-04T20:42:59Z</time>
      </trkpt>
      <trkpt lat="43.81" lon="6.43736">
        <ele>679</ele>
        <time>2020-07-04T20:43:06Z</time>
      </trkpt>
      <trkpt lat="43.80964" lon="6.43764">
        <ele>673</ele>
        <time>2020-07-04T20:43:13Z</time>
      </trkpt>
      <trkpt lat="43.80926" lon="6.43784">
        <ele>670</ele>
        <time>2020-07-04T20:43:20Z</time>
      </trkpt>
      <trkpt lat="43.80893" lon="6.43807">
        <ele>663</ele>
        <time>2020-07-04T20:43:27Z</time>
      </trkpt>
      <trkpt lat="43.80879" lon="6.43809">
        <ele>662</ele>
        <time>2020-07-04T20:43:29Z</time>
      </trkpt>
      <trkpt lat="43.80856" lon="6.43804">
        <ele>662</ele>
        <time>2020-07-04T20:43:33Z</time>
      </trkpt>
      <trkpt lat="43.80824" lon="6.438">
        <ele>662</ele>
        <time>2020-07-04T20:43:39Z</time>
      </trkpt>
      <trkpt lat="43.80795" lon="6.43792">
        <ele>665</ele>
        <time>2020-07-04T20:43:44Z</time>
      </trkpt>
      <trkpt lat="43.80768" lon="6.43787">
        <ele>667</ele>
        <time>2020-07-04T20:43:49Z</time>
      </trkpt>
      <trkpt lat="43.80752" lon="6.43787">
        <ele>668</ele>
        <time>2020-07-04T20:43:52Z</time>
      </trkpt>
      <trkpt lat="43.80723" lon="6.43789">
        <ele>669</ele>
        <time>2020-07-04T20:43:57Z</time>
      </trkpt>
      <trkpt lat="43.80711" lon="6.43791">
        <ele>670</ele>
        <time>2020-07-04T20:43:59Z</time>
      </trkpt>
      <trkpt lat="43.80698" lon="6.43798">
        <ele>669</ele>
        <time>2020-07-04T20:44:02Z</time>
      </trkpt>
      <trkpt lat="43.80676" lon="6.43816">
        <ele>665</ele>
        <time>2020-07-04T20:44:06Z</time>
      </trkpt>
      <trkpt lat="43.80652" lon="6.43833">
        <ele>662</ele>
        <time>2020-07-04T20:44:11Z</time>
      </trkpt>
      <trkpt lat="43.80628" lon="6.43855">
        <ele>661</ele>
        <time>2020-07-04T20:44:16Z</time>
      </trkpt>
      <trkpt lat="43.80621" lon="6.43865">
        <ele>661</ele>
        <time>2020-07-04T20:44:18Z</time>
      </trkpt>
      <trkpt lat="43.80609" lon="6.43887">
        <ele>660</ele>
        <time>2020-07-04T20:44:22Z</time>
      </trkpt>
      <trkpt lat="43.80594" lon="6.43948">
        <ele>657</ele>
        <time>2020-07-04T20:44:30Z</time>
      </trkpt>
      <trkpt lat="43.8058" lon="6.43977">
        <ele>657</ele>
        <time>2020-07-04T20:44:34Z</time>
      </trkpt>
      <trkpt lat="43.8057" lon="6.43993">
        <ele>657</ele>
        <time>2020-07-04T20:44:37Z</time>
      </trkpt>
      <trkpt lat="43.80546" lon="6.44008">
        <ele>659</ele>
        <time>2020-07-04T20:44:42Z</time>
      </trkpt>
      <trkpt lat="43.8053" lon="6.44023">
        <ele>659</ele>
        <time>2020-07-04T20:44:45Z</time>
      </trkpt>
      <trkpt lat="43.80503" lon="6.4407">
        <ele>652</ele>
        <time>2020-07-04T20:44:53Z</time>
      </trkpt>
      <trkpt lat="43.80485" lon="6.44088">
        <ele>649</ele>
        <time>2020-07-04T20:44:57Z</time>
      </trkpt>
      <trkpt lat="43.80462" lon="6.44101">
        <ele>650</ele>
        <time>2020-07-04T20:45:01Z</time>
      </trkpt>
      <trkpt lat="43.80448" lon="6.441">
        <ele>650</ele>
        <time>2020-07-04T20:45:04Z</time>
      </trkpt>
      <trkpt lat="43.80436" lon="6.44088">
        <ele>650</ele>
        <time>2020-07-04T20:45:06Z</time>
      </trkpt>
      <trkpt lat="43.80431" lon="6.44078">
        <ele>650</ele>
        <time>2020-07-04T20:45:08Z</time>
      </trkpt>
      <trkpt lat="43.80429" lon="6.44064">
        <ele>651</ele>
        <time>2020-07-04T20:45:10Z</time>
      </trkpt>
      <trkpt lat="43.80435" lon="6.43946">
        <ele>659</ele>
        <time>2020-07-04T20:45:25Z</time>
      </trkpt>
      <trkpt lat="43.80432" lon="6.43925">
        <ele>660</ele>
        <time>2020-07-04T20:45:28Z</time>
      </trkpt>
      <trkpt lat="43.80428" lon="6.43878">
        <ele>667</ele>
        <time>2020-07-04T20:45:34Z</time>
      </trkpt>
      <trkpt lat="43.80423" lon="6.43859">
        <ele>670</ele>
        <time>2020-07-04T20:45:36Z</time>
      </trkpt>
      <trkpt lat="43.8042" lon="6.43852">
        <ele>671</ele>
        <time>2020-07-04T20:45:38Z</time>
      </trkpt>
      <trkpt lat="43.80413" lon="6.43846">
        <ele>671</ele>
        <time>2020-07-04T20:45:39Z</time>
      </trkpt>
      <trkpt lat="43.80362" lon="6.43813">
        <ele>666</ele>
        <time>2020-07-04T20:45:49Z</time>
      </trkpt>
      <trkpt lat="43.8034" lon="6.43794">
        <ele>669</ele>
        <time>2020-07-04T20:45:54Z</time>
      </trkpt>
      <trkpt lat="43.80318" lon="6.43785">
        <ele>669</ele>
        <time>2020-07-04T20:45:58Z</time>
      </trkpt>
      <trkpt lat="43.80271" lon="6.43777">
        <ele>668</ele>
        <time>2020-07-04T20:46:06Z</time>
      </trkpt>
      <trkpt lat="43.80197" lon="6.43786">
        <ele>663</ele>
        <time>2020-07-04T20:46:19Z</time>
      </trkpt>
      <trkpt lat="43.80134" lon="6.43788">
        <ele>663</ele>
        <time>2020-07-04T20:46:31Z</time>
      </trkpt>
      <trkpt lat="43.80088" lon="6.43804">
        <ele>659</ele>
        <time>2020-07-04T20:46:39Z</time>
      </trkpt>
      <trkpt lat="43.80033" lon="6.43836">
        <ele>651</ele>
        <time>2020-07-04T20:46:50Z</time>
      </trkpt>
      <trkpt lat="43.8001" lon="6.43839">
        <ele>650</ele>
        <time>2020-07-04T20:46:54Z</time>
      </trkpt>
      <trkpt lat="43.80001" lon="6.43836">
        <ele>650</ele>
        <time>2020-07-04T20:46:55Z</time>
      </trkpt>
      <trkpt lat="43.79992" lon="6.4383">
        <ele>650</ele>
        <time>2020-07-04T20:46:57Z</time>
      </trkpt>
      <trkpt lat="43.79967" lon="6.43801">
        <ele>656</ele>
        <time>2020-07-04T20:47:03Z</time>
      </trkpt>
      <trkpt lat="43.79953" lon="6.43789">
        <ele>659</ele>
        <time>2020-07-04T20:47:06Z</time>
      </trkpt>
      <trkpt lat="43.79937" lon="6.43783">
        <ele>661</ele>
        <time>2020-07-04T20:47:09Z</time>
      </trkpt>
      <trkpt lat="43.79927" lon="6.43784">
        <ele>661</ele>
        <time>2020-07-04T20:47:11Z</time>
      </trkpt>
      <trkpt lat="43.79917" lon="6.43787">
        <ele>660</ele>
        <time>2020-07-04T20:47:12Z</time>
      </trkpt>
      <trkpt lat="43.79895" lon="6.43797">
        <ele>659</ele>
        <time>2020-07-04T20:47:17Z</time>
      </trkpt>
      <trkpt lat="43.79826" lon="6.4382">
        <ele>656</ele>
        <time>2020-07-04T20:47:29Z</time>
      </trkpt>
      <trkpt lat="43.79794" lon="6.43828">
        <ele>657</ele>
        <time>2020-07-04T20:47:35Z</time>
      </trkpt>
      <trkpt lat="43.79701" lon="6.43844">
        <ele>655</ele>
        <time>2020-07-04T20:47:52Z</time>
      </trkpt>
      <trkpt lat="43.79694" lon="6.43845">
        <ele>654</ele>
        <time>2020-07-04T20:47:53Z</time>
      </trkpt>
      <trkpt lat="43.79678" lon="6.43841">
        <ele>654</ele>
        <time>2020-07-04T20:47:56Z</time>
      </trkpt>
      <trkpt lat="43.79642" lon="6.43814">
        <ele>656</ele>
        <time>2020-07-04T20:48:03Z</time>
      </trkpt>
      <trkpt lat="43.79624" lon="6.43795">
        <ele>656</ele>
        <time>2020-07-04T20:48:07Z</time>
      </trkpt>
      <trkpt lat="43.79617" lon="6.43784">
        <ele>656</ele>
        <time>2020-07-04T20:48:09Z</time>
      </trkpt>
      <trkpt lat="43.79611" lon="6.43772">
        <ele>656</ele>
        <time>2020-07-04T20:48:11Z</time>
      </trkpt>
      <trkpt lat="43.796" lon="6.43734">
        <ele>656</ele>
        <time>2020-07-04T20:48:16Z</time>
      </trkpt>
      <trkpt lat="43.79592" lon="6.43704">
        <ele>655</ele>
        <time>2020-07-04T20:48:20Z</time>
      </trkpt>
      <trkpt lat="43.79578" lon="6.43657">
        <ele>654</ele>
        <time>2020-07-04T20:48:27Z</time>
      </trkpt>
      <trkpt lat="43.79566" lon="6.43635">
        <ele>655</ele>
        <time>2020-07-04T20:48:30Z</time>
      </trkpt>
      <trkpt lat="43.79528" lon="6.43595">
        <ele>653</ele>
        <time>2020-07-04T20:48:39Z</time>
      </trkpt>
      <trkpt lat="43.79462" lon="6.43535">
        <ele>649</ele>
        <time>2020-07-04T20:48:53Z</time>
      </trkpt>
      <trkpt lat="43.79451" lon="6.43521">
        <ele>648</ele>
        <time>2020-07-04T20:48:55Z</time>
      </trkpt>
      <trkpt lat="43.7941" lon="6.43455">
        <ele>645</ele>
        <time>2020-07-04T20:49:07Z</time>
      </trkpt>
      <trkpt lat="43.79396" lon="6.43423">
        <ele>645</ele>
        <time>2020-07-04T20:49:11Z</time>
      </trkpt>
      <trkpt lat="43.79392" lon="6.43411">
        <ele>645</ele>
        <time>2020-07-04T20:49:13Z</time>
      </trkpt>
      <trkpt lat="43.79385" lon="6.43376">
        <ele>647</ele>
        <time>2020-07-04T20:49:18Z</time>
      </trkpt>
      <trkpt lat="43.79379" lon="6.43364">
        <ele>647</ele>
        <time>2020-07-04T20:49:20Z</time>
      </trkpt>
      <trkpt lat="43.79375" lon="6.43361">
        <ele>648</ele>
        <time>2020-07-04T20:49:21Z</time>
      </trkpt>
      <trkpt lat="43.79363" lon="6.43356">
        <ele>648</ele>
        <time>2020-07-04T20:49:23Z</time>
      </trkpt>
      <trkpt lat="43.79323" lon="6.43363">
        <ele>645</ele>
        <time>2020-07-04T20:49:30Z</time>
      </trkpt>
      <trkpt lat="43.79315" lon="6.43364">
        <ele>644</ele>
        <time>2020-07-04T20:49:31Z</time>
      </trkpt>
      <trkpt lat="43.79308" lon="6.43361">
        <ele>644</ele>
        <time>2020-07-04T20:49:33Z</time>
      </trkpt>
      <trkpt lat="43.79291" lon="6.43345">
        <ele>643</ele>
        <time>2020-07-04T20:49:36Z</time>
      </trkpt>
      <trkpt lat="43.79259" lon="6.4332">
        <ele>641</ele>
        <time>2020-07-04T20:49:43Z</time>
      </trkpt>
      <trkpt lat="43.79253" lon="6.43307">
        <ele>641</ele>
        <time>2020-07-04T20:49:45Z</time>
      </trkpt>
      <trkpt lat="43.79249" lon="6.43282">
        <ele>641</ele>
        <time>2020-07-04T20:49:48Z</time>
      </trkpt>
      <trkpt lat="43.79245" lon="6.43274">
        <ele>642</ele>
        <time>2020-07-04T20:49:49Z</time>
      </trkpt>
      <trkpt lat="43.79226" lon="6.43259">
        <ele>642</ele>
        <time>2020-07-04T20:49:53Z</time>
      </trkpt>
      <trkpt lat="43.79216" lon="6.43246">
        <ele>643</ele>
        <time>2020-07-04T20:49:56Z</time>
      </trkpt>
      <trkpt lat="43.79213" lon="6.43237">
        <ele>644</ele>
        <time>2020-07-04T20:49:57Z</time>
      </trkpt>
      <trkpt lat="43.79213" lon="6.43221">
        <ele>645</ele>
        <time>2020-07-04T20:49:59Z</time>
      </trkpt>
      <trkpt lat="43.79219" lon="6.43193">
        <ele>647</ele>
        <time>2020-07-04T20:50:03Z</time>
      </trkpt>
      <trkpt lat="43.79222" lon="6.43185">
        <ele>648</ele>
        <time>2020-07-04T20:50:04Z</time>
      </trkpt>
      <trkpt lat="43.79251" lon="6.43144">
        <ele>647</ele>
        <time>2020-07-04T20:50:11Z</time>
      </trkpt>
      <trkpt lat="43.79257" lon="6.43133">
        <ele>648</ele>
        <time>2020-07-04T20:50:13Z</time>
      </trkpt>
      <trkpt lat="43.7926" lon="6.43124">
        <ele>649</ele>
        <time>2020-07-04T20:50:14Z</time>
      </trkpt>
      <trkpt lat="43.7926" lon="6.43106">
        <ele>650</ele>
        <time>2020-07-04T20:50:17Z</time>
      </trkpt>
      <trkpt lat="43.79258" lon="6.43095">
        <ele>650</ele>
        <time>2020-07-04T20:50:18Z</time>
      </trkpt>
      <trkpt lat="43.7924" lon="6.43049">
        <ele>655</ele>
        <time>2020-07-04T20:50:25Z</time>
      </trkpt>
      <trkpt lat="43.79232" lon="6.43017">
        <ele>659</ele>
        <time>2020-07-04T20:50:29Z</time>
      </trkpt>
      <trkpt lat="43.79225" lon="6.42995">
        <ele>663</ele>
        <time>2020-07-04T20:50:32Z</time>
      </trkpt>
      <trkpt lat="43.79216" lon="6.42975">
        <ele>668</ele>
        <time>2020-07-04T20:50:35Z</time>
      </trkpt>
      <trkpt lat="43.79206" lon="6.42961">
        <ele>670</ele>
        <time>2020-07-04T20:50:38Z</time>
      </trkpt>
      <trkpt lat="43.79167" lon="6.42913">
        <ele>665</ele>
        <time>2020-07-04T20:50:47Z</time>
      </trkpt>
      <trkpt lat="43.79149" lon="6.42871">
        <ele>682</ele>
        <time>2020-07-04T20:50:53Z</time>
      </trkpt>
      <trkpt lat="43.79149" lon="6.42854">
        <ele>685</ele>
        <time>2020-07-04T20:50:56Z</time>
      </trkpt>
      <trkpt lat="43.79154" lon="6.42838">
        <ele>687</ele>
        <time>2020-07-04T20:50:58Z</time>
      </trkpt>
      <trkpt lat="43.79159" lon="6.4281">
        <ele>690</ele>
        <time>2020-07-04T20:51:02Z</time>
      </trkpt>
      <trkpt lat="43.79148" lon="6.42753">
        <ele>697</ele>
        <time>2020-07-04T20:51:09Z</time>
      </trkpt>
      <trkpt lat="43.79138" lon="6.42714">
        <ele>704</ele>
        <time>2020-07-04T20:51:14Z</time>
      </trkpt>
      <trkpt lat="43.79133" lon="6.4269">
        <ele>708</ele>
        <time>2020-07-04T20:51:18Z</time>
      </trkpt>
      <trkpt lat="43.79134" lon="6.4265">
        <ele>714</ele>
        <time>2020-07-04T20:51:23Z</time>
      </trkpt>
      <trkpt lat="43.79132" lon="6.4263">
        <ele>715</ele>
        <time>2020-07-04T20:51:25Z</time>
      </trkpt>
      <trkpt lat="43.79124" lon="6.42607">
        <ele>715</ele>
        <time>2020-07-04T20:51:29Z</time>
      </trkpt>
      <trkpt lat="43.79121" lon="6.42578">
        <ele>717</ele>
        <time>2020-07-04T20:51:32Z</time>
      </trkpt>
      <trkpt lat="43.79118" lon="6.42559">
        <ele>723</ele>
        <time>2020-07-04T20:51:35Z</time>
      </trkpt>
      <trkpt lat="43.79096" lon="6.4248">
        <ele>736</ele>
        <time>2020-07-04T20:51:46Z</time>
      </trkpt>
      <trkpt lat="43.79088" lon="6.42461">
        <ele>736</ele>
        <time>2020-07-04T20:51:49Z</time>
      </trkpt>
      <trkpt lat="43.79086" lon="6.42448">
        <ele>738</ele>
        <time>2020-07-04T20:51:50Z</time>
      </trkpt>
      <trkpt lat="43.79085" lon="6.4242">
        <ele>745</ele>
        <time>2020-07-04T20:51:54Z</time>
      </trkpt>
      <trkpt lat="43.79096" lon="6.42391">
        <ele>751</ele>
        <time>2020-07-04T20:51:58Z</time>
      </trkpt>
      <trkpt lat="43.79112" lon="6.42365">
        <ele>753</ele>
        <time>2020-07-04T20:52:02Z</time>
      </trkpt>
      <trkpt lat="43.79126" lon="6.42337">
        <ele>750</ele>
        <time>2020-07-04T20:52:07Z</time>
      </trkpt>
      <trkpt lat="43.79167" lon="6.4228">
        <ele>764</ele>
        <time>2020-07-04T20:52:17Z</time>
      </trkpt>
      <trkpt lat="43.79186" lon="6.42258">
        <ele>787</ele>
        <time>2020-07-04T20:52:22Z</time>
      </trkpt>
      <trkpt lat="43.79191" lon="6.42249">
        <ele>794</ele>
        <time>2020-07-04T20:52:23Z</time>
      </trkpt>
      <trkpt lat="43.79205" lon="6.42211">
        <ele>825</ele>
        <time>2020-07-04T20:52:29Z</time>
      </trkpt>
      <trkpt lat="43.79209" lon="6.42205">
        <ele>830</ele>
        <time>2020-07-04T20:52:30Z</time>
      </trkpt>
      <trkpt lat="43.79214" lon="6.42201">
        <ele>834</ele>
        <time>2020-07-04T20:52:31Z</time>
      </trkpt>
      <trkpt lat="43.79242" lon="6.42186">
        <ele>852</ele>
        <time>2020-07-04T20:52:36Z</time>
      </trkpt>
      <trkpt lat="43.79268" lon="6.42161">
        <ele>863</ele>
        <time>2020-07-04T20:52:42Z</time>
      </trkpt>
      <trkpt lat="43.79298" lon="6.42121">
        <ele>863</ele>
        <time>2020-07-04T20:52:49Z</time>
      </trkpt>
      <trkpt lat="43.79302" lon="6.42092">
        <ele>860</ele>
        <time>2020-07-04T20:52:53Z</time>
      </trkpt>
      <trkpt lat="43.79324" lon="6.42053">
        <ele>862</ele>
        <time>2020-07-04T20:52:59Z</time>
      </trkpt>
      <trkpt lat="43.7933" lon="6.42039">
        <ele>860</ele>
        <time>2020-07-04T20:53:01Z</time>
      </trkpt>
      <trkpt lat="43.79339" lon="6.42026">
        <ele>860</ele>
        <time>2020-07-04T20:53:04Z</time>
      </trkpt>
      <trkpt lat="43.79355" lon="6.42011">
        <ele>863</ele>
        <time>2020-07-04T20:53:07Z</time>
      </trkpt>
      <trkpt lat="43.7936" lon="6.42005">
        <ele>864</ele>
        <time>2020-07-04T20:53:08Z</time>
      </trkpt>
      <trkpt lat="43.79373" lon="6.41957">
        <ele>864</ele>
        <time>2020-07-04T20:53:15Z</time>
      </trkpt>
      <trkpt lat="43.79389" lon="6.41929">
        <ele>862</ele>
        <time>2020-07-04T20:53:19Z</time>
      </trkpt>
      <trkpt lat="43.79397" lon="6.41909">
        <ele>860</ele>
        <time>2020-07-04T20:53:22Z</time>
      </trkpt>
      <trkpt lat="43.79403" lon="6.41879">
        <ele>862</ele>
        <time>2020-07-04T20:53:26Z</time>
      </trkpt>
      <trkpt lat="43.79412" lon="6.41853">
        <ele>859</ele>
        <time>2020-07-04T20:53:30Z</time>
      </trkpt>
      <trkpt lat="43.79428" lon="6.4183">
        <ele>862</ele>
        <time>2020-07-04T20:53:34Z</time>
      </trkpt>
      <trkpt lat="43.79447" lon="6.41809">
        <ele>871</ele>
        <time>2020-07-04T20:53:38Z</time>
      </trkpt>
      <trkpt lat="43.79482" lon="6.41748">
        <ele>864</ele>
        <time>2020-07-04T20:53:48Z</time>
      </trkpt>
      <trkpt lat="43.79516" lon="6.417">
        <ele>867</ele>
        <time>2020-07-04T20:53:57Z</time>
      </trkpt>
      <trkpt lat="43.79548" lon="6.41661">
        <ele>878</ele>
        <time>2020-07-04T20:54:05Z</time>
      </trkpt>
      <trkpt lat="43.79564" lon="6.41628">
        <ele>876</ele>
        <time>2020-07-04T20:54:10Z</time>
      </trkpt>
      <trkpt lat="43.79586" lon="6.41598">
        <ele>871</ele>
        <time>2020-07-04T20:54:15Z</time>
      </trkpt>
      <trkpt lat="43.79593" lon="6.41582">
        <ele>870</ele>
        <time>2020-07-04T20:54:18Z</time>
      </trkpt>
      <trkpt lat="43.79599" lon="6.41557">
        <ele>868</ele>
        <time>2020-07-04T20:54:21Z</time>
      </trkpt>
      <trkpt lat="43.79614" lon="6.41534">
        <ele>871</ele>
        <time>2020-07-04T20:54:25Z</time>
      </trkpt>
      <trkpt lat="43.79616" lon="6.41523">
        <ele>869</ele>
        <time>2020-07-04T20:54:26Z</time>
      </trkpt>
      <trkpt lat="43.79616" lon="6.41502">
        <ele>863</ele>
        <time>2020-07-04T20:54:29Z</time>
      </trkpt>
      <trkpt lat="43.79617" lon="6.41488">
        <ele>862</ele>
        <time>2020-07-04T20:54:31Z</time>
      </trkpt>
      <trkpt lat="43.79626" lon="6.41474">
        <ele>864</ele>
        <time>2020-07-04T20:54:33Z</time>
      </trkpt>
      <trkpt lat="43.79655" lon="6.41446">
        <ele>869</ele>
        <time>2020-07-04T20:54:40Z</time>
      </trkpt>
      <trkpt lat="43.79658" lon="6.41441">
        <ele>868</ele>
        <time>2020-07-04T20:54:40Z</time>
      </trkpt>
      <trkpt lat="43.79662" lon="6.4142">
        <ele>862</ele>
        <time>2020-07-04T20:54:43Z</time>
      </trkpt>
      <trkpt lat="43.79675" lon="6.41395">
        <ele>865</ele>
        <time>2020-07-04T20:54:47Z</time>
      </trkpt>
      <trkpt lat="43.79678" lon="6.41381">
        <ele>866</ele>
        <time>2020-07-04T20:54:49Z</time>
      </trkpt>
      <trkpt lat="43.79676" lon="6.41345">
        <ele>860</ele>
        <time>2020-07-04T20:54:54Z</time>
      </trkpt>
      <trkpt lat="43.79677" lon="6.41332">
        <ele>859</ele>
        <time>2020-07-04T20:54:55Z</time>
      </trkpt>
      <trkpt lat="43.79688" lon="6.41319">
        <ele>863</ele>
        <time>2020-07-04T20:54:58Z</time>
      </trkpt>
      <trkpt lat="43.79713" lon="6.41275">
        <ele>866</ele>
        <time>2020-07-04T20:55:05Z</time>
      </trkpt>
      <trkpt lat="43.79715" lon="6.41268">
        <ele>866</ele>
        <time>2020-07-04T20:55:06Z</time>
      </trkpt>
      <trkpt lat="43.79714" lon="6.41255">
        <ele>863</ele>
        <time>2020-07-04T20:55:08Z</time>
      </trkpt>
      <trkpt lat="43.79706" lon="6.41241">
        <ele>854</ele>
        <time>2020-07-04T20:55:10Z</time>
      </trkpt>
      <trkpt lat="43.7968" lon="6.41211">
        <ele>828</ele>
        <time>2020-07-04T20:55:16Z</time>
      </trkpt>
      <trkpt lat="43.79669" lon="6.41191">
        <ele>812</ele>
        <time>2020-07-04T20:55:19Z</time>
      </trkpt>
      <trkpt lat="43.79661" lon="6.41158">
        <ele>793</ele>
        <time>2020-07-04T20:55:24Z</time>
      </trkpt>
      <trkpt lat="43.79653" lon="6.41139">
        <ele>786</ele>
        <time>2020-07-04T20:55:27Z</time>
      </trkpt>
      <trkpt lat="43.7963" lon="6.41108">
        <ele>771</ele>
        <time>2020-07-04T20:55:32Z</time>
      </trkpt>
      <trkpt lat="43.79628" lon="6.41101">
        <ele>770</ele>
        <time>2020-07-04T20:55:33Z</time>
      </trkpt>
      <trkpt lat="43.79627" lon="6.41061">
        <ele>762</ele>
        <time>2020-07-04T20:55:39Z</time>
      </trkpt>
      <trkpt lat="43.79619" lon="6.4103">
        <ele>752</ele>
        <time>2020-07-04T20:55:43Z</time>
      </trkpt>
      <trkpt lat="43.79618" lon="6.41022">
        <ele>750</ele>
        <time>2020-07-04T20:55:44Z</time>
      </trkpt>
      <trkpt lat="43.79624" lon="6.40995">
        <ele>746</ele>
        <time>2020-07-04T20:55:47Z</time>
      </trkpt>
      <trkpt lat="43.79625" lon="6.40987">
        <ele>745</ele>
        <time>2020-07-04T20:55:48Z</time>
      </trkpt>
      <trkpt lat="43.79624" lon="6.40979">
        <ele>744</ele>
        <time>2020-07-04T20:55:49Z</time>
      </trkpt>
      <trkpt lat="43.7962" lon="6.40972">
        <ele>741</ele>
        <time>2020-07-04T20:55:51Z</time>
      </trkpt>
      <trkpt lat="43.79598" lon="6.40956">
        <ele>731</ele>
        <time>2020-07-04T20:55:55Z</time>
      </trkpt>
      <trkpt lat="43.79594" lon="6.40949">
        <ele>728</ele>
        <time>2020-07-04T20:55:56Z</time>
      </trkpt>
      <trkpt lat="43.7959" lon="6.40931">
        <ele>723</ele>
        <time>2020-07-04T20:55:59Z</time>
      </trkpt>
      <trkpt lat="43.79593" lon="6.40904">
        <ele>723</ele>
        <time>2020-07-04T20:56:02Z</time>
      </trkpt>
      <trkpt lat="43.79597" lon="6.40879">
        <ele>726</ele>
        <time>2020-07-04T20:56:05Z</time>
      </trkpt>
      <trkpt lat="43.79615" lon="6.40826">
        <ele>736</ele>
        <time>2020-07-04T20:56:13Z</time>
      </trkpt>
      <trkpt lat="43.79616" lon="6.40812">
        <ele>738</ele>
        <time>2020-07-04T20:56:15Z</time>
      </trkpt>
      <trkpt lat="43.79614" lon="6.40808">
        <ele>739</ele>
        <time>2020-07-04T20:56:15Z</time>
      </trkpt>
      <trkpt lat="43.79602" lon="6.40795">
        <ele>738</ele>
        <time>2020-07-04T20:56:18Z</time>
      </trkpt>
      <trkpt lat="43.79571" lon="6.40771">
        <ele>738</ele>
        <time>2020-07-04T20:56:24Z</time>
      </trkpt>
      <trkpt lat="43.79561" lon="6.40766">
        <ele>738</ele>
        <time>2020-07-04T20:56:26Z</time>
      </trkpt>
      <trkpt lat="43.79483" lon="6.40738">
        <ele>742</ele>
        <time>2020-07-04T20:56:41Z</time>
      </trkpt>
      <trkpt lat="43.79463" lon="6.40735">
        <ele>746</ele>
        <time>2020-07-04T20:56:44Z</time>
      </trkpt>
      <trkpt lat="43.79456" lon="6.40734">
        <ele>747</ele>
        <time>2020-07-04T20:56:45Z</time>
      </trkpt>
      <trkpt lat="43.79441" lon="6.40739">
        <ele>748</ele>
        <time>2020-07-04T20:56:48Z</time>
      </trkpt>
      <trkpt lat="43.79429" lon="6.40751">
        <ele>746</ele>
        <time>2020-07-04T20:56:51Z</time>
      </trkpt>
      <trkpt lat="43.7941" lon="6.40777">
        <ele>736</ele>
        <time>2020-07-04T20:56:56Z</time>
      </trkpt>
      <trkpt lat="43.794" lon="6.40781">
        <ele>732</ele>
        <time>2020-07-04T20:56:57Z</time>
      </trkpt>
      <trkpt lat="43.79395" lon="6.40779">
        <ele>732</ele>
        <time>2020-07-04T20:56:58Z</time>
      </trkpt>
      <trkpt lat="43.79349" lon="6.40749">
        <ele>741</ele>
        <time>2020-07-04T20:57:07Z</time>
      </trkpt>
      <trkpt lat="43.79326" lon="6.40727">
        <ele>740</ele>
        <time>2020-07-04T20:57:12Z</time>
      </trkpt>
      <trkpt lat="43.79319" lon="6.40714">
        <ele>740</ele>
        <time>2020-07-04T20:57:14Z</time>
      </trkpt>
      <trkpt lat="43.79318" lon="6.40707">
        <ele>741</ele>
        <time>2020-07-04T20:57:15Z</time>
      </trkpt>
      <trkpt lat="43.7932" lon="6.40695">
        <ele>745</ele>
        <time>2020-07-04T20:57:17Z</time>
      </trkpt>
      <trkpt lat="43.79338" lon="6.40652">
        <ele>753</ele>
        <time>2020-07-04T20:57:23Z</time>
      </trkpt>
      <trkpt lat="43.79372" lon="6.40594">
        <ele>754</ele>
        <time>2020-07-04T20:57:33Z</time>
      </trkpt>
      <trkpt lat="43.79378" lon="6.40576">
        <ele>755</ele>
        <time>2020-07-04T20:57:35Z</time>
      </trkpt>
      <trkpt lat="43.79379" lon="6.40525">
        <ele>755</ele>
        <time>2020-07-04T20:57:42Z</time>
      </trkpt>
      <trkpt lat="43.79386" lon="6.40492">
        <ele>760</ele>
        <time>2020-07-04T20:57:46Z</time>
      </trkpt>
      <trkpt lat="43.79388" lon="6.40472">
        <ele>762</ele>
        <time>2020-07-04T20:57:49Z</time>
      </trkpt>
      <trkpt lat="43.79386" lon="6.40456">
        <ele>762</ele>
        <time>2020-07-04T20:57:51Z</time>
      </trkpt>
      <trkpt lat="43.79371" lon="6.40426">
        <ele>757</ele>
        <time>2020-07-04T20:57:56Z</time>
      </trkpt>
      <trkpt lat="43.79362" lon="6.40399">
        <ele>753</ele>
        <time>2020-07-04T20:58:00Z</time>
      </trkpt>
      <trkpt lat="43.79358" lon="6.40387">
        <ele>751</ele>
        <time>2020-07-04T20:58:01Z</time>
      </trkpt>
      <trkpt lat="43.7936" lon="6.40369">
        <ele>752</ele>
        <time>2020-07-04T20:58:04Z</time>
      </trkpt>
      <trkpt lat="43.79363" lon="6.40359">
        <ele>753</ele>
        <time>2020-07-04T20:58:05Z</time>
      </trkpt>
      <trkpt lat="43.79369" lon="6.40347">
        <ele>755</ele>
        <time>2020-07-04T20:58:07Z</time>
      </trkpt>
      <trkpt lat="43.79389" lon="6.40313">
        <ele>761</ele>
        <time>2020-07-04T20:58:13Z</time>
      </trkpt>
      <trkpt lat="43.79405" lon="6.40294">
        <ele>767</ele>
        <time>2020-07-04T20:58:16Z</time>
      </trkpt>
      <trkpt lat="43.79409" lon="6.40285">
        <ele>768</ele>
        <time>2020-07-04T20:58:18Z</time>
      </trkpt>
      <trkpt lat="43.79414" lon="6.40262">
        <ele>769</ele>
        <time>2020-07-04T20:58:21Z</time>
      </trkpt>
      <trkpt lat="43.79415" lon="6.40192">
        <ele>763</ele>
        <time>2020-07-04T20:58:30Z</time>
      </trkpt>
      <trkpt lat="43.79419" lon="6.40182">
        <ele>764</ele>
        <time>2020-07-04T20:58:31Z</time>
      </trkpt>
      <trkpt lat="43.79423" lon="6.40175">
        <ele>765</ele>
        <time>2020-07-04T20:58:32Z</time>
      </trkpt>
      <trkpt lat="43.79447" lon="6.40143">
        <ele>772</ele>
        <time>2020-07-04T20:58:38Z</time>
      </trkpt>
      <trkpt lat="43.79474" lon="6.40122">
        <ele>780</ele>
        <time>2020-07-04T20:58:44Z</time>
      </trkpt>
      <trkpt lat="43.79479" lon="6.40114">
        <ele>780</ele>
        <time>2020-07-04T20:58:45Z</time>
      </trkpt>
      <trkpt lat="43.79489" lon="6.40096">
        <ele>781</ele>
        <time>2020-07-04T20:58:48Z</time>
      </trkpt>
      <trkpt lat="43.79494" lon="6.40073">
        <ele>782</ele>
        <time>2020-07-04T20:58:51Z</time>
      </trkpt>
      <trkpt lat="43.79496" lon="6.40058">
        <ele>784</ele>
        <time>2020-07-04T20:58:53Z</time>
      </trkpt>
      <trkpt lat="43.79493" lon="6.40044">
        <ele>785</ele>
        <time>2020-07-04T20:58:55Z</time>
      </trkpt>
      <trkpt lat="43.79489" lon="6.40038">
        <ele>785</ele>
        <time>2020-07-04T20:58:56Z</time>
      </trkpt>
      <trkpt lat="43.79473" lon="6.40024">
        <ele>782</ele>
        <time>2020-07-04T20:58:59Z</time>
      </trkpt>
      <trkpt lat="43.79467" lon="6.40016">
        <ele>781</ele>
        <time>2020-07-04T20:59:01Z</time>
      </trkpt>
      <trkpt lat="43.79451" lon="6.39972">
        <ele>784</ele>
        <time>2020-07-04T20:59:07Z</time>
      </trkpt>
      <trkpt lat="43.79441" lon="6.39949">
        <ele>786</ele>
        <time>2020-07-04T20:59:11Z</time>
      </trkpt>
      <trkpt lat="43.7943" lon="6.39936">
        <ele>786</ele>
        <time>2020-07-04T20:59:13Z</time>
      </trkpt>
      <trkpt lat="43.79415" lon="6.39925">
        <ele>786</ele>
        <time>2020-07-04T20:59:16Z</time>
      </trkpt>
      <trkpt lat="43.79408" lon="6.39918">
        <ele>788</ele>
        <time>2020-07-04T20:59:18Z</time>
      </trkpt>
      <trkpt lat="43.79404" lon="6.39911">
        <ele>788</ele>
        <time>2020-07-04T20:59:19Z</time>
      </trkpt>
      <trkpt lat="43.79402" lon="6.39897">
        <ele>788</ele>
        <time>2020-07-04T20:59:21Z</time>
      </trkpt>
      <trkpt lat="43.79402" lon="6.39887">
        <ele>788</ele>
        <time>2020-07-04T20:59:22Z</time>
      </trkpt>
      <trkpt lat="43.7941" lon="6.39863">
        <ele>787</ele>
        <time>2020-07-04T20:59:25Z</time>
      </trkpt>
      <trkpt lat="43.79417" lon="6.3985">
        <ele>787</ele>
        <time>2020-07-04T20:59:28Z</time>
      </trkpt>
      <trkpt lat="43.79424" lon="6.3984">
        <ele>789</ele>
        <time>2020-07-04T20:59:29Z</time>
      </trkpt>
      <trkpt lat="43.79437" lon="6.39829">
        <ele>791</ele>
        <time>2020-07-04T20:59:32Z</time>
      </trkpt>
      <trkpt lat="43.79444" lon="6.39821">
        <ele>792</ele>
        <time>2020-07-04T20:59:34Z</time>
      </trkpt>
      <trkpt lat="43.79448" lon="6.39813">
        <ele>793</ele>
        <time>2020-07-04T20:59:35Z</time>
      </trkpt>
      <trkpt lat="43.7945" lon="6.39804">
        <ele>793</ele>
        <time>2020-07-04T20:59:36Z</time>
      </trkpt>
      <trkpt lat="43.79448" lon="6.39772">
        <ele>792</ele>
        <time>2020-07-04T20:59:40Z</time>
      </trkpt>
      <trkpt lat="43.79448" lon="6.39755">
        <ele>791</ele>
        <time>2020-07-04T20:59:42Z</time>
      </trkpt>
      <trkpt lat="43.79452" lon="6.39719">
        <ele>792</ele>
        <time>2020-07-04T20:59:47Z</time>
      </trkpt>
      <trkpt lat="43.79451" lon="6.39711">
        <ele>792</ele>
        <time>2020-07-04T20:59:48Z</time>
      </trkpt>
      <trkpt lat="43.79448" lon="6.39705">
        <ele>791</ele>
        <time>2020-07-04T20:59:49Z</time>
      </trkpt>
      <trkpt lat="43.7942" lon="6.39674">
        <ele>783</ele>
        <time>2020-07-04T20:59:55Z</time>
      </trkpt>
      <trkpt lat="43.79414" lon="6.39664">
        <ele>781</ele>
        <time>2020-07-04T20:59:57Z</time>
      </trkpt>
      <trkpt lat="43.79409" lon="6.39655">
        <ele>780</ele>
        <time>2020-07-04T20:59:59Z</time>
      </trkpt>
      <trkpt lat="43.79407" lon="6.39646">
        <ele>780</ele>
        <time>2020-07-04T21:00:00Z</time>
      </trkpt>
      <trkpt lat="43.79407" lon="6.3962">
        <ele>781</ele>
        <time>2020-07-04T21:00:03Z</time>
      </trkpt>
      <trkpt lat="43.79411" lon="6.39574">
        <ele>785</ele>
        <time>2020-07-04T21:00:09Z</time>
      </trkpt>
      <trkpt lat="43.79409" lon="6.39553">
        <ele>785</ele>
        <time>2020-07-04T21:00:12Z</time>
      </trkpt>
      <trkpt lat="43.79395" lon="6.39498">
        <ele>782</ele>
        <time>2020-07-04T21:00:19Z</time>
      </trkpt>
      <trkpt lat="43.7938" lon="6.39393">
        <ele>780</ele>
        <time>2020-07-04T21:00:33Z</time>
      </trkpt>
      <trkpt lat="43.79369" lon="6.3937">
        <ele>776</ele>
        <time>2020-07-04T21:00:37Z</time>
      </trkpt>
      <trkpt lat="43.79366" lon="6.39359">
        <ele>775</ele>
        <time>2020-07-04T21:00:38Z</time>
      </trkpt>
      <trkpt lat="43.79365" lon="6.39347">
        <ele>775</ele>
        <time>2020-07-04T21:00:40Z</time>
      </trkpt>
      <trkpt lat="43.79366" lon="6.39307">
        <ele>778</ele>
        <time>2020-07-04T21:00:45Z</time>
      </trkpt>
      <trkpt lat="43.79365" lon="6.39299">
        <ele>778</ele>
        <time>2020-07-04T21:00:46Z</time>
      </trkpt>
      <trkpt lat="43.79355" lon="6.39275">
        <ele>773</ele>
        <time>2020-07-04T21:00:49Z</time>
      </trkpt>
      <trkpt lat="43.7935" lon="6.39246">
        <ele>772</ele>
        <time>2020-07-04T21:00:53Z</time>
      </trkpt>
      <trkpt lat="43.79349" lon="6.39231">
        <ele>771</ele>
        <time>2020-07-04T21:00:55Z</time>
      </trkpt>
      <trkpt lat="43.7936" lon="6.39111">
        <ele>772</ele>
        <time>2020-07-04T21:01:11Z</time>
      </trkpt>
      <trkpt lat="43.79362" lon="6.39097">
        <ele>771</ele>
        <time>2020-07-04T21:01:13Z</time>
      </trkpt>
      <trkpt lat="43.79378" lon="6.39041">
        <ele>768</ele>
        <time>2020-07-04T21:01:20Z</time>
      </trkpt>
      <trkpt lat="43.79404" lon="6.38983">
        <ele>765</ele>
        <time>2020-07-04T21:01:29Z</time>
      </trkpt>
      <trkpt lat="43.79416" lon="6.38961">
        <ele>763</ele>
        <time>2020-07-04T21:01:33Z</time>
      </trkpt>
      <trkpt lat="43.7945" lon="6.38909">
        <ele>756</ele>
        <time>2020-07-04T21:01:42Z</time>
      </trkpt>
      <trkpt lat="43.79464" lon="6.38897">
        <ele>759</ele>
        <time>2020-07-04T21:01:45Z</time>
      </trkpt>
      <trkpt lat="43.79487" lon="6.38885">
        <ele>765</ele>
        <time>2020-07-04T21:01:49Z</time>
      </trkpt>
      <trkpt lat="43.79497" lon="6.38874">
        <ele>766</ele>
        <time>2020-07-04T21:01:51Z</time>
      </trkpt>
      <trkpt lat="43.79499" lon="6.38867">
        <ele>766</ele>
        <time>2020-07-04T21:01:52Z</time>
      </trkpt>
      <trkpt lat="43.79501" lon="6.38846">
        <ele>763</ele>
        <time>2020-07-04T21:01:55Z</time>
      </trkpt>
      <trkpt lat="43.79499" lon="6.38818">
        <ele>761</ele>
        <time>2020-07-04T21:01:58Z</time>
      </trkpt>
      <trkpt lat="43.7949" lon="6.38785">
        <ele>758</ele>
        <time>2020-07-04T21:02:03Z</time>
      </trkpt>
      <trkpt lat="43.79475" lon="6.38739">
        <ele>755</ele>
        <time>2020-07-04T21:02:09Z</time>
      </trkpt>
      <trkpt lat="43.79474" lon="6.38727">
        <ele>756</ele>
        <time>2020-07-04T21:02:11Z</time>
      </trkpt>
      <trkpt lat="43.79475" lon="6.387">
        <ele>757</ele>
        <time>2020-07-04T21:02:15Z</time>
      </trkpt>
      <trkpt lat="43.7948" lon="6.38671">
        <ele>759</ele>
        <time>2020-07-04T21:02:18Z</time>
      </trkpt>
      <trkpt lat="43.79483" lon="6.38662">
        <ele>759</ele>
        <time>2020-07-04T21:02:20Z</time>
      </trkpt>
      <trkpt lat="43.79495" lon="6.38646">
        <ele>758</ele>
        <time>2020-07-04T21:02:23Z</time>
      </trkpt>
      <trkpt lat="43.79502" lon="6.38642">
        <ele>758</ele>
        <time>2020-07-04T21:02:24Z</time>
      </trkpt>
      <trkpt lat="43.7951" lon="6.38642">
        <ele>758</ele>
        <time>2020-07-04T21:02:25Z</time>
      </trkpt>
      <trkpt lat="43.79517" lon="6.38645">
        <ele>758</ele>
        <time>2020-07-04T21:02:27Z</time>
      </trkpt>
      <trkpt lat="43.79525" lon="6.38651">
        <ele>759</ele>
        <time>2020-07-04T21:02:28Z</time>
      </trkpt>
      <trkpt lat="43.79545" lon="6.38679">
        <ele>761</ele>
        <time>2020-07-04T21:02:33Z</time>
      </trkpt>
      <trkpt lat="43.79555" lon="6.38683">
        <ele>761</ele>
        <time>2020-07-04T21:02:35Z</time>
      </trkpt>
      <trkpt lat="43.79569" lon="6.38679">
        <ele>761</ele>
        <time>2020-07-04T21:02:38Z</time>
      </trkpt>
      <trkpt lat="43.79602" lon="6.38659">
        <ele>761</ele>
        <time>2020-07-04T21:02:44Z</time>
      </trkpt>
      <trkpt lat="43.79608" lon="6.38653">
        <ele>761</ele>
        <time>2020-07-04T21:02:45Z</time>
      </trkpt>
      <trkpt lat="43.79615" lon="6.38636">
        <ele>761</ele>
        <time>2020-07-04T21:02:48Z</time>
      </trkpt>
      <trkpt lat="43.79616" lon="6.38617">
        <ele>760</ele>
        <time>2020-07-04T21:02:50Z</time>
      </trkpt>
      <trkpt lat="43.79614" lon="6.3857">
        <ele>755</ele>
        <time>2020-07-04T21:02:56Z</time>
      </trkpt>
      <trkpt lat="43.79618" lon="6.38553">
        <ele>754</ele>
        <time>2020-07-04T21:02:59Z</time>
      </trkpt>
      <trkpt lat="43.79622" lon="6.38547">
        <ele>754</ele>
        <time>2020-07-04T21:03:00Z</time>
      </trkpt>
      <trkpt lat="43.79645" lon="6.38524">
        <ele>756</ele>
        <time>2020-07-04T21:03:05Z</time>
      </trkpt>
      <trkpt lat="43.79656" lon="6.38508">
        <ele>755</ele>
        <time>2020-07-04T21:03:08Z</time>
      </trkpt>
      <trkpt lat="43.79661" lon="6.38499">
        <ele>755</ele>
        <time>2020-07-04T21:03:09Z</time>
      </trkpt>
      <trkpt lat="43.79669" lon="6.38452">
        <ele>756</ele>
        <time>2020-07-04T21:03:15Z</time>
      </trkpt>
      <trkpt lat="43.79669" lon="6.38433">
        <ele>756</ele>
        <time>2020-07-04T21:03:18Z</time>
      </trkpt>
      <trkpt lat="43.79663" lon="6.38425">
        <ele>754</ele>
        <time>2020-07-04T21:03:19Z</time>
      </trkpt>
      <trkpt lat="43.79618" lon="6.38396">
        <ele>748</ele>
        <time>2020-07-04T21:03:28Z</time>
      </trkpt>
      <trkpt lat="43.79608" lon="6.38387">
        <ele>746</ele>
        <time>2020-07-04T21:03:30Z</time>
      </trkpt>
      <trkpt lat="43.79599" lon="6.38375">
        <ele>745</ele>
        <time>2020-07-04T21:03:32Z</time>
      </trkpt>
      <trkpt lat="43.79597" lon="6.38362">
        <ele>745</ele>
        <time>2020-07-04T21:03:34Z</time>
      </trkpt>
      <trkpt lat="43.796" lon="6.38343">
        <ele>746</ele>
        <time>2020-07-04T21:03:37Z</time>
      </trkpt>
      <trkpt lat="43.79604" lon="6.3833">
        <ele>748</ele>
        <time>2020-07-04T21:03:38Z</time>
      </trkpt>
      <trkpt lat="43.79621" lon="6.38302">
        <ele>751</ele>
        <time>2020-07-04T21:03:43Z</time>
      </trkpt>
      <trkpt lat="43.79623" lon="6.38296">
        <ele>751</ele>
        <time>2020-07-04T21:03:44Z</time>
      </trkpt>
      <trkpt lat="43.79623" lon="6.38282">
        <ele>752</ele>
        <time>2020-07-04T21:03:46Z</time>
      </trkpt>
      <trkpt lat="43.7962" lon="6.38272">
        <ele>751</ele>
        <time>2020-07-04T21:03:47Z</time>
      </trkpt>
      <trkpt lat="43.79594" lon="6.38246">
        <ele>747</ele>
        <time>2020-07-04T21:03:53Z</time>
      </trkpt>
      <trkpt lat="43.7959" lon="6.38245">
        <ele>746</ele>
        <time>2020-07-04T21:03:54Z</time>
      </trkpt>
      <trkpt lat="43.79578" lon="6.38248">
        <ele>744</ele>
        <time>2020-07-04T21:03:56Z</time>
      </trkpt>
      <trkpt lat="43.79569" lon="6.38256">
        <ele>743</ele>
        <time>2020-07-04T21:03:58Z</time>
      </trkpt>
      <trkpt lat="43.795" lon="6.38329">
        <ele>737</ele>
        <time>2020-07-04T21:04:13Z</time>
      </trkpt>
      <trkpt lat="43.79456" lon="6.38378">
        <ele>734</ele>
        <time>2020-07-04T21:04:23Z</time>
      </trkpt>
      <trkpt lat="43.7945" lon="6.38383">
        <ele>734</ele>
        <time>2020-07-04T21:04:24Z</time>
      </trkpt>
      <trkpt lat="43.79445" lon="6.38385">
        <ele>733</ele>
        <time>2020-07-04T21:04:25Z</time>
      </trkpt>
      <trkpt lat="43.79387" lon="6.38384">
        <ele>731</ele>
        <time>2020-07-04T21:04:36Z</time>
      </trkpt>
      <trkpt lat="43.79327" lon="6.38379">
        <ele>730</ele>
        <time>2020-07-04T21:04:46Z</time>
      </trkpt>
      <trkpt lat="43.79314" lon="6.38379">
        <ele>730</ele>
        <time>2020-07-04T21:04:49Z</time>
      </trkpt>
      <trkpt lat="43.79288" lon="6.38383">
        <ele>730</ele>
        <time>2020-07-04T21:04:53Z</time>
      </trkpt>
      <trkpt lat="43.79229" lon="6.38407">
        <ele>722</ele>
        <time>2020-07-04T21:05:04Z</time>
      </trkpt>
      <trkpt lat="43.79221" lon="6.38406">
        <ele>720</ele>
        <time>2020-07-04T21:05:06Z</time>
      </trkpt>
      <trkpt lat="43.7921" lon="6.38401">
        <ele>718</ele>
        <time>2020-07-04T21:05:08Z</time>
      </trkpt>
      <trkpt lat="43.79203" lon="6.38394">
        <ele>718</ele>
        <time>2020-07-04T21:05:09Z</time>
      </trkpt>
      <trkpt lat="43.79185" lon="6.38367">
        <ele>717</ele>
        <time>2020-07-04T21:05:14Z</time>
      </trkpt>
      <trkpt lat="43.7918" lon="6.38356">
        <ele>717</ele>
        <time>2020-07-04T21:05:16Z</time>
      </trkpt>
      <trkpt lat="43.79175" lon="6.38334">
        <ele>718</ele>
        <time>2020-07-04T21:05:19Z</time>
      </trkpt>
      <trkpt lat="43.79174" lon="6.38298">
        <ele>715</ele>
        <time>2020-07-04T21:05:23Z</time>
      </trkpt>
      <trkpt lat="43.79176" lon="6.38282">
        <ele>715</ele>
        <time>2020-07-04T21:05:25Z</time>
      </trkpt>
      <trkpt lat="43.79182" lon="6.38255">
        <ele>715</ele>
        <time>2020-07-04T21:05:29Z</time>
      </trkpt>
      <trkpt lat="43.79185" lon="6.38247">
        <ele>715</ele>
        <time>2020-07-04T21:05:30Z</time>
      </trkpt>
      <trkpt lat="43.79205" lon="6.38216">
        <ele>715</ele>
        <time>2020-07-04T21:05:36Z</time>
      </trkpt>
      <trkpt lat="43.79222" lon="6.38187">
        <ele>715</ele>
        <time>2020-07-04T21:05:40Z</time>
      </trkpt>
      <trkpt lat="43.7924" lon="6.38153">
        <ele>714</ele>
        <time>2020-07-04T21:05:46Z</time>
      </trkpt>
      <trkpt lat="43.79252" lon="6.38124">
        <ele>712</ele>
        <time>2020-07-04T21:05:50Z</time>
      </trkpt>
      <trkpt lat="43.79256" lon="6.38104">
        <ele>709</ele>
        <time>2020-07-04T21:05:53Z</time>
      </trkpt>
      <trkpt lat="43.79256" lon="6.38047">
        <ele>703</ele>
        <time>2020-07-04T21:06:00Z</time>
      </trkpt>
      <trkpt lat="43.79259" lon="6.38028">
        <ele>702</ele>
        <time>2020-07-04T21:06:03Z</time>
      </trkpt>
      <trkpt lat="43.79269" lon="6.37994">
        <ele>701</ele>
        <time>2020-07-04T21:06:07Z</time>
      </trkpt>
      <trkpt lat="43.79269" lon="6.37987">
        <ele>700</ele>
        <time>2020-07-04T21:06:08Z</time>
      </trkpt>
      <trkpt lat="43.79267" lon="6.37973">
        <ele>700</ele>
        <time>2020-07-04T21:06:10Z</time>
      </trkpt>
      <trkpt lat="43.79216" lon="6.37819">
        <ele>695</ele>
        <time>2020-07-04T21:06:32Z</time>
      </trkpt>
      <trkpt lat="43.79207" lon="6.37791">
        <ele>696</ele>
        <time>2020-07-04T21:06:36Z</time>
      </trkpt>
      <trkpt lat="43.79201" lon="6.37776">
        <ele>696</ele>
        <time>2020-07-04T21:06:38Z</time>
      </trkpt>
      <trkpt lat="43.79189" lon="6.37761">
        <ele>697</ele>
        <time>2020-07-04T21:06:41Z</time>
      </trkpt>
      <trkpt lat="43.79177" lon="6.37756">
        <ele>697</ele>
        <time>2020-07-04T21:06:43Z</time>
      </trkpt>
      <trkpt lat="43.79159" lon="6.37758">
        <ele>699</ele>
        <time>2020-07-04T21:06:46Z</time>
      </trkpt>
      <trkpt lat="43.79148" lon="6.37761">
        <ele>703</ele>
        <time>2020-07-04T21:06:48Z</time>
      </trkpt>
      <trkpt lat="43.79136" lon="6.37769">
        <ele>706</ele>
        <time>2020-07-04T21:06:51Z</time>
      </trkpt>
      <trkpt lat="43.79127" lon="6.37778">
        <ele>708</ele>
        <time>2020-07-04T21:06:53Z</time>
      </trkpt>
      <trkpt lat="43.79108" lon="6.37816">
        <ele>708</ele>
        <time>2020-07-04T21:06:58Z</time>
      </trkpt>
      <trkpt lat="43.791" lon="6.37825">
        <ele>709</ele>
        <time>2020-07-04T21:07:00Z</time>
      </trkpt>
      <trkpt lat="43.79057" lon="6.37855">
        <ele>716</ele>
        <time>2020-07-04T21:07:09Z</time>
      </trkpt>
      <trkpt lat="43.79029" lon="6.37886">
        <ele>718</ele>
        <time>2020-07-04T21:07:15Z</time>
      </trkpt>
      <trkpt lat="43.78999" lon="6.37908">
        <ele>721</ele>
        <time>2020-07-04T21:07:21Z</time>
      </trkpt>
      <trkpt lat="43.78991" lon="6.37917">
        <ele>722</ele>
        <time>2020-07-04T21:07:23Z</time>
      </trkpt>
      <trkpt lat="43.78985" lon="6.37928">
        <ele>722</ele>
        <time>2020-07-04T21:07:25Z</time>
      </trkpt>
      <trkpt lat="43.78975" lon="6.37964">
        <ele>721</ele>
        <time>2020-07-04T21:07:30Z</time>
      </trkpt>
      <trkpt lat="43.7897" lon="6.37975">
        <ele>721</ele>
        <time>2020-07-04T21:07:31Z</time>
      </trkpt>
      <trkpt lat="43.78948" lon="6.38002">
        <ele>725</ele>
        <time>2020-07-04T21:07:37Z</time>
      </trkpt>
      <trkpt lat="43.78905" lon="6.3808">
        <ele>725</ele>
        <time>2020-07-04T21:07:49Z</time>
      </trkpt>
      <trkpt lat="43.78888" lon="6.38101">
        <ele>723</ele>
        <time>2020-07-04T21:07:53Z</time>
      </trkpt>
      <trkpt lat="43.78879" lon="6.38107">
        <ele>722</ele>
        <time>2020-07-04T21:07:55Z</time>
      </trkpt>
      <trkpt lat="43.78868" lon="6.38109">
        <ele>724</ele>
        <time>2020-07-04T21:07:57Z</time>
      </trkpt>
      <trkpt lat="43.78846" lon="6.38107">
        <ele>728</ele>
        <time>2020-07-04T21:08:01Z</time>
      </trkpt>
      <trkpt lat="43.78823" lon="6.38096">
        <ele>733</ele>
        <time>2020-07-04T21:08:05Z</time>
      </trkpt>
      <trkpt lat="43.78785" lon="6.38062">
        <ele>743</ele>
        <time>2020-07-04T21:08:13Z</time>
      </trkpt>
      <trkpt lat="43.78768" lon="6.38055">
        <ele>746</ele>
        <time>2020-07-04T21:08:17Z</time>
      </trkpt>
      <trkpt lat="43.7876" lon="6.38054">
        <ele>746</ele>
        <time>2020-07-04T21:08:18Z</time>
      </trkpt>
      <trkpt lat="43.78745" lon="6.38064">
        <ele>743</ele>
        <time>2020-07-04T21:08:21Z</time>
      </trkpt>
      <trkpt lat="43.78736" lon="6.38073">
        <ele>742</ele>
        <time>2020-07-04T21:08:23Z</time>
      </trkpt>
      <trkpt lat="43.78723" lon="6.38092">
        <ele>740</ele>
        <time>2020-07-04T21:08:26Z</time>
      </trkpt>
      <trkpt lat="43.78716" lon="6.38099">
        <ele>741</ele>
        <time>2020-07-04T21:08:28Z</time>
      </trkpt>
      <trkpt lat="43.78707" lon="6.38102">
        <ele>742</ele>
        <time>2020-07-04T21:08:30Z</time>
      </trkpt>
      <trkpt lat="43.78699" lon="6.381">
        <ele>744</ele>
        <time>2020-07-04T21:08:31Z</time>
      </trkpt>
      <trkpt lat="43.78692" lon="6.38093">
        <ele>747</ele>
        <time>2020-07-04T21:08:32Z</time>
      </trkpt>
      <trkpt lat="43.78688" lon="6.38083">
        <ele>748</ele>
        <time>2020-07-04T21:08:34Z</time>
      </trkpt>
      <trkpt lat="43.78688" lon="6.38073">
        <ele>751</ele>
        <time>2020-07-04T21:08:35Z</time>
      </trkpt>
      <trkpt lat="43.78692" lon="6.38062">
        <ele>754</ele>
        <time>2020-07-04T21:08:37Z</time>
      </trkpt>
      <trkpt lat="43.78698" lon="6.38055">
        <ele>755</ele>
        <time>2020-07-04T21:08:38Z</time>
      </trkpt>
      <trkpt lat="43.78716" lon="6.38045">
        <ele>755</ele>
        <time>2020-07-04T21:08:42Z</time>
      </trkpt>
      <trkpt lat="43.78752" lon="6.38033">
        <ele>754</ele>
        <time>2020-07-04T21:08:48Z</time>
      </trkpt>
      <trkpt lat="43.78763" lon="6.38031">
        <ele>755</ele>
        <time>2020-07-04T21:08:50Z</time>
      </trkpt>
      <trkpt lat="43.78785" lon="6.38031">
        <ele>754</ele>
        <time>2020-07-04T21:08:54Z</time>
      </trkpt>
      <trkpt lat="43.78799" lon="6.38038">
        <ele>751</ele>
        <time>2020-07-04T21:08:57Z</time>
      </trkpt>
      <trkpt lat="43.7882" lon="6.38053">
        <ele>746</ele>
        <time>2020-07-04T21:09:01Z</time>
      </trkpt>
      <trkpt lat="43.78825" lon="6.38054">
        <ele>746</ele>
        <time>2020-07-04T21:09:02Z</time>
      </trkpt>
      <trkpt lat="43.78836" lon="6.38045">
        <ele>748</ele>
        <time>2020-07-04T21:09:04Z</time>
      </trkpt>
      <trkpt lat="43.78848" lon="6.38014">
        <ele>753</ele>
        <time>2020-07-04T21:09:09Z</time>
      </trkpt>
      <trkpt lat="43.78867" lon="6.37981">
        <ele>755</ele>
        <time>2020-07-04T21:09:14Z</time>
      </trkpt>
      <trkpt lat="43.78872" lon="6.37969">
        <ele>756</ele>
        <time>2020-07-04T21:09:16Z</time>
      </trkpt>
      <trkpt lat="43.78875" lon="6.37954">
        <ele>758</ele>
        <time>2020-07-04T21:09:18Z</time>
      </trkpt>
      <trkpt lat="43.78879" lon="6.37901">
        <ele>767</ele>
        <time>2020-07-04T21:09:25Z</time>
      </trkpt>
      <trkpt lat="43.78884" lon="6.37881">
        <ele>769</ele>
        <time>2020-07-04T21:09:27Z</time>
      </trkpt>
      <trkpt lat="43.78898" lon="6.37846">
        <ele>771</ele>
        <time>2020-07-04T21:09:33Z</time>
      </trkpt>
      <trkpt lat="43.78916" lon="6.37816">
        <ele>770</ele>
        <time>2020-07-04T21:09:38Z</time>
      </trkpt>
      <trkpt lat="43.78936" lon="6.37789">
        <ele>773</ele>
        <time>2020-07-04T21:09:43Z</time>
      </trkpt>
      <trkpt lat="43.78946" lon="6.37779">
        <ele>773</ele>
        <time>2020-07-04T21:09:45Z</time>
      </trkpt>
      <trkpt lat="43.78977" lon="6.37754">
        <ele>769</ele>
        <time>2020-07-04T21:09:51Z</time>
      </trkpt>
      <trkpt lat="43.78984" lon="6.37746">
        <ele>768</ele>
        <time>2020-07-04T21:09:53Z</time>
      </trkpt>
      <trkpt lat="43.78988" lon="6.37737">
        <ele>766</ele>
        <time>2020-07-04T21:09:54Z</time>
      </trkpt>
      <trkpt lat="43.78989" lon="6.37726">
        <ele>766</ele>
        <time>2020-07-04T21:09:56Z</time>
      </trkpt>
      <trkpt lat="43.78987" lon="6.37715">
        <ele>767</ele>
        <time>2020-07-04T21:09:57Z</time>
      </trkpt>
      <trkpt lat="43.78983" lon="6.37702">
        <ele>768</ele>
        <time>2020-07-04T21:09:59Z</time>
      </trkpt>
      <trkpt lat="43.78967" lon="6.37675">
        <ele>773</ele>
        <time>2020-07-04T21:10:03Z</time>
      </trkpt>
      <trkpt lat="43.78945" lon="6.3765">
        <ele>775</ele>
        <time>2020-07-04T21:10:08Z</time>
      </trkpt>
      <trkpt lat="43.78933" lon="6.37639">
        <ele>776</ele>
        <time>2020-07-04T21:10:11Z</time>
      </trkpt>
      <trkpt lat="43.7889" lon="6.37611">
        <ele>782</ele>
        <time>2020-07-04T21:10:19Z</time>
      </trkpt>
      <trkpt lat="43.78851" lon="6.37578">
        <ele>786</ele>
        <time>2020-07-04T21:10:28Z</time>
      </trkpt>
      <trkpt lat="43.78812" lon="6.37552">
        <ele>792</ele>
        <time>2020-07-04T21:10:35Z</time>
      </trkpt>
      <trkpt lat="43.78801" lon="6.3754">
        <ele>792</ele>
        <time>2020-07-04T21:10:38Z</time>
      </trkpt>
      <trkpt lat="43.78776" lon="6.37503">
        <ele>790</ele>
        <time>2020-07-04T21:10:44Z</time>
      </trkpt>
      <trkpt lat="43.78769" lon="6.37495">
        <ele>790</ele>
        <time>2020-07-04T21:10:46Z</time>
      </trkpt>
      <trkpt lat="43.78751" lon="6.37483">
        <ele>792</ele>
        <time>2020-07-04T21:10:49Z</time>
      </trkpt>
      <trkpt lat="43.78729" lon="6.37475">
        <ele>801</ele>
        <time>2020-07-04T21:10:53Z</time>
      </trkpt>
      <trkpt lat="43.78717" lon="6.37467">
        <ele>804</ele>
        <time>2020-07-04T21:10:56Z</time>
      </trkpt>
      <trkpt lat="43.7871" lon="6.3746">
        <ele>806</ele>
        <time>2020-07-04T21:10:57Z</time>
      </trkpt>
      <trkpt lat="43.78698" lon="6.3744">
        <ele>808</ele>
        <time>2020-07-04T21:11:01Z</time>
      </trkpt>
      <trkpt lat="43.78688" lon="6.37418">
        <ele>808</ele>
        <time>2020-07-04T21:11:04Z</time>
      </trkpt>
      <trkpt lat="43.78669" lon="6.37363">
        <ele>808</ele>
        <time>2020-07-04T21:11:12Z</time>
      </trkpt>
      <trkpt lat="43.78662" lon="6.37307">
        <ele>800</ele>
        <time>2020-07-04T21:11:19Z</time>
      </trkpt>
      <trkpt lat="43.7866" lon="6.37299">
        <ele>799</ele>
        <time>2020-07-04T21:11:20Z</time>
      </trkpt>
      <trkpt lat="43.78653" lon="6.37288">
        <ele>800</ele>
        <time>2020-07-04T21:11:22Z</time>
      </trkpt>
      <trkpt lat="43.78627" lon="6.37254">
        <ele>804</ele>
        <time>2020-07-04T21:11:28Z</time>
      </trkpt>
      <trkpt lat="43.78621" lon="6.37242">
        <ele>805</ele>
        <time>2020-07-04T21:11:30Z</time>
      </trkpt>
      <trkpt lat="43.78617" lon="6.3723">
        <ele>805</ele>
        <time>2020-07-04T21:11:32Z</time>
      </trkpt>
      <trkpt lat="43.78609" lon="6.37172">
        <ele>799</ele>
        <time>2020-07-04T21:11:40Z</time>
      </trkpt>
      <trkpt lat="43.78606" lon="6.37165">
        <ele>800</ele>
        <time>2020-07-04T21:11:41Z</time>
      </trkpt>
      <trkpt lat="43.78601" lon="6.37158">
        <ele>801</ele>
        <time>2020-07-04T21:11:42Z</time>
      </trkpt>
      <trkpt lat="43.78596" lon="6.37153">
        <ele>802</ele>
        <time>2020-07-04T21:11:43Z</time>
      </trkpt>
      <trkpt lat="43.7859" lon="6.37152">
        <ele>804</ele>
        <time>2020-07-04T21:11:44Z</time>
      </trkpt>
      <trkpt lat="43.78578" lon="6.37155">
        <ele>807</ele>
        <time>2020-07-04T21:11:46Z</time>
      </trkpt>
      <trkpt lat="43.78568" lon="6.37163">
        <ele>810</ele>
        <time>2020-07-04T21:11:48Z</time>
      </trkpt>
      <trkpt lat="43.78562" lon="6.37165">
        <ele>811</ele>
        <time>2020-07-04T21:11:49Z</time>
      </trkpt>
      <trkpt lat="43.78551" lon="6.37164">
        <ele>814</ele>
        <time>2020-07-04T21:11:51Z</time>
      </trkpt>
      <trkpt lat="43.78545" lon="6.37161">
        <ele>815</ele>
        <time>2020-07-04T21:11:53Z</time>
      </trkpt>
      <trkpt lat="43.78507" lon="6.37123">
        <ele>818</ele>
        <time>2020-07-04T21:12:01Z</time>
      </trkpt>
      <trkpt lat="43.78479" lon="6.37088">
        <ele>823</ele>
        <time>2020-07-04T21:12:08Z</time>
      </trkpt>
      <trkpt lat="43.78469" lon="6.37067">
        <ele>825</ele>
        <time>2020-07-04T21:12:11Z</time>
      </trkpt>
      <trkpt lat="43.7846" lon="6.3705">
        <ele>827</ele>
        <time>2020-07-04T21:12:14Z</time>
      </trkpt>
      <trkpt lat="43.78451" lon="6.37035">
        <ele>829</ele>
        <time>2020-07-04T21:12:16Z</time>
      </trkpt>
      <trkpt lat="43.7844" lon="6.37015">
        <ele>831</ele>
        <time>2020-07-04T21:12:19Z</time>
      </trkpt>
      <trkpt lat="43.78432" lon="6.36993">
        <ele>832</ele>
        <time>2020-07-04T21:12:22Z</time>
      </trkpt>
      <trkpt lat="43.78425" lon="6.36973">
        <ele>832</ele>
        <time>2020-07-04T21:12:25Z</time>
      </trkpt>
      <trkpt lat="43.78396" lon="6.36893">
        <ele>834</ele>
        <time>2020-07-04T21:12:37Z</time>
      </trkpt>
      <trkpt lat="43.78386" lon="6.36863">
        <ele>835</ele>
        <time>2020-07-04T21:12:41Z</time>
      </trkpt>
      <trkpt lat="43.78359" lon="6.36806">
        <ele>840</ele>
        <time>2020-07-04T21:12:50Z</time>
      </trkpt>
      <trkpt lat="43.78338" lon="6.36738">
        <ele>841</ele>
        <time>2020-07-04T21:12:59Z</time>
      </trkpt>
      <trkpt lat="43.78308" lon="6.36675">
        <ele>846</ele>
        <time>2020-07-04T21:13:09Z</time>
      </trkpt>
      <trkpt lat="43.78283" lon="6.3661">
        <ele>852</ele>
        <time>2020-07-04T21:13:18Z</time>
      </trkpt>
      <trkpt lat="43.78227" lon="6.36437">
        <ele>857</ele>
        <time>2020-07-04T21:13:43Z</time>
      </trkpt>
      <trkpt lat="43.78221" lon="6.36408">
        <ele>858</ele>
        <time>2020-07-04T21:13:47Z</time>
      </trkpt>
      <trkpt lat="43.78214" lon="6.36298">
        <ele>860</ele>
        <time>2020-07-04T21:14:01Z</time>
      </trkpt>
      <trkpt lat="43.78207" lon="6.36232">
        <ele>861</ele>
        <time>2020-07-04T21:14:09Z</time>
      </trkpt>
      <trkpt lat="43.78192" lon="6.36178">
        <ele>865</ele>
        <time>2020-07-04T21:14:17Z</time>
      </trkpt>
      <trkpt lat="43.78113" lon="6.35925">
        <ele>877</ele>
        <time>2020-07-04T21:14:52Z</time>
      </trkpt>
      <trkpt lat="43.78075" lon="6.35772">
        <ele>876</ele>
        <time>2020-07-04T21:15:13Z</time>
      </trkpt>
      <trkpt lat="43.78073" lon="6.35767">
        <ele>876</ele>
        <time>2020-07-04T21:15:14Z</time>
      </trkpt>
      <trkpt lat="43.78044" lon="6.35648">
        <ele>882</ele>
        <time>2020-07-04T21:15:30Z</time>
      </trkpt>
      <trkpt lat="43.78037" lon="6.35623">
        <ele>882</ele>
        <time>2020-07-04T21:15:33Z</time>
      </trkpt>
      <trkpt lat="43.78017" lon="6.35542">
        <ele>884</ele>
        <time>2020-07-04T21:15:44Z</time>
      </trkpt>
      <trkpt lat="43.78015" lon="6.35529">
        <ele>885</ele>
        <time>2020-07-04T21:15:46Z</time>
      </trkpt>
      <trkpt lat="43.77985" lon="6.35534">
        <ele>884</ele>
        <time>2020-07-04T21:15:51Z</time>
      </trkpt>
      <trkpt lat="43.77975" lon="6.35599">
        <ele>884</ele>
        <time>2020-07-04T21:16:00Z</time>
      </trkpt>
      <trkpt lat="43.77972" lon="6.3562">
        <ele>883</ele>
        <time>2020-07-04T21:16:03Z</time>
      </trkpt>
      <trkpt lat="43.77963" lon="6.35677">
        <ele>882</ele>
        <time>2020-07-04T21:16:10Z</time>
      </trkpt>
      <trkpt lat="43.77953" lon="6.3574">
        <ele>880</ele>
        <time>2020-07-04T21:16:19Z</time>
      </trkpt>
      <trkpt lat="43.77952" lon="6.35754">
        <ele>880</ele>
        <time>2020-07-04T21:16:20Z</time>
      </trkpt>
      <trkpt lat="43.77951" lon="6.35857">
        <ele>884</ele>
        <time>2020-07-04T21:16:34Z</time>
      </trkpt>
      <trkpt lat="43.77941" lon="6.35938">
        <ele>884</ele>
        <time>2020-07-04T21:16:44Z</time>
      </trkpt>
      <trkpt lat="43.77939" lon="6.35962">
        <ele>884</ele>
        <time>2020-07-04T21:16:47Z</time>
      </trkpt>
      <trkpt lat="43.77939" lon="6.36004">
        <ele>885</ele>
        <time>2020-07-04T21:16:53Z</time>
      </trkpt>
      <trkpt lat="43.77942" lon="6.36278">
        <ele>877</ele>
        <time>2020-07-04T21:17:28Z</time>
      </trkpt>
      <trkpt lat="43.77943" lon="6.36343">
        <ele>876</ele>
        <time>2020-07-04T21:17:36Z</time>
      </trkpt>
      <trkpt lat="43.77941" lon="6.36368">
        <ele>876</ele>
        <time>2020-07-04T21:17:39Z</time>
      </trkpt>
      <trkpt lat="43.77938" lon="6.3638">
        <ele>876</ele>
        <time>2020-07-04T21:17:41Z</time>
      </trkpt>
      <trkpt lat="43.77934" lon="6.36393">
        <ele>876</ele>
        <time>2020-07-04T21:17:43Z</time>
      </trkpt>
      <trkpt lat="43.77905" lon="6.36451">
        <ele>874</ele>
        <time>2020-07-04T21:17:52Z</time>
      </trkpt>
      <trkpt lat="43.77842" lon="6.36578">
        <ele>870</ele>
        <time>2020-07-04T21:18:12Z</time>
      </trkpt>
      <trkpt lat="43.77839" lon="6.36584">
        <ele>870</ele>
        <time>2020-07-04T21:18:13Z</time>
      </trkpt>
      <trkpt lat="43.77828" lon="6.36605">
        <ele>869</ele>
        <time>2020-07-04T21:18:16Z</time>
      </trkpt>
      <trkpt lat="43.77806" lon="6.36648">
        <ele>869</ele>
        <time>2020-07-04T21:18:23Z</time>
      </trkpt>
      <trkpt lat="43.77782" lon="6.367">
        <ele>871</ele>
        <time>2020-07-04T21:18:31Z</time>
      </trkpt>
      <trkpt lat="43.77775" lon="6.36719">
        <ele>872</ele>
        <time>2020-07-04T21:18:33Z</time>
      </trkpt>
      <trkpt lat="43.77771" lon="6.36738">
        <ele>872</ele>
        <time>2020-07-04T21:18:36Z</time>
      </trkpt>
      <trkpt lat="43.77769" lon="6.36758">
        <ele>873</ele>
        <time>2020-07-04T21:18:39Z</time>
      </trkpt>
      <trkpt lat="43.7777" lon="6.36777">
        <ele>874</ele>
        <time>2020-07-04T21:18:41Z</time>
      </trkpt>
      <trkpt lat="43.77773" lon="6.36798">
        <ele>875</ele>
        <time>2020-07-04T21:18:44Z</time>
      </trkpt>
      <trkpt lat="43.77785" lon="6.36838">
        <ele>876</ele>
        <time>2020-07-04T21:18:49Z</time>
      </trkpt>
      <trkpt lat="43.77808" lon="6.369">
        <ele>874</ele>
        <time>2020-07-04T21:18:58Z</time>
      </trkpt>
      <trkpt lat="43.77848" lon="6.37023">
        <ele>873</ele>
        <time>2020-07-04T21:19:16Z</time>
      </trkpt>
      <trkpt lat="43.7786" lon="6.37065">
        <ele>873</ele>
        <time>2020-07-04T21:19:21Z</time>
      </trkpt>
      <trkpt lat="43.77874" lon="6.37128">
        <ele>871</ele>
        <time>2020-07-04T21:19:30Z</time>
      </trkpt>
      <trkpt lat="43.77877" lon="6.37148">
        <ele>871</ele>
        <time>2020-07-04T21:19:32Z</time>
      </trkpt>
      <trkpt lat="43.7788" lon="6.37189">
        <ele>871</ele>
        <time>2020-07-04T21:19:38Z</time>
      </trkpt>
      <trkpt lat="43.77877" lon="6.37328">
        <ele>879</ele>
        <time>2020-07-04T21:19:56Z</time>
      </trkpt>
      <trkpt lat="43.77881" lon="6.37373">
        <ele>880</ele>
        <time>2020-07-04T21:20:01Z</time>
      </trkpt>
      <trkpt lat="43.77887" lon="6.37395">
        <ele>879</ele>
        <time>2020-07-04T21:20:05Z</time>
      </trkpt>
      <trkpt lat="43.77911" lon="6.37461">
        <ele>877</ele>
        <time>2020-07-04T21:20:14Z</time>
      </trkpt>
      <trkpt lat="43.78015" lon="6.37714">
        <ele>868</ele>
        <time>2020-07-04T21:20:51Z</time>
      </trkpt>
      <trkpt lat="43.78022" lon="6.37733">
        <ele>868</ele>
        <time>2020-07-04T21:20:54Z</time>
      </trkpt>
      <trkpt lat="43.78024" lon="6.37738">
        <ele>867</ele>
        <time>2020-07-04T21:20:55Z</time>
      </trkpt>
      <trkpt lat="43.78039" lon="6.37786">
        <ele>867</ele>
        <time>2020-07-04T21:21:02Z</time>
      </trkpt>
      <trkpt lat="43.78044" lon="6.37811">
        <ele>866</ele>
        <time>2020-07-04T21:21:05Z</time>
      </trkpt>
      <trkpt lat="43.78055" lon="6.37888">
        <ele>866</ele>
        <time>2020-07-04T21:21:15Z</time>
      </trkpt>
      <trkpt lat="43.78062" lon="6.38105">
        <ele>869</ele>
        <time>2020-07-04T21:21:43Z</time>
      </trkpt>
      <trkpt lat="43.7806" lon="6.38152">
        <ele>871</ele>
        <time>2020-07-04T21:21:49Z</time>
      </trkpt>
      <trkpt lat="43.78057" lon="6.38215">
        <ele>875</ele>
        <time>2020-07-04T21:21:57Z</time>
      </trkpt>
      <trkpt lat="43.78059" lon="6.38291">
        <ele>877</ele>
        <time>2020-07-04T21:22:07Z</time>
      </trkpt>
      <trkpt lat="43.78054" lon="6.38411">
        <ele>884</ele>
        <time>2020-07-04T21:22:22Z</time>
      </trkpt>
      <trkpt lat="43.78054" lon="6.38431">
        <ele>885</ele>
        <time>2020-07-04T21:22:25Z</time>
      </trkpt>
      <trkpt lat="43.7806" lon="6.38509">
        <ele>888</ele>
        <time>2020-07-04T21:22:35Z</time>
      </trkpt>
      <trkpt lat="43.78059" lon="6.38521">
        <ele>889</ele>
        <time>2020-07-04T21:22:36Z</time>
      </trkpt>
      <trkpt lat="43.78053" lon="6.38553">
        <ele>892</ele>
        <time>2020-07-04T21:22:41Z</time>
      </trkpt>
      <trkpt lat="43.78034" lon="6.38614">
        <ele>900</ele>
        <time>2020-07-04T21:22:49Z</time>
      </trkpt>
      <trkpt lat="43.78033" lon="6.38628">
        <ele>901</ele>
        <time>2020-07-04T21:22:51Z</time>
      </trkpt>
      <trkpt lat="43.78035" lon="6.38728">
        <ele>906</ele>
        <time>2020-07-04T21:23:04Z</time>
      </trkpt>
      <trkpt lat="43.78037" lon="6.38763">
        <ele>908</ele>
        <time>2020-07-04T21:23:08Z</time>
      </trkpt>
      <trkpt lat="43.7804" lon="6.38782">
        <ele>909</ele>
        <time>2020-07-04T21:23:11Z</time>
      </trkpt>
      <trkpt lat="43.78051" lon="6.38835">
        <ele>911</ele>
        <time>2020-07-04T21:23:18Z</time>
      </trkpt>
      <trkpt lat="43.78084" lon="6.38964">
        <ele>918</ele>
        <time>2020-07-04T21:23:36Z</time>
      </trkpt>
      <trkpt lat="43.78104" lon="6.39025">
        <ele>917</ele>
        <time>2020-07-04T21:23:44Z</time>
      </trkpt>
      <trkpt lat="43.78105" lon="6.39035">
        <ele>916</ele>
        <time>2020-07-04T21:23:45Z</time>
      </trkpt>
      <trkpt lat="43.78102" lon="6.39046">
        <ele>917</ele>
        <time>2020-07-04T21:23:47Z</time>
      </trkpt>
      <trkpt lat="43.78095" lon="6.3905">
        <ele>918</ele>
        <time>2020-07-04T21:23:48Z</time>
      </trkpt>
      <trkpt lat="43.78089" lon="6.39046">
        <ele>919</ele>
        <time>2020-07-04T21:23:50Z</time>
      </trkpt>
      <trkpt lat="43.78083" lon="6.39039">
        <ele>921</ele>
        <time>2020-07-04T21:23:51Z</time>
      </trkpt>
      <trkpt lat="43.78075" lon="6.39008">
        <ele>923</ele>
        <time>2020-07-04T21:23:55Z</time>
      </trkpt>
      <trkpt lat="43.78066" lon="6.38989">
        <ele>924</ele>
        <time>2020-07-04T21:23:58Z</time>
      </trkpt>
      <trkpt lat="43.78033" lon="6.38942">
        <ele>927</ele>
        <time>2020-07-04T21:24:07Z</time>
      </trkpt>
      <trkpt lat="43.78016" lon="6.38903">
        <ele>928</ele>
        <time>2020-07-04T21:24:12Z</time>
      </trkpt>
      <trkpt lat="43.78011" lon="6.38896">
        <ele>929</ele>
        <time>2020-07-04T21:24:14Z</time>
      </trkpt>
      <trkpt lat="43.78006" lon="6.38895">
        <ele>930</ele>
        <time>2020-07-04T21:24:15Z</time>
      </trkpt>
      <trkpt lat="43.77999" lon="6.38897">
        <ele>932</ele>
        <time>2020-07-04T21:24:16Z</time>
      </trkpt>
      <trkpt lat="43.77995" lon="6.38902">
        <ele>933</ele>
        <time>2020-07-04T21:24:17Z</time>
      </trkpt>
      <trkpt lat="43.77992" lon="6.38915">
        <ele>936</ele>
        <time>2020-07-04T21:24:19Z</time>
      </trkpt>
      <trkpt lat="43.77996" lon="6.38927">
        <ele>935</ele>
        <time>2020-07-04T21:24:20Z</time>
      </trkpt>
      <trkpt lat="43.78013" lon="6.3895">
        <ele>932</ele>
        <time>2020-07-04T21:24:24Z</time>
      </trkpt>
      <trkpt lat="43.78046" lon="6.39014">
        <ele>927</ele>
        <time>2020-07-04T21:24:35Z</time>
      </trkpt>
      <trkpt lat="43.78049" lon="6.39025">
        <ele>925</ele>
        <time>2020-07-04T21:24:36Z</time>
      </trkpt>
      <trkpt lat="43.78045" lon="6.39033">
        <ele>925</ele>
        <time>2020-07-04T21:24:37Z</time>
      </trkpt>
      <trkpt lat="43.78034" lon="6.39035">
        <ele>926</ele>
        <time>2020-07-04T21:24:39Z</time>
      </trkpt>
      <trkpt lat="43.78027" lon="6.39029">
        <ele>927</ele>
        <time>2020-07-04T21:24:41Z</time>
      </trkpt>
      <trkpt lat="43.78003" lon="6.38976">
        <ele>936</ele>
        <time>2020-07-04T21:24:49Z</time>
      </trkpt>
      <trkpt lat="43.77948" lon="6.38904">
        <ele>945</ele>
        <time>2020-07-04T21:25:02Z</time>
      </trkpt>
      <trkpt lat="43.77894" lon="6.38806">
        <ele>953</ele>
        <time>2020-07-04T21:25:18Z</time>
      </trkpt>
      <trkpt lat="43.77858" lon="6.38738">
        <ele>959</ele>
        <time>2020-07-04T21:25:29Z</time>
      </trkpt>
      <trkpt lat="43.77755" lon="6.38452">
        <ele>980</ele>
        <time>2020-07-04T21:26:10Z</time>
      </trkpt>
      <trkpt lat="43.77728" lon="6.38385">
        <ele>987</ele>
        <time>2020-07-04T21:26:20Z</time>
      </trkpt>
      <trkpt lat="43.77699" lon="6.38305">
        <ele>993</ele>
        <time>2020-07-04T21:26:31Z</time>
      </trkpt>
      <trkpt lat="43.77685" lon="6.38275">
        <ele>996</ele>
        <time>2020-07-04T21:26:36Z</time>
      </trkpt>
      <trkpt lat="43.7767" lon="6.38253">
        <ele>999</ele>
        <time>2020-07-04T21:26:40Z</time>
      </trkpt>
      <trkpt lat="43.77639" lon="6.38218">
        <ele>1005</ele>
        <time>2020-07-04T21:26:47Z</time>
      </trkpt>
      <trkpt lat="43.77585" lon="6.38163">
        <ele>1014</ele>
        <time>2020-07-04T21:26:59Z</time>
      </trkpt>
      <trkpt lat="43.77575" lon="6.38148">
        <ele>1017</ele>
        <time>2020-07-04T21:27:01Z</time>
      </trkpt>
      <trkpt lat="43.7756" lon="6.38115">
        <ele>1021</ele>
        <time>2020-07-04T21:27:06Z</time>
      </trkpt>
      <trkpt lat="43.77555" lon="6.38096">
        <ele>1022</ele>
        <time>2020-07-04T21:27:09Z</time>
      </trkpt>
      <trkpt lat="43.77551" lon="6.38074">
        <ele>1023</ele>
        <time>2020-07-04T21:27:12Z</time>
      </trkpt>
      <trkpt lat="43.77549" lon="6.38035">
        <ele>1024</ele>
        <time>2020-07-04T21:27:17Z</time>
      </trkpt>
      <trkpt lat="43.77547" lon="6.38025">
        <ele>1024</ele>
        <time>2020-07-04T21:27:18Z</time>
      </trkpt>
      <trkpt lat="43.77545" lon="6.38019">
        <ele>1025</ele>
        <time>2020-07-04T21:27:19Z</time>
      </trkpt>
      <trkpt lat="43.77541" lon="6.38015">
        <ele>1026</ele>
        <time>2020-07-04T21:27:20Z</time>
      </trkpt>
      <trkpt lat="43.77532" lon="6.38014">
        <ele>1028</ele>
        <time>2020-07-04T21:27:22Z</time>
      </trkpt>
      <trkpt lat="43.77526" lon="6.38017">
        <ele>1030</ele>
        <time>2020-07-04T21:27:23Z</time>
      </trkpt>
      <trkpt lat="43.77523" lon="6.38022">
        <ele>1031</ele>
        <time>2020-07-04T21:27:24Z</time>
      </trkpt>
      <trkpt lat="43.7752" lon="6.38031">
        <ele>1032</ele>
        <time>2020-07-04T21:27:25Z</time>
      </trkpt>
      <trkpt lat="43.77522" lon="6.38092">
        <ele>1032</ele>
        <time>2020-07-04T21:27:33Z</time>
      </trkpt>
      <trkpt lat="43.77519" lon="6.38131">
        <ele>1034</ele>
        <time>2020-07-04T21:27:38Z</time>
      </trkpt>
      <trkpt lat="43.77512" lon="6.38196">
        <ele>1038</ele>
        <time>2020-07-04T21:27:46Z</time>
      </trkpt>
      <trkpt lat="43.77509" lon="6.38236">
        <ele>1040</ele>
        <time>2020-07-04T21:27:51Z</time>
      </trkpt>
      <trkpt lat="43.7751" lon="6.38261">
        <ele>1042</ele>
        <time>2020-07-04T21:27:55Z</time>
      </trkpt>
      <trkpt lat="43.77514" lon="6.38287">
        <ele>1045</ele>
        <time>2020-07-04T21:27:58Z</time>
      </trkpt>
      <trkpt lat="43.77544" lon="6.38379">
        <ele>1046</ele>
        <time>2020-07-04T21:28:11Z</time>
      </trkpt>
      <trkpt lat="43.77544" lon="6.38389">
        <ele>1046</ele>
        <time>2020-07-04T21:28:12Z</time>
      </trkpt>
      <trkpt lat="43.7754" lon="6.38395">
        <ele>1047</ele>
        <time>2020-07-04T21:28:13Z</time>
      </trkpt>
      <trkpt lat="43.77538" lon="6.38396">
        <ele>1047</ele>
        <time>2020-07-04T21:28:14Z</time>
      </trkpt>
      <trkpt lat="43.77532" lon="6.38394">
        <ele>1048</ele>
        <time>2020-07-04T21:28:15Z</time>
      </trkpt>
      <trkpt lat="43.77515" lon="6.38363">
        <ele>1050</ele>
        <time>2020-07-04T21:28:20Z</time>
      </trkpt>
      <trkpt lat="43.77476" lon="6.38318">
        <ele>1053</ele>
        <time>2020-07-04T21:28:29Z</time>
      </trkpt>
      <trkpt lat="43.77459" lon="6.38291">
        <ele>1053</ele>
        <time>2020-07-04T21:28:33Z</time>
      </trkpt>
      <trkpt lat="43.77448" lon="6.38259">
        <ele>1055</ele>
        <time>2020-07-04T21:28:38Z</time>
      </trkpt>
      <trkpt lat="43.7741" lon="6.38066">
        <ele>1068</ele>
        <time>2020-07-04T21:29:04Z</time>
      </trkpt>
      <trkpt lat="43.77396" lon="6.3803">
        <ele>1071</ele>
        <time>2020-07-04T21:29:09Z</time>
      </trkpt>
      <trkpt lat="43.77268" lon="6.37796">
        <ele>1091</ele>
        <time>2020-07-04T21:29:47Z</time>
      </trkpt>
      <trkpt lat="43.77242" lon="6.37755">
        <ele>1095</ele>
        <time>2020-07-04T21:29:54Z</time>
      </trkpt>
      <trkpt lat="43.7718" lon="6.37678">
        <ele>1103</ele>
        <time>2020-07-04T21:30:09Z</time>
      </trkpt>
      <trkpt lat="43.7712" lon="6.37587">
        <ele>1123</ele>
        <time>2020-07-04T21:30:24Z</time>
      </trkpt>
      <trkpt lat="43.77105" lon="6.37552">
        <ele>1120</ele>
        <time>2020-07-04T21:30:30Z</time>
      </trkpt>
      <trkpt lat="43.77105" lon="6.37552">
        <ele>1120</ele>
        <time>2020-07-04T21:30:30Z</time>
      </trkpt>
      <trkpt lat="43.76933" lon="6.37282">
        <ele>1132</ele>
        <time>2020-07-04T21:31:16Z</time>
      </trkpt>
      <trkpt lat="43.76913" lon="6.37258">
        <ele>1137</ele>
        <time>2020-07-04T21:31:21Z</time>
      </trkpt>
      <trkpt lat="43.76748" lon="6.37095">
        <ele>1166</ele>
        <time>2020-07-04T21:31:57Z</time>
      </trkpt>
      <trkpt lat="43.7667" lon="6.36978">
        <ele>1180</ele>
        <time>2020-07-04T21:32:17Z</time>
      </trkpt>
      <trkpt lat="43.76541" lon="6.36832">
        <ele>1199</ele>
        <time>2020-07-04T21:32:47Z</time>
      </trkpt>
      <trkpt lat="43.76535" lon="6.36827">
        <ele>1200</ele>
        <time>2020-07-04T21:32:48Z</time>
      </trkpt>
      <trkpt lat="43.76529" lon="6.36823">
        <ele>1201</ele>
        <time>2020-07-04T21:32:49Z</time>
      </trkpt>
      <trkpt lat="43.76524" lon="6.36823">
        <ele>1202</ele>
        <time>2020-07-04T21:32:50Z</time>
      </trkpt>
      <trkpt lat="43.76518" lon="6.36831">
        <ele>1204</ele>
        <time>2020-07-04T21:32:52Z</time>
      </trkpt>
      <trkpt lat="43.76516" lon="6.36841">
        <ele>1206</ele>
        <time>2020-07-04T21:32:53Z</time>
      </trkpt>
      <trkpt lat="43.76517" lon="6.36851">
        <ele>1206</ele>
        <time>2020-07-04T21:32:54Z</time>
      </trkpt>
      <trkpt lat="43.76524" lon="6.36868">
        <ele>1206</ele>
        <time>2020-07-04T21:32:57Z</time>
      </trkpt>
      <trkpt lat="43.76534" lon="6.36885">
        <ele>1204</ele>
        <time>2020-07-04T21:32:59Z</time>
      </trkpt>
      <trkpt lat="43.76537" lon="6.36893">
        <ele>1204</ele>
        <time>2020-07-04T21:33:01Z</time>
      </trkpt>
      <trkpt lat="43.76538" lon="6.36903">
        <ele>1205</ele>
        <time>2020-07-04T21:33:02Z</time>
      </trkpt>
      <trkpt lat="43.7654" lon="6.36949">
        <ele>1208</ele>
        <time>2020-07-04T21:33:08Z</time>
      </trkpt>
      <trkpt lat="43.76537" lon="6.37142">
        <ele>1224</ele>
        <time>2020-07-04T21:33:33Z</time>
      </trkpt>
      <trkpt lat="43.76545" lon="6.37321">
        <ele>1265</ele>
        <time>2020-07-04T21:33:56Z</time>
      </trkpt>
      <trkpt lat="43.76541" lon="6.3733">
        <ele>1269</ele>
        <time>2020-07-04T21:33:57Z</time>
      </trkpt>
      <trkpt lat="43.76537" lon="6.37331">
        <ele>1270</ele>
        <time>2020-07-04T21:33:58Z</time>
      </trkpt>
      <trkpt lat="43.76533" lon="6.37323">
        <ele>1268</ele>
        <time>2020-07-04T21:33:59Z</time>
      </trkpt>
      <trkpt lat="43.76525" lon="6.37268">
        <ele>1259</ele>
        <time>2020-07-04T21:34:06Z</time>
      </trkpt>
      <trkpt lat="43.76517" lon="6.37235">
        <ele>1255</ele>
        <time>2020-07-04T21:34:11Z</time>
      </trkpt>
      <trkpt lat="43.765" lon="6.37186">
        <ele>1244</ele>
        <time>2020-07-04T21:34:18Z</time>
      </trkpt>
      <trkpt lat="43.76488" lon="6.37161">
        <ele>1237</ele>
        <time>2020-07-04T21:34:22Z</time>
      </trkpt>
      <trkpt lat="43.76426" lon="6.37068">
        <ele>1240</ele>
        <time>2020-07-04T21:34:38Z</time>
      </trkpt>
      <trkpt lat="43.76409" lon="6.37046">
        <ele>1240</ele>
        <time>2020-07-04T21:34:42Z</time>
      </trkpt>
      <trkpt lat="43.76245" lon="6.36926">
        <ele>1261</ele>
        <time>2020-07-04T21:35:15Z</time>
      </trkpt>
      <trkpt lat="43.76192" lon="6.36841">
        <ele>1264</ele>
        <time>2020-07-04T21:35:29Z</time>
      </trkpt>
      <trkpt lat="43.76196" lon="6.36822">
        <ele>1264</ele>
        <time>2020-07-04T21:35:32Z</time>
      </trkpt>
      <trkpt lat="43.76194" lon="6.36775">
        <ele>1265</ele>
        <time>2020-07-04T21:35:38Z</time>
      </trkpt>
      <trkpt lat="43.76197" lon="6.36767">
        <ele>1264</ele>
        <time>2020-07-04T21:35:39Z</time>
      </trkpt>
      <trkpt lat="43.76194" lon="6.36775">
        <ele>1265</ele>
        <time>2020-07-04T21:35:40Z</time>
      </trkpt>
      <trkpt lat="43.76196" lon="6.36822">
        <ele>1264</ele>
        <time>2020-07-04T21:35:46Z</time>
      </trkpt>
      <trkpt lat="43.76192" lon="6.36841">
        <ele>1264</ele>
        <time>2020-07-04T21:35:49Z</time>
      </trkpt>
      <trkpt lat="43.76173" lon="6.36809">
        <ele>1267</ele>
        <time>2020-07-04T21:35:54Z</time>
      </trkpt>
      <trkpt lat="43.76131" lon="6.36734">
        <ele>1272</ele>
        <time>2020-07-04T21:36:06Z</time>
      </trkpt>
      <trkpt lat="43.76123" lon="6.36727">
        <ele>1272</ele>
        <time>2020-07-04T21:36:08Z</time>
      </trkpt>
      <trkpt lat="43.76104" lon="6.36725">
        <ele>1274</ele>
        <time>2020-07-04T21:36:11Z</time>
      </trkpt>
      <trkpt lat="43.76086" lon="6.36738">
        <ele>1275</ele>
        <time>2020-07-04T21:36:15Z</time>
      </trkpt>
      <trkpt lat="43.76078" lon="6.36751">
        <ele>1275</ele>
        <time>2020-07-04T21:36:17Z</time>
      </trkpt>
      <trkpt lat="43.76074" lon="6.3677">
        <ele>1275</ele>
        <time>2020-07-04T21:36:20Z</time>
      </trkpt>
      <trkpt lat="43.76059" lon="6.36941">
        <ele>1275</ele>
        <time>2020-07-04T21:36:42Z</time>
      </trkpt>
      <trkpt lat="43.76049" lon="6.36969">
        <ele>1273</ele>
        <time>2020-07-04T21:36:46Z</time>
      </trkpt>
      <trkpt lat="43.76034" lon="6.36985">
        <ele>1269</ele>
        <time>2020-07-04T21:36:49Z</time>
      </trkpt>
      <trkpt lat="43.76017" lon="6.36992">
        <ele>1265</ele>
        <time>2020-07-04T21:36:53Z</time>
      </trkpt>
      <trkpt lat="43.75994" lon="6.36992">
        <ele>1261</ele>
        <time>2020-07-04T21:36:57Z</time>
      </trkpt>
      <trkpt lat="43.75984" lon="6.36985">
        <ele>1260</ele>
        <time>2020-07-04T21:36:59Z</time>
      </trkpt>
      <trkpt lat="43.7594" lon="6.36908">
        <ele>1283</ele>
        <time>2020-07-04T21:37:11Z</time>
      </trkpt>
      <trkpt lat="43.75895" lon="6.36831">
        <ele>1292</ele>
        <time>2020-07-04T21:37:24Z</time>
      </trkpt>
      <trkpt lat="43.75803" lon="6.36648">
        <ele>1312</ele>
        <time>2020-07-04T21:37:53Z</time>
      </trkpt>
      <trkpt lat="43.75797" lon="6.36637">
        <ele>1314</ele>
        <time>2020-07-04T21:37:54Z</time>
      </trkpt>
      <trkpt lat="43.75787" lon="6.36632">
        <ele>1316</ele>
        <time>2020-07-04T21:37:56Z</time>
      </trkpt>
      <trkpt lat="43.75748" lon="6.36636">
        <ele>1319</ele>
        <time>2020-07-04T21:38:03Z</time>
      </trkpt>
      <trkpt lat="43.75732" lon="6.3664">
        <ele>1318</ele>
        <time>2020-07-04T21:38:06Z</time>
      </trkpt>
      <trkpt lat="43.75724" lon="6.36638">
        <ele>1319</ele>
        <time>2020-07-04T21:38:08Z</time>
      </trkpt>
      <trkpt lat="43.75655" lon="6.36597">
        <ele>1328</ele>
        <time>2020-07-04T21:38:21Z</time>
      </trkpt>
      <trkpt lat="43.75642" lon="6.36596">
        <ele>1328</ele>
        <time>2020-07-04T21:38:23Z</time>
      </trkpt>
      <trkpt lat="43.7563" lon="6.36599">
        <ele>1328</ele>
        <time>2020-07-04T21:38:25Z</time>
      </trkpt>
      <trkpt lat="43.75614" lon="6.36623">
        <ele>1326</ele>
        <time>2020-07-04T21:38:30Z</time>
      </trkpt>
      <trkpt lat="43.7561" lon="6.36638">
        <ele>1325</ele>
        <time>2020-07-04T21:38:32Z</time>
      </trkpt>
      <trkpt lat="43.75609" lon="6.36655">
        <ele>1323</ele>
        <time>2020-07-04T21:38:34Z</time>
      </trkpt>
      <trkpt lat="43.75616" lon="6.36741">
        <ele>1311</ele>
        <time>2020-07-04T21:38:45Z</time>
      </trkpt>
      <trkpt lat="43.75612" lon="6.3677">
        <ele>1308</ele>
        <time>2020-07-04T21:38:49Z</time>
      </trkpt>
      <trkpt lat="43.75603" lon="6.36796">
        <ele>1306</ele>
        <time>2020-07-04T21:38:52Z</time>
      </trkpt>
      <trkpt lat="43.75577" lon="6.36823">
        <ele>1305</ele>
        <time>2020-07-04T21:38:58Z</time>
      </trkpt>
      <trkpt lat="43.7556" lon="6.36834">
        <ele>1300</ele>
        <time>2020-07-04T21:39:02Z</time>
      </trkpt>
      <trkpt lat="43.75534" lon="6.36834">
        <ele>1295</ele>
        <time>2020-07-04T21:39:06Z</time>
      </trkpt>
      <trkpt lat="43.75527" lon="6.36829">
        <ele>1295</ele>
        <time>2020-07-04T21:39:08Z</time>
      </trkpt>
      <trkpt lat="43.75451" lon="6.36739">
        <ele>1284</ele>
        <time>2020-07-04T21:39:25Z</time>
      </trkpt>
      <trkpt lat="43.75443" lon="6.36723">
        <ele>1284</ele>
        <time>2020-07-04T21:39:28Z</time>
      </trkpt>
      <trkpt lat="43.75424" lon="6.36677">
        <ele>1287</ele>
        <time>2020-07-04T21:39:35Z</time>
      </trkpt>
      <trkpt lat="43.75403" lon="6.36635">
        <ele>1289</ele>
        <time>2020-07-04T21:39:41Z</time>
      </trkpt>
      <trkpt lat="43.75394" lon="6.36626">
        <ele>1288</ele>
        <time>2020-07-04T21:39:43Z</time>
      </trkpt>
      <trkpt lat="43.75384" lon="6.36628">
        <ele>1284</ele>
        <time>2020-07-04T21:39:45Z</time>
      </trkpt>
      <trkpt lat="43.75381" lon="6.36635">
        <ele>1282</ele>
        <time>2020-07-04T21:39:46Z</time>
      </trkpt>
      <trkpt lat="43.75382" lon="6.36643">
        <ele>1280</ele>
        <time>2020-07-04T21:39:47Z</time>
      </trkpt>
      <trkpt lat="43.75384" lon="6.36652">
        <ele>1278</ele>
        <time>2020-07-04T21:39:48Z</time>
      </trkpt>
      <trkpt lat="43.75398" lon="6.36678">
        <ele>1277</ele>
        <time>2020-07-04T21:39:53Z</time>
      </trkpt>
      <trkpt lat="43.75403" lon="6.36689">
        <ele>1276</ele>
        <time>2020-07-04T21:39:54Z</time>
      </trkpt>
      <trkpt lat="43.75429" lon="6.36815">
        <ele>1262</ele>
        <time>2020-07-04T21:40:11Z</time>
      </trkpt>
      <trkpt lat="43.75441" lon="6.36856">
        <ele>1259</ele>
        <time>2020-07-04T21:40:17Z</time>
      </trkpt>
      <trkpt lat="43.7545" lon="6.36877">
        <ele>1258</ele>
        <time>2020-07-04T21:40:20Z</time>
      </trkpt>
      <trkpt lat="43.7548" lon="6.36932">
        <ele>1257</ele>
        <time>2020-07-04T21:40:29Z</time>
      </trkpt>
      <trkpt lat="43.75501" lon="6.36957">
        <ele>1257</ele>
        <time>2020-07-04T21:40:34Z</time>
      </trkpt>
      <trkpt lat="43.75528" lon="6.36972">
        <ele>1255</ele>
        <time>2020-07-04T21:40:39Z</time>
      </trkpt>
      <trkpt lat="43.75547" lon="6.36975">
        <ele>1256</ele>
        <time>2020-07-04T21:40:42Z</time>
      </trkpt>
      <trkpt lat="43.75552" lon="6.36982">
        <ele>1254</ele>
        <time>2020-07-04T21:40:44Z</time>
      </trkpt>
      <trkpt lat="43.75554" lon="6.36989">
        <ele>1251</ele>
        <time>2020-07-04T21:40:44Z</time>
      </trkpt>
      <trkpt lat="43.75553" lon="6.36997">
        <ele>1248</ele>
        <time>2020-07-04T21:40:46Z</time>
      </trkpt>
      <trkpt lat="43.7555" lon="6.37">
        <ele>1247</ele>
        <time>2020-07-04T21:40:46Z</time>
      </trkpt>
      <trkpt lat="43.75545" lon="6.37002">
        <ele>1246</ele>
        <time>2020-07-04T21:40:47Z</time>
      </trkpt>
      <trkpt lat="43.75537" lon="6.37001">
        <ele>1246</ele>
        <time>2020-07-04T21:40:49Z</time>
      </trkpt>
      <trkpt lat="43.75492" lon="6.36981">
        <ele>1247</ele>
        <time>2020-07-04T21:40:57Z</time>
      </trkpt>
      <trkpt lat="43.75477" lon="6.3697">
        <ele>1245</ele>
        <time>2020-07-04T21:41:00Z</time>
      </trkpt>
      <trkpt lat="43.75465" lon="6.36957">
        <ele>1244</ele>
        <time>2020-07-04T21:41:03Z</time>
      </trkpt>
      <trkpt lat="43.75397" lon="6.36865">
        <ele>1237</ele>
        <time>2020-07-04T21:41:20Z</time>
      </trkpt>
      <trkpt lat="43.7538" lon="6.36822">
        <ele>1238</ele>
        <time>2020-07-04T21:41:26Z</time>
      </trkpt>
      <trkpt lat="43.75362" lon="6.3676">
        <ele>1240</ele>
        <time>2020-07-04T21:41:34Z</time>
      </trkpt>
      <trkpt lat="43.75357" lon="6.36753">
        <ele>1239</ele>
        <time>2020-07-04T21:41:36Z</time>
      </trkpt>
      <trkpt lat="43.75349" lon="6.36749">
        <ele>1236</ele>
        <time>2020-07-04T21:41:37Z</time>
      </trkpt>
      <trkpt lat="43.75317" lon="6.36741">
        <ele>1222</ele>
        <time>2020-07-04T21:41:43Z</time>
      </trkpt>
      <trkpt lat="43.75309" lon="6.36734">
        <ele>1220</ele>
        <time>2020-07-04T21:41:45Z</time>
      </trkpt>
      <trkpt lat="43.75276" lon="6.36647">
        <ele>1225</ele>
        <time>2020-07-04T21:41:57Z</time>
      </trkpt>
      <trkpt lat="43.75262" lon="6.36617">
        <ele>1228</ele>
        <time>2020-07-04T21:42:02Z</time>
      </trkpt>
      <trkpt lat="43.75227" lon="6.3657">
        <ele>1225</ele>
        <time>2020-07-04T21:42:11Z</time>
      </trkpt>
      <trkpt lat="43.75202" lon="6.36544">
        <ele>1223</ele>
        <time>2020-07-04T21:42:16Z</time>
      </trkpt>
      <trkpt lat="43.75168" lon="6.36502">
        <ele>1222</ele>
        <time>2020-07-04T21:42:24Z</time>
      </trkpt>
      <trkpt lat="43.75159" lon="6.36485">
        <ele>1225</ele>
        <time>2020-07-04T21:42:27Z</time>
      </trkpt>
      <trkpt lat="43.75146" lon="6.36453">
        <ele>1237</ele>
        <time>2020-07-04T21:42:32Z</time>
      </trkpt>
      <trkpt lat="43.75121" lon="6.36414">
        <ele>1244</ele>
        <time>2020-07-04T21:42:38Z</time>
      </trkpt>
      <trkpt lat="43.75101" lon="6.36393">
        <ele>1232</ele>
        <time>2020-07-04T21:42:43Z</time>
      </trkpt>
      <trkpt lat="43.75065" lon="6.36372">
        <ele>1209</ele>
        <time>2020-07-04T21:42:50Z</time>
      </trkpt>
      <trkpt lat="43.75042" lon="6.36371">
        <ele>1191</ele>
        <time>2020-07-04T21:42:54Z</time>
      </trkpt>
      <trkpt lat="43.75035" lon="6.36364">
        <ele>1189</ele>
        <time>2020-07-04T21:42:55Z</time>
      </trkpt>
      <trkpt lat="43.75025" lon="6.36345">
        <ele>1193</ele>
        <time>2020-07-04T21:42:58Z</time>
      </trkpt>
      <trkpt lat="43.75014" lon="6.36332">
        <ele>1194</ele>
        <time>2020-07-04T21:43:01Z</time>
      </trkpt>
      <trkpt lat="43.75009" lon="6.36318">
        <ele>1197</ele>
        <time>2020-07-04T21:43:03Z</time>
      </trkpt>
      <trkpt lat="43.74999" lon="6.36275">
        <ele>1209</ele>
        <time>2020-07-04T21:43:09Z</time>
      </trkpt>
      <trkpt lat="43.74996" lon="6.36218">
        <ele>1222</ele>
        <time>2020-07-04T21:43:16Z</time>
      </trkpt>
      <trkpt lat="43.74987" lon="6.36196">
        <ele>1217</ele>
        <time>2020-07-04T21:43:19Z</time>
      </trkpt>
      <trkpt lat="43.74953" lon="6.36114">
        <ele>1202</ele>
        <time>2020-07-04T21:43:32Z</time>
      </trkpt>
      <trkpt lat="43.74947" lon="6.36098">
        <ele>1199</ele>
        <time>2020-07-04T21:43:34Z</time>
      </trkpt>
      <trkpt lat="43.74936" lon="6.3606">
        <ele>1191</ele>
        <time>2020-07-04T21:43:39Z</time>
      </trkpt>
      <trkpt lat="43.74935" lon="6.36043">
        <ele>1191</ele>
        <time>2020-07-04T21:43:41Z</time>
      </trkpt>
      <trkpt lat="43.74937" lon="6.35994">
        <ele>1197</ele>
        <time>2020-07-04T21:43:48Z</time>
      </trkpt>
      <trkpt lat="43.74936" lon="6.35976">
        <ele>1202</ele>
        <time>2020-07-04T21:43:50Z</time>
      </trkpt>
      <trkpt lat="43.74932" lon="6.35963">
        <ele>1202</ele>
        <time>2020-07-04T21:43:52Z</time>
      </trkpt>
      <trkpt lat="43.74926" lon="6.35951">
        <ele>1200</ele>
        <time>2020-07-04T21:43:54Z</time>
      </trkpt>
      <trkpt lat="43.74918" lon="6.35942">
        <ele>1196</ele>
        <time>2020-07-04T21:43:56Z</time>
      </trkpt>
      <trkpt lat="43.74898" lon="6.3593">
        <ele>1186</ele>
        <time>2020-07-04T21:43:59Z</time>
      </trkpt>
      <trkpt lat="43.74877" lon="6.35926">
        <ele>1173</ele>
        <time>2020-07-04T21:44:03Z</time>
      </trkpt>
      <trkpt lat="43.74861" lon="6.35913">
        <ele>1168</ele>
        <time>2020-07-04T21:44:07Z</time>
      </trkpt>
      <trkpt lat="43.74851" lon="6.359">
        <ele>1166</ele>
        <time>2020-07-04T21:44:09Z</time>
      </trkpt>
      <trkpt lat="43.74846" lon="6.35887">
        <ele>1168</ele>
        <time>2020-07-04T21:44:11Z</time>
      </trkpt>
      <trkpt lat="43.74805" lon="6.35841">
        <ele>1156</ele>
        <time>2020-07-04T21:44:20Z</time>
      </trkpt>
      <trkpt lat="43.74796" lon="6.35827">
        <ele>1153</ele>
        <time>2020-07-04T21:44:23Z</time>
      </trkpt>
      <trkpt lat="43.74785" lon="6.35804">
        <ele>1149</ele>
        <time>2020-07-04T21:44:26Z</time>
      </trkpt>
      <trkpt lat="43.74782" lon="6.35788">
        <ele>1150</ele>
        <time>2020-07-04T21:44:28Z</time>
      </trkpt>
      <trkpt lat="43.74779" lon="6.35752">
        <ele>1155</ele>
        <time>2020-07-04T21:44:33Z</time>
      </trkpt>
      <trkpt lat="43.74772" lon="6.35731">
        <ele>1151</ele>
        <time>2020-07-04T21:44:36Z</time>
      </trkpt>
      <trkpt lat="43.74755" lon="6.35677">
        <ele>1141</ele>
        <time>2020-07-04T21:44:44Z</time>
      </trkpt>
      <trkpt lat="43.74751" lon="6.35656">
        <ele>1138</ele>
        <time>2020-07-04T21:44:46Z</time>
      </trkpt>
      <trkpt lat="43.74749" lon="6.35636">
        <ele>1133</ele>
        <time>2020-07-04T21:44:49Z</time>
      </trkpt>
      <trkpt lat="43.74751" lon="6.3562">
        <ele>1131</ele>
        <time>2020-07-04T21:44:51Z</time>
      </trkpt>
      <trkpt lat="43.74761" lon="6.3557">
        <ele>1126</ele>
        <time>2020-07-04T21:44:58Z</time>
      </trkpt>
      <trkpt lat="43.74766" lon="6.35557">
        <ele>1124</ele>
        <time>2020-07-04T21:45:00Z</time>
      </trkpt>
      <trkpt lat="43.74772" lon="6.35546">
        <ele>1122</ele>
        <time>2020-07-04T21:45:01Z</time>
      </trkpt>
      <trkpt lat="43.74808" lon="6.35497">
        <ele>1115</ele>
        <time>2020-07-04T21:45:10Z</time>
      </trkpt>
      <trkpt lat="43.74818" lon="6.3549">
        <ele>1115</ele>
        <time>2020-07-04T21:45:12Z</time>
      </trkpt>
      <trkpt lat="43.74841" lon="6.35483">
        <ele>1119</ele>
        <time>2020-07-04T21:45:16Z</time>
      </trkpt>
      <trkpt lat="43.74851" lon="6.35477">
        <ele>1120</ele>
        <time>2020-07-04T21:45:18Z</time>
      </trkpt>
      <trkpt lat="43.74883" lon="6.35473">
        <ele>1130</ele>
        <time>2020-07-04T21:45:24Z</time>
      </trkpt>
      <trkpt lat="43.74895" lon="6.35459">
        <ele>1128</ele>
        <time>2020-07-04T21:45:27Z</time>
      </trkpt>
      <trkpt lat="43.749" lon="6.35444">
        <ele>1123</ele>
        <time>2020-07-04T21:45:29Z</time>
      </trkpt>
      <trkpt lat="43.74899" lon="6.35435">
        <ele>1118</ele>
        <time>2020-07-04T21:45:30Z</time>
      </trkpt>
      <trkpt lat="43.74896" lon="6.3543">
        <ele>1115</ele>
        <time>2020-07-04T21:45:31Z</time>
      </trkpt>
      <trkpt lat="43.74891" lon="6.35431">
        <ele>1114</ele>
        <time>2020-07-04T21:45:32Z</time>
      </trkpt>
      <trkpt lat="43.74872" lon="6.35449">
        <ele>1115</ele>
        <time>2020-07-04T21:45:36Z</time>
      </trkpt>
      <trkpt lat="43.7486" lon="6.35453">
        <ele>1113</ele>
        <time>2020-07-04T21:45:38Z</time>
      </trkpt>
      <trkpt lat="43.74813" lon="6.35453">
        <ele>1099</ele>
        <time>2020-07-04T21:45:47Z</time>
      </trkpt>
      <trkpt lat="43.74797" lon="6.35457">
        <ele>1097</ele>
        <time>2020-07-04T21:45:50Z</time>
      </trkpt>
      <trkpt lat="43.74786" lon="6.35461">
        <ele>1096</ele>
        <time>2020-07-04T21:45:52Z</time>
      </trkpt>
      <trkpt lat="43.74772" lon="6.35472">
        <ele>1097</ele>
        <time>2020-07-04T21:45:54Z</time>
      </trkpt>
      <trkpt lat="43.74742" lon="6.35499">
        <ele>1098</ele>
        <time>2020-07-04T21:46:01Z</time>
      </trkpt>
      <trkpt lat="43.7471" lon="6.35538">
        <ele>1099</ele>
        <time>2020-07-04T21:46:08Z</time>
      </trkpt>
      <trkpt lat="43.74704" lon="6.35554">
        <ele>1099</ele>
        <time>2020-07-04T21:46:11Z</time>
      </trkpt>
      <trkpt lat="43.74701" lon="6.35567">
        <ele>1100</ele>
        <time>2020-07-04T21:46:12Z</time>
      </trkpt>
      <trkpt lat="43.74701" lon="6.35582">
        <ele>1103</ele>
        <time>2020-07-04T21:46:14Z</time>
      </trkpt>
      <trkpt lat="43.74703" lon="6.35614">
        <ele>1105</ele>
        <time>2020-07-04T21:46:18Z</time>
      </trkpt>
      <trkpt lat="43.74701" lon="6.35622">
        <ele>1104</ele>
        <time>2020-07-04T21:46:20Z</time>
      </trkpt>
      <trkpt lat="43.74695" lon="6.35625">
        <ele>1101</ele>
        <time>2020-07-04T21:46:21Z</time>
      </trkpt>
      <trkpt lat="43.74689" lon="6.35625">
        <ele>1097</ele>
        <time>2020-07-04T21:46:22Z</time>
      </trkpt>
      <trkpt lat="43.74685" lon="6.35622">
        <ele>1095</ele>
        <time>2020-07-04T21:46:23Z</time>
      </trkpt>
      <trkpt lat="43.74683" lon="6.35614">
        <ele>1094</ele>
        <time>2020-07-04T21:46:24Z</time>
      </trkpt>
      <trkpt lat="43.74685" lon="6.35585">
        <ele>1096</ele>
        <time>2020-07-04T21:46:27Z</time>
      </trkpt>
      <trkpt lat="43.74683" lon="6.35567">
        <ele>1093</ele>
        <time>2020-07-04T21:46:30Z</time>
      </trkpt>
      <trkpt lat="43.74671" lon="6.35532">
        <ele>1086</ele>
        <time>2020-07-04T21:46:35Z</time>
      </trkpt>
      <trkpt lat="43.74647" lon="6.35488">
        <ele>1079</ele>
        <time>2020-07-04T21:46:42Z</time>
      </trkpt>
      <trkpt lat="43.74627" lon="6.35461">
        <ele>1072</ele>
        <time>2020-07-04T21:46:47Z</time>
      </trkpt>
      <trkpt lat="43.74619" lon="6.35452">
        <ele>1069</ele>
        <time>2020-07-04T21:46:49Z</time>
      </trkpt>
      <trkpt lat="43.746" lon="6.35444">
        <ele>1066</ele>
        <time>2020-07-04T21:46:52Z</time>
      </trkpt>
      <trkpt lat="43.74588" lon="6.35443">
        <ele>1064</ele>
        <time>2020-07-04T21:46:54Z</time>
      </trkpt>
      <trkpt lat="43.74565" lon="6.35451">
        <ele>1061</ele>
        <time>2020-07-04T21:46:59Z</time>
      </trkpt>
      <trkpt lat="43.74551" lon="6.35463">
        <ele>1060</ele>
        <time>2020-07-04T21:47:01Z</time>
      </trkpt>
      <trkpt lat="43.7452" lon="6.35496">
        <ele>1060</ele>
        <time>2020-07-04T21:47:08Z</time>
      </trkpt>
      <trkpt lat="43.74477" lon="6.35549">
        <ele>1054</ele>
        <time>2020-07-04T21:47:19Z</time>
      </trkpt>
      <trkpt lat="43.74458" lon="6.35577">
        <ele>1051</ele>
        <time>2020-07-04T21:47:24Z</time>
      </trkpt>
      <trkpt lat="43.74447" lon="6.35597">
        <ele>1049</ele>
        <time>2020-07-04T21:47:27Z</time>
      </trkpt>
      <trkpt lat="43.74428" lon="6.35639">
        <ele>1046</ele>
        <time>2020-07-04T21:47:33Z</time>
      </trkpt>
      <trkpt lat="43.74405" lon="6.35699">
        <ele>1043</ele>
        <time>2020-07-04T21:47:42Z</time>
      </trkpt>
      <trkpt lat="43.74396" lon="6.35725">
        <ele>1041</ele>
        <time>2020-07-04T21:47:46Z</time>
      </trkpt>
      <trkpt lat="43.74392" lon="6.35742">
        <ele>1040</ele>
        <time>2020-07-04T21:47:48Z</time>
      </trkpt>
      <trkpt lat="43.74391" lon="6.35766">
        <ele>1034</ele>
        <time>2020-07-04T21:47:51Z</time>
      </trkpt>
      <trkpt lat="43.74384" lon="6.35779">
        <ele>1027</ele>
        <time>2020-07-04T21:47:53Z</time>
      </trkpt>
      <trkpt lat="43.74377" lon="6.35778">
        <ele>1024</ele>
        <time>2020-07-04T21:47:54Z</time>
      </trkpt>
      <trkpt lat="43.74372" lon="6.35774">
        <ele>1024</ele>
        <time>2020-07-04T21:47:55Z</time>
      </trkpt>
      <trkpt lat="43.74369" lon="6.35765">
        <ele>1026</ele>
        <time>2020-07-04T21:47:57Z</time>
      </trkpt>
      <trkpt lat="43.74376" lon="6.35734">
        <ele>1033</ele>
        <time>2020-07-04T21:48:01Z</time>
      </trkpt>
      <trkpt lat="43.74378" lon="6.3571">
        <ele>1033</ele>
        <time>2020-07-04T21:48:04Z</time>
      </trkpt>
      <trkpt lat="43.74381" lon="6.35634">
        <ele>1027</ele>
        <time>2020-07-04T21:48:14Z</time>
      </trkpt>
      <trkpt lat="43.74384" lon="6.35596">
        <ele>1023</ele>
        <time>2020-07-04T21:48:19Z</time>
      </trkpt>
      <trkpt lat="43.74387" lon="6.3557">
        <ele>1019</ele>
        <time>2020-07-04T21:48:22Z</time>
      </trkpt>
      <trkpt lat="43.7442" lon="6.3546">
        <ele>1010</ele>
        <time>2020-07-04T21:48:37Z</time>
      </trkpt>
      <trkpt lat="43.74428" lon="6.35448">
        <ele>1011</ele>
        <time>2020-07-04T21:48:39Z</time>
      </trkpt>
      <trkpt lat="43.74439" lon="6.35436">
        <ele>1012</ele>
        <time>2020-07-04T21:48:42Z</time>
      </trkpt>
      <trkpt lat="43.74444" lon="6.35427">
        <ele>1012</ele>
        <time>2020-07-04T21:48:43Z</time>
      </trkpt>
      <trkpt lat="43.74445" lon="6.35418">
        <ele>1010</ele>
        <time>2020-07-04T21:48:45Z</time>
      </trkpt>
      <trkpt lat="43.74441" lon="6.35411">
        <ele>1007</ele>
        <time>2020-07-04T21:48:46Z</time>
      </trkpt>
      <trkpt lat="43.74436" lon="6.3541">
        <ele>1005</ele>
        <time>2020-07-04T21:48:47Z</time>
      </trkpt>
      <trkpt lat="43.74429" lon="6.35413">
        <ele>1002</ele>
        <time>2020-07-04T21:48:48Z</time>
      </trkpt>
      <trkpt lat="43.74414" lon="6.35444">
        <ele>1004</ele>
        <time>2020-07-04T21:48:53Z</time>
      </trkpt>
      <trkpt lat="43.74364" lon="6.35521">
        <ele>1001</ele>
        <time>2020-07-04T21:49:06Z</time>
      </trkpt>
      <trkpt lat="43.74321" lon="6.35579">
        <ele>995</ele>
        <time>2020-07-04T21:49:17Z</time>
      </trkpt>
      <trkpt lat="43.74309" lon="6.35604">
        <ele>996</ele>
        <time>2020-07-04T21:49:21Z</time>
      </trkpt>
      <trkpt lat="43.74301" lon="6.35625">
        <ele>996</ele>
        <time>2020-07-04T21:49:24Z</time>
      </trkpt>
      <trkpt lat="43.74296" lon="6.35633">
        <ele>996</ele>
        <time>2020-07-04T21:49:25Z</time>
      </trkpt>
      <trkpt lat="43.7429" lon="6.35636">
        <ele>994</ele>
        <time>2020-07-04T21:49:26Z</time>
      </trkpt>
      <trkpt lat="43.74286" lon="6.35634">
        <ele>993</ele>
        <time>2020-07-04T21:49:27Z</time>
      </trkpt>
      <trkpt lat="43.74282" lon="6.35628">
        <ele>991</ele>
        <time>2020-07-04T21:49:28Z</time>
      </trkpt>
      <trkpt lat="43.74282" lon="6.35621">
        <ele>990</ele>
        <time>2020-07-04T21:49:29Z</time>
      </trkpt>
      <trkpt lat="43.74285" lon="6.35611">
        <ele>989</ele>
        <time>2020-07-04T21:49:30Z</time>
      </trkpt>
      <trkpt lat="43.74298" lon="6.35595">
        <ele>991</ele>
        <time>2020-07-04T21:49:33Z</time>
      </trkpt>
      <trkpt lat="43.74309" lon="6.35568">
        <ele>990</ele>
        <time>2020-07-04T21:49:37Z</time>
      </trkpt>
      <trkpt lat="43.74448" lon="6.35124">
        <ele>946</ele>
        <time>2020-07-04T21:50:39Z</time>
      </trkpt>
      <trkpt lat="43.74456" lon="6.35103">
        <ele>943</ele>
        <time>2020-07-04T21:50:43Z</time>
      </trkpt>
      <trkpt lat="43.74476" lon="6.35076">
        <ele>939</ele>
        <time>2020-07-04T21:50:47Z</time>
      </trkpt>
      <trkpt lat="43.74501" lon="6.35058">
        <ele>937</ele>
        <time>2020-07-04T21:50:52Z</time>
      </trkpt>
      <trkpt lat="43.74518" lon="6.35053">
        <ele>933</ele>
        <time>2020-07-04T21:50:56Z</time>
      </trkpt>
      <trkpt lat="43.74531" lon="6.35054">
        <ele>932</ele>
        <time>2020-07-04T21:50:58Z</time>
      </trkpt>
      <trkpt lat="43.74618" lon="6.35073">
        <ele>930</ele>
        <time>2020-07-04T21:51:14Z</time>
      </trkpt>
      <trkpt lat="43.74642" lon="6.35078">
        <ele>928</ele>
        <time>2020-07-04T21:51:18Z</time>
      </trkpt>
      <trkpt lat="43.74676" lon="6.35078">
        <ele>924</ele>
        <time>2020-07-04T21:51:24Z</time>
      </trkpt>
      <trkpt lat="43.74716" lon="6.3507">
        <ele>921</ele>
        <time>2020-07-04T21:51:31Z</time>
      </trkpt>
      <trkpt lat="43.74745" lon="6.35071">
        <ele>922</ele>
        <time>2020-07-04T21:51:36Z</time>
      </trkpt>
      <trkpt lat="43.74757" lon="6.35067">
        <ele>923</ele>
        <time>2020-07-04T21:51:38Z</time>
      </trkpt>
      <trkpt lat="43.74763" lon="6.35062">
        <ele>923</ele>
        <time>2020-07-04T21:51:40Z</time>
      </trkpt>
      <trkpt lat="43.74779" lon="6.35049">
        <ele>925</ele>
        <time>2020-07-04T21:51:43Z</time>
      </trkpt>
      <trkpt lat="43.74782" lon="6.35046">
        <ele>926</ele>
        <time>2020-07-04T21:51:44Z</time>
      </trkpt>
      <trkpt lat="43.74788" lon="6.35039">
        <ele>926</ele>
        <time>2020-07-04T21:51:45Z</time>
      </trkpt>
      <trkpt lat="43.74792" lon="6.35031">
        <ele>926</ele>
        <time>2020-07-04T21:51:46Z</time>
      </trkpt>
      <trkpt lat="43.74794" lon="6.35021">
        <ele>925</ele>
        <time>2020-07-04T21:51:48Z</time>
      </trkpt>
      <trkpt lat="43.74793" lon="6.35016">
        <ele>923</ele>
        <time>2020-07-04T21:51:48Z</time>
      </trkpt>
      <trkpt lat="43.74793" lon="6.3501">
        <ele>922</ele>
        <time>2020-07-04T21:51:49Z</time>
      </trkpt>
      <trkpt lat="43.74791" lon="6.34994">
        <ele>919</ele>
        <time>2020-07-04T21:51:51Z</time>
      </trkpt>
      <trkpt lat="43.74786" lon="6.34978">
        <ele>915</ele>
        <time>2020-07-04T21:51:53Z</time>
      </trkpt>
      <trkpt lat="43.74768" lon="6.34932">
        <ele>904</ele>
        <time>2020-07-04T21:52:00Z</time>
      </trkpt>
      <trkpt lat="43.74767" lon="6.34919">
        <ele>902</ele>
        <time>2020-07-04T21:52:02Z</time>
      </trkpt>
      <trkpt lat="43.74767" lon="6.34905">
        <ele>900</ele>
        <time>2020-07-04T21:52:04Z</time>
      </trkpt>
      <trkpt lat="43.74771" lon="6.3489">
        <ele>899</ele>
        <time>2020-07-04T21:52:06Z</time>
      </trkpt>
      <trkpt lat="43.7478" lon="6.34869">
        <ele>900</ele>
        <time>2020-07-04T21:52:09Z</time>
      </trkpt>
      <trkpt lat="43.74837" lon="6.3479">
        <ele>914</ele>
        <time>2020-07-04T21:52:23Z</time>
      </trkpt>
      <trkpt lat="43.74841" lon="6.34779">
        <ele>915</ele>
        <time>2020-07-04T21:52:25Z</time>
      </trkpt>
      <trkpt lat="43.74843" lon="6.34768">
        <ele>915</ele>
        <time>2020-07-04T21:52:26Z</time>
      </trkpt>
      <trkpt lat="43.74842" lon="6.34766">
        <ele>914</ele>
        <time>2020-07-04T21:52:27Z</time>
      </trkpt>
      <trkpt lat="43.74842" lon="6.34757">
        <ele>913</ele>
        <time>2020-07-04T21:52:28Z</time>
      </trkpt>
      <trkpt lat="43.74838" lon="6.34737">
        <ele>910</ele>
        <time>2020-07-04T21:52:30Z</time>
      </trkpt>
      <trkpt lat="43.74836" lon="6.34701">
        <ele>911</ele>
        <time>2020-07-04T21:52:35Z</time>
      </trkpt>
      <trkpt lat="43.74836" lon="6.34665">
        <ele>914</ele>
        <time>2020-07-04T21:52:40Z</time>
      </trkpt>
      <trkpt lat="43.74833" lon="6.34648">
        <ele>917</ele>
        <time>2020-07-04T21:52:42Z</time>
      </trkpt>
      <trkpt lat="43.74824" lon="6.34634">
        <ele>918</ele>
        <time>2020-07-04T21:52:44Z</time>
      </trkpt>
      <trkpt lat="43.74804" lon="6.34623">
        <ele>915</ele>
        <time>2020-07-04T21:52:48Z</time>
      </trkpt>
      <trkpt lat="43.74769" lon="6.34608">
        <ele>910</ele>
        <time>2020-07-04T21:52:55Z</time>
      </trkpt>
      <trkpt lat="43.74734" lon="6.346">
        <ele>900</ele>
        <time>2020-07-04T21:53:01Z</time>
      </trkpt>
      <trkpt lat="43.74704" lon="6.34589">
        <ele>891</ele>
        <time>2020-07-04T21:53:06Z</time>
      </trkpt>
      <trkpt lat="43.74693" lon="6.34581">
        <ele>889</ele>
        <time>2020-07-04T21:53:09Z</time>
      </trkpt>
      <trkpt lat="43.74681" lon="6.34572">
        <ele>887</ele>
        <time>2020-07-04T21:53:11Z</time>
      </trkpt>
      <trkpt lat="43.7467" lon="6.34558">
        <ele>887</ele>
        <time>2020-07-04T21:53:14Z</time>
      </trkpt>
      <trkpt lat="43.74649" lon="6.34525">
        <ele>886</ele>
        <time>2020-07-04T21:53:19Z</time>
      </trkpt>
      <trkpt lat="43.74649" lon="6.34524">
        <ele>887</ele>
        <time>2020-07-04T21:53:20Z</time>
      </trkpt>
      <trkpt lat="43.74645" lon="6.34519">
        <ele>886</ele>
        <time>2020-07-04T21:53:21Z</time>
      </trkpt>
      <trkpt lat="43.74643" lon="6.34515">
        <ele>886</ele>
        <time>2020-07-04T21:53:21Z</time>
      </trkpt>
      <trkpt lat="43.74638" lon="6.34494">
        <ele>888</ele>
        <time>2020-07-04T21:53:24Z</time>
      </trkpt>
      <trkpt lat="43.74638" lon="6.34476">
        <ele>887</ele>
        <time>2020-07-04T21:53:26Z</time>
      </trkpt>
      <trkpt lat="43.74646" lon="6.34421">
        <ele>892</ele>
        <time>2020-07-04T21:53:34Z</time>
      </trkpt>
      <trkpt lat="43.74647" lon="6.34373">
        <ele>891</ele>
        <time>2020-07-04T21:53:40Z</time>
      </trkpt>
      <trkpt lat="43.7465" lon="6.34336">
        <ele>892</ele>
        <time>2020-07-04T21:53:44Z</time>
      </trkpt>
      <trkpt lat="43.74636" lon="6.34254">
        <ele>885</ele>
        <time>2020-07-04T21:53:55Z</time>
      </trkpt>
      <trkpt lat="43.74624" lon="6.34212">
        <ele>884</ele>
        <time>2020-07-04T21:54:01Z</time>
      </trkpt>
      <trkpt lat="43.74613" lon="6.34186">
        <ele>882</ele>
        <time>2020-07-04T21:54:05Z</time>
      </trkpt>
      <trkpt lat="43.74599" lon="6.34164">
        <ele>879</ele>
        <time>2020-07-04T21:54:09Z</time>
      </trkpt>
      <trkpt lat="43.74578" lon="6.34135">
        <ele>868</ele>
        <time>2020-07-04T21:54:14Z</time>
      </trkpt>
      <trkpt lat="43.74578" lon="6.34134">
        <ele>868</ele>
        <time>2020-07-04T21:54:14Z</time>
      </trkpt>
      <trkpt lat="43.74568" lon="6.34117">
        <ele>864</ele>
        <time>2020-07-04T21:54:17Z</time>
      </trkpt>
      <trkpt lat="43.74564" lon="6.34108">
        <ele>862</ele>
        <time>2020-07-04T21:54:18Z</time>
      </trkpt>
      <trkpt lat="43.74564" lon="6.34095">
        <ele>864</ele>
        <time>2020-07-04T21:54:20Z</time>
      </trkpt>
      <trkpt lat="43.74565" lon="6.3409">
        <ele>865</ele>
        <time>2020-07-04T21:54:21Z</time>
      </trkpt>
      <trkpt lat="43.7458" lon="6.34046">
        <ele>872</ele>
        <time>2020-07-04T21:54:27Z</time>
      </trkpt>
      <trkpt lat="43.74581" lon="6.34037">
        <ele>872</ele>
        <time>2020-07-04T21:54:28Z</time>
      </trkpt>
      <trkpt lat="43.74581" lon="6.34027">
        <ele>872</ele>
        <time>2020-07-04T21:54:29Z</time>
      </trkpt>
      <trkpt lat="43.74566" lon="6.33987">
        <ele>862</ele>
        <time>2020-07-04T21:54:35Z</time>
      </trkpt>
      <trkpt lat="43.74561" lon="6.33966">
        <ele>858</ele>
        <time>2020-07-04T21:54:38Z</time>
      </trkpt>
      <trkpt lat="43.74557" lon="6.33941">
        <ele>855</ele>
        <time>2020-07-04T21:54:41Z</time>
      </trkpt>
      <trkpt lat="43.74557" lon="6.33931">
        <ele>855</ele>
        <time>2020-07-04T21:54:43Z</time>
      </trkpt>
      <trkpt lat="43.74563" lon="6.33902">
        <ele>859</ele>
        <time>2020-07-04T21:54:46Z</time>
      </trkpt>
      <trkpt lat="43.74563" lon="6.33886">
        <ele>859</ele>
        <time>2020-07-04T21:54:49Z</time>
      </trkpt>
      <trkpt lat="43.74559" lon="6.33871">
        <ele>857</ele>
        <time>2020-07-04T21:54:51Z</time>
      </trkpt>
      <trkpt lat="43.74535" lon="6.33815">
        <ele>840</ele>
        <time>2020-07-04T21:54:59Z</time>
      </trkpt>
      <trkpt lat="43.74533" lon="6.338">
        <ele>837</ele>
        <time>2020-07-04T21:55:01Z</time>
      </trkpt>
      <trkpt lat="43.74534" lon="6.3379">
        <ele>837</ele>
        <time>2020-07-04T21:55:02Z</time>
      </trkpt>
      <trkpt lat="43.7455" lon="6.33736">
        <ele>839</ele>
        <time>2020-07-04T21:55:10Z</time>
      </trkpt>
      <trkpt lat="43.74567" lon="6.33713">
        <ele>843</ele>
        <time>2020-07-04T21:55:14Z</time>
      </trkpt>
      <trkpt lat="43.74571" lon="6.33705">
        <ele>844</ele>
        <time>2020-07-04T21:55:15Z</time>
      </trkpt>
      <trkpt lat="43.74578" lon="6.33667">
        <ele>837</ele>
        <time>2020-07-04T21:55:20Z</time>
      </trkpt>
      <trkpt lat="43.74584" lon="6.33651">
        <ele>836</ele>
        <time>2020-07-04T21:55:23Z</time>
      </trkpt>
      <trkpt lat="43.74599" lon="6.33635">
        <ele>837</ele>
        <time>2020-07-04T21:55:26Z</time>
      </trkpt>
      <trkpt lat="43.74649" lon="6.33594">
        <ele>853</ele>
        <time>2020-07-04T21:55:36Z</time>
      </trkpt>
      <trkpt lat="43.74658" lon="6.33582">
        <ele>857</ele>
        <time>2020-07-04T21:55:38Z</time>
      </trkpt>
      <trkpt lat="43.74666" lon="6.33561">
        <ele>859</ele>
        <time>2020-07-04T21:55:42Z</time>
      </trkpt>
      <trkpt lat="43.74668" lon="6.33546">
        <ele>857</ele>
        <time>2020-07-04T21:55:43Z</time>
      </trkpt>
      <trkpt lat="43.74668" lon="6.33534">
        <ele>856</ele>
        <time>2020-07-04T21:55:45Z</time>
      </trkpt>
      <trkpt lat="43.74654" lon="6.33493">
        <ele>836</ele>
        <time>2020-07-04T21:55:51Z</time>
      </trkpt>
      <trkpt lat="43.74653" lon="6.33478">
        <ele>835</ele>
        <time>2020-07-04T21:55:53Z</time>
      </trkpt>
      <trkpt lat="43.74654" lon="6.33468">
        <ele>836</ele>
        <time>2020-07-04T21:55:54Z</time>
      </trkpt>
      <trkpt lat="43.74658" lon="6.33456">
        <ele>840</ele>
        <time>2020-07-04T21:55:56Z</time>
      </trkpt>
      <trkpt lat="43.74673" lon="6.33424">
        <ele>854</ele>
        <time>2020-07-04T21:56:01Z</time>
      </trkpt>
      <trkpt lat="43.74681" lon="6.33405">
        <ele>858</ele>
        <time>2020-07-04T21:56:04Z</time>
      </trkpt>
      <trkpt lat="43.74683" lon="6.33394">
        <ele>857</ele>
        <time>2020-07-04T21:56:05Z</time>
      </trkpt>
      <trkpt lat="43.74683" lon="6.33383">
        <ele>856</ele>
        <time>2020-07-04T21:56:06Z</time>
      </trkpt>
      <trkpt lat="43.74675" lon="6.33328">
        <ele>844</ele>
        <time>2020-07-04T21:56:14Z</time>
      </trkpt>
      <trkpt lat="43.74675" lon="6.33311">
        <ele>836</ele>
        <time>2020-07-04T21:56:16Z</time>
      </trkpt>
      <trkpt lat="43.74676" lon="6.33301">
        <ele>833</ele>
        <time>2020-07-04T21:56:17Z</time>
      </trkpt>
      <trkpt lat="43.74681" lon="6.33285">
        <ele>830</ele>
        <time>2020-07-04T21:56:19Z</time>
      </trkpt>
      <trkpt lat="43.74691" lon="6.33265">
        <ele>830</ele>
        <time>2020-07-04T21:56:22Z</time>
      </trkpt>
      <trkpt lat="43.74696" lon="6.3325">
        <ele>829</ele>
        <time>2020-07-04T21:56:25Z</time>
      </trkpt>
      <trkpt lat="43.74698" lon="6.33239">
        <ele>825</ele>
        <time>2020-07-04T21:56:26Z</time>
      </trkpt>
      <trkpt lat="43.74699" lon="6.33105">
        <ele>766</ele>
        <time>2020-07-04T21:56:43Z</time>
      </trkpt>
      <trkpt lat="43.74706" lon="6.33089">
        <ele>773</ele>
        <time>2020-07-04T21:56:46Z</time>
      </trkpt>
      <trkpt lat="43.74733" lon="6.33057">
        <ele>817</ele>
        <time>2020-07-04T21:56:52Z</time>
      </trkpt>
      <trkpt lat="43.74742" lon="6.33044">
        <ele>830</ele>
        <time>2020-07-04T21:56:54Z</time>
      </trkpt>
      <trkpt lat="43.74746" lon="6.33032">
        <ele>834</ele>
        <time>2020-07-04T21:56:56Z</time>
      </trkpt>
      <trkpt lat="43.74752" lon="6.33003">
        <ele>833</ele>
        <time>2020-07-04T21:57:00Z</time>
      </trkpt>
      <trkpt lat="43.74755" lon="6.32951">
        <ele>813</ele>
        <time>2020-07-04T21:57:07Z</time>
      </trkpt>
      <trkpt lat="43.74756" lon="6.32939">
        <ele>808</ele>
        <time>2020-07-04T21:57:08Z</time>
      </trkpt>
      <trkpt lat="43.74759" lon="6.32928">
        <ele>805</ele>
        <time>2020-07-04T21:57:10Z</time>
      </trkpt>
      <trkpt lat="43.74767" lon="6.32913">
        <ele>801</ele>
        <time>2020-07-04T21:57:12Z</time>
      </trkpt>
      <trkpt lat="43.74791" lon="6.32883">
        <ele>793</ele>
        <time>2020-07-04T21:57:18Z</time>
      </trkpt>
      <trkpt lat="43.74816" lon="6.32846">
        <ele>790</ele>
        <time>2020-07-04T21:57:24Z</time>
      </trkpt>
      <trkpt lat="43.74823" lon="6.32839">
        <ele>792</ele>
        <time>2020-07-04T21:57:26Z</time>
      </trkpt>
      <trkpt lat="43.74831" lon="6.32836">
        <ele>798</ele>
        <time>2020-07-04T21:57:27Z</time>
      </trkpt>
      <trkpt lat="43.74843" lon="6.32836">
        <ele>799</ele>
        <time>2020-07-04T21:57:29Z</time>
      </trkpt>
      <trkpt lat="43.74852" lon="6.32839">
        <ele>800</ele>
        <time>2020-07-04T21:57:31Z</time>
      </trkpt>
      <trkpt lat="43.74867" lon="6.32848">
        <ele>803</ele>
        <time>2020-07-04T21:57:34Z</time>
      </trkpt>
      <trkpt lat="43.74888" lon="6.32864">
        <ele>810</ele>
        <time>2020-07-04T21:57:38Z</time>
      </trkpt>
      <trkpt lat="43.74922" lon="6.32895">
        <ele>825</ele>
        <time>2020-07-04T21:57:46Z</time>
      </trkpt>
      <trkpt lat="43.74944" lon="6.32913">
        <ele>831</ele>
        <time>2020-07-04T21:57:50Z</time>
      </trkpt>
      <trkpt lat="43.75002" lon="6.32946">
        <ele>833</ele>
        <time>2020-07-04T21:58:01Z</time>
      </trkpt>
      <trkpt lat="43.75022" lon="6.32961">
        <ele>836</ele>
        <time>2020-07-04T21:58:05Z</time>
      </trkpt>
      <trkpt lat="43.75032" lon="6.32974">
        <ele>839</ele>
        <time>2020-07-04T21:58:08Z</time>
      </trkpt>
      <trkpt lat="43.75056" lon="6.33018">
        <ele>847</ele>
        <time>2020-07-04T21:58:15Z</time>
      </trkpt>
      <trkpt lat="43.75067" lon="6.33032">
        <ele>849</ele>
        <time>2020-07-04T21:58:17Z</time>
      </trkpt>
      <trkpt lat="43.75079" lon="6.33042">
        <ele>850</ele>
        <time>2020-07-04T21:58:20Z</time>
      </trkpt>
      <trkpt lat="43.75088" lon="6.33047">
        <ele>851</ele>
        <time>2020-07-04T21:58:22Z</time>
      </trkpt>
      <trkpt lat="43.75119" lon="6.33059">
        <ele>855</ele>
        <time>2020-07-04T21:58:27Z</time>
      </trkpt>
      <trkpt lat="43.75135" lon="6.33063">
        <ele>856</ele>
        <time>2020-07-04T21:58:30Z</time>
      </trkpt>
      <trkpt lat="43.75144" lon="6.33061">
        <ele>856</ele>
        <time>2020-07-04T21:58:32Z</time>
      </trkpt>
      <trkpt lat="43.7515" lon="6.33055">
        <ele>856</ele>
        <time>2020-07-04T21:58:33Z</time>
      </trkpt>
      <trkpt lat="43.75155" lon="6.33047">
        <ele>855</ele>
        <time>2020-07-04T21:58:35Z</time>
      </trkpt>
      <trkpt lat="43.75158" lon="6.33037">
        <ele>854</ele>
        <time>2020-07-04T21:58:36Z</time>
      </trkpt>
      <trkpt lat="43.75157" lon="6.33025">
        <ele>853</ele>
        <time>2020-07-04T21:58:38Z</time>
      </trkpt>
      <trkpt lat="43.75144" lon="6.32981">
        <ele>847</ele>
        <time>2020-07-04T21:58:44Z</time>
      </trkpt>
      <trkpt lat="43.75142" lon="6.32962">
        <ele>845</ele>
        <time>2020-07-04T21:58:46Z</time>
      </trkpt>
      <trkpt lat="43.75144" lon="6.32946">
        <ele>845</ele>
        <time>2020-07-04T21:58:48Z</time>
      </trkpt>
      <trkpt lat="43.75151" lon="6.32912">
        <ele>844</ele>
        <time>2020-07-04T21:58:53Z</time>
      </trkpt>
      <trkpt lat="43.75157" lon="6.32892">
        <ele>841</ele>
        <time>2020-07-04T21:58:56Z</time>
      </trkpt>
      <trkpt lat="43.75178" lon="6.32851">
        <ele>839</ele>
        <time>2020-07-04T21:59:02Z</time>
      </trkpt>
      <trkpt lat="43.75189" lon="6.3284">
        <ele>840</ele>
        <time>2020-07-04T21:59:04Z</time>
      </trkpt>
      <trkpt lat="43.75198" lon="6.32836">
        <ele>842</ele>
        <time>2020-07-04T21:59:06Z</time>
      </trkpt>
      <trkpt lat="43.75207" lon="6.32835">
        <ele>845</ele>
        <time>2020-07-04T21:59:08Z</time>
      </trkpt>
      <trkpt lat="43.75269" lon="6.32842">
        <ele>867</ele>
        <time>2020-07-04T21:59:19Z</time>
      </trkpt>
      <trkpt lat="43.753" lon="6.32841">
        <ele>874</ele>
        <time>2020-07-04T21:59:24Z</time>
      </trkpt>
      <trkpt lat="43.75311" lon="6.32839">
        <ele>876</ele>
        <time>2020-07-04T21:59:26Z</time>
      </trkpt>
      <trkpt lat="43.75319" lon="6.32835">
        <ele>876</ele>
        <time>2020-07-04T21:59:28Z</time>
      </trkpt>
      <trkpt lat="43.75324" lon="6.32829">
        <ele>875</ele>
        <time>2020-07-04T21:59:29Z</time>
      </trkpt>
      <trkpt lat="43.75329" lon="6.32817">
        <ele>872</ele>
        <time>2020-07-04T21:59:31Z</time>
      </trkpt>
      <trkpt lat="43.75332" lon="6.32802">
        <ele>868</ele>
        <time>2020-07-04T21:59:33Z</time>
      </trkpt>
      <trkpt lat="43.75337" lon="6.32743">
        <ele>852</ele>
        <time>2020-07-04T21:59:40Z</time>
      </trkpt>
      <trkpt lat="43.75342" lon="6.32714">
        <ele>847</ele>
        <time>2020-07-04T21:59:44Z</time>
      </trkpt>
      <trkpt lat="43.75348" lon="6.32697">
        <ele>845</ele>
        <time>2020-07-04T21:59:47Z</time>
      </trkpt>
      <trkpt lat="43.75353" lon="6.32689">
        <ele>846</ele>
        <time>2020-07-04T21:59:48Z</time>
      </trkpt>
      <trkpt lat="43.75363" lon="6.32682">
        <ele>849</ele>
        <time>2020-07-04T21:59:50Z</time>
      </trkpt>
      <trkpt lat="43.75402" lon="6.32676">
        <ele>868</ele>
        <time>2020-07-04T21:59:57Z</time>
      </trkpt>
      <trkpt lat="43.75408" lon="6.32673">
        <ele>870</ele>
        <time>2020-07-04T21:59:58Z</time>
      </trkpt>
      <trkpt lat="43.75413" lon="6.32666">
        <ele>870</ele>
        <time>2020-07-04T21:59:59Z</time>
      </trkpt>
      <trkpt lat="43.75417" lon="6.32658">
        <ele>869</ele>
        <time>2020-07-04T22:00:01Z</time>
      </trkpt>
      <trkpt lat="43.75421" lon="6.32643">
        <ele>865</ele>
        <time>2020-07-04T22:00:03Z</time>
      </trkpt>
      <trkpt lat="43.7542" lon="6.32604">
        <ele>850</ele>
        <time>2020-07-04T22:00:08Z</time>
      </trkpt>
      <trkpt lat="43.75422" lon="6.3259">
        <ele>845</ele>
        <time>2020-07-04T22:00:10Z</time>
      </trkpt>
      <trkpt lat="43.75426" lon="6.32582">
        <ele>843</ele>
        <time>2020-07-04T22:00:11Z</time>
      </trkpt>
      <trkpt lat="43.75443" lon="6.32568">
        <ele>842</ele>
        <time>2020-07-04T22:00:14Z</time>
      </trkpt>
      <trkpt lat="43.75505" lon="6.32544">
        <ele>851</ele>
        <time>2020-07-04T22:00:26Z</time>
      </trkpt>
      <trkpt lat="43.75516" lon="6.32534">
        <ele>850</ele>
        <time>2020-07-04T22:00:28Z</time>
      </trkpt>
      <trkpt lat="43.75552" lon="6.3249">
        <ele>844</ele>
        <time>2020-07-04T22:00:37Z</time>
      </trkpt>
      <trkpt lat="43.75574" lon="6.32465">
        <ele>843</ele>
        <time>2020-07-04T22:00:42Z</time>
      </trkpt>
      <trkpt lat="43.756" lon="6.32436">
        <ele>846</ele>
        <time>2020-07-04T22:00:48Z</time>
      </trkpt>
      <trkpt lat="43.75605" lon="6.32426">
        <ele>845</ele>
        <time>2020-07-04T22:00:49Z</time>
      </trkpt>
      <trkpt lat="43.75608" lon="6.32414">
        <ele>843</ele>
        <time>2020-07-04T22:00:51Z</time>
      </trkpt>
      <trkpt lat="43.75607" lon="6.32395">
        <ele>841</ele>
        <time>2020-07-04T22:00:53Z</time>
      </trkpt>
      <trkpt lat="43.75603" lon="6.3236">
        <ele>837</ele>
        <time>2020-07-04T22:00:58Z</time>
      </trkpt>
      <trkpt lat="43.75605" lon="6.32336">
        <ele>837</ele>
        <time>2020-07-04T22:01:01Z</time>
      </trkpt>
      <trkpt lat="43.7561" lon="6.32297">
        <ele>836</ele>
        <time>2020-07-04T22:01:06Z</time>
      </trkpt>
      <trkpt lat="43.75609" lon="6.32277">
        <ele>834</ele>
        <time>2020-07-04T22:01:09Z</time>
      </trkpt>
      <trkpt lat="43.75604" lon="6.32219">
        <ele>828</ele>
        <time>2020-07-04T22:01:16Z</time>
      </trkpt>
      <trkpt lat="43.75609" lon="6.32144">
        <ele>827</ele>
        <time>2020-07-04T22:01:26Z</time>
      </trkpt>
      <trkpt lat="43.75609" lon="6.32126">
        <ele>828</ele>
        <time>2020-07-04T22:01:28Z</time>
      </trkpt>
      <trkpt lat="43.75602" lon="6.32086">
        <ele>829</ele>
        <time>2020-07-04T22:01:33Z</time>
      </trkpt>
      <trkpt lat="43.75595" lon="6.32064">
        <ele>829</ele>
        <time>2020-07-04T22:01:36Z</time>
      </trkpt>
      <trkpt lat="43.75591" lon="6.32045">
        <ele>829</ele>
        <time>2020-07-04T22:01:39Z</time>
      </trkpt>
      <trkpt lat="43.75594" lon="6.32034">
        <ele>829</ele>
        <time>2020-07-04T22:01:41Z</time>
      </trkpt>
      <trkpt lat="43.75599" lon="6.32029">
        <ele>828</ele>
        <time>2020-07-04T22:01:42Z</time>
      </trkpt>
      <trkpt lat="43.75605" lon="6.32027">
        <ele>826</ele>
        <time>2020-07-04T22:01:43Z</time>
      </trkpt>
      <trkpt lat="43.75612" lon="6.32029">
        <ele>825</ele>
        <time>2020-07-04T22:01:44Z</time>
      </trkpt>
      <trkpt lat="43.75636" lon="6.32047">
        <ele>824</ele>
        <time>2020-07-04T22:01:49Z</time>
      </trkpt>
      <trkpt lat="43.75648" lon="6.32053">
        <ele>824</ele>
        <time>2020-07-04T22:01:51Z</time>
      </trkpt>
      <trkpt lat="43.75681" lon="6.3206">
        <ele>823</ele>
        <time>2020-07-04T22:01:57Z</time>
      </trkpt>
      <trkpt lat="43.75703" lon="6.3207">
        <ele>824</ele>
        <time>2020-07-04T22:02:01Z</time>
      </trkpt>
      <trkpt lat="43.75719" lon="6.32074">
        <ele>824</ele>
        <time>2020-07-04T22:02:04Z</time>
      </trkpt>
      <trkpt lat="43.75735" lon="6.32072">
        <ele>822</ele>
        <time>2020-07-04T22:02:07Z</time>
      </trkpt>
      <trkpt lat="43.75754" lon="6.32064">
        <ele>818</ele>
        <time>2020-07-04T22:02:10Z</time>
      </trkpt>
      <trkpt lat="43.75768" lon="6.32052">
        <ele>816</ele>
        <time>2020-07-04T22:02:13Z</time>
      </trkpt>
      <trkpt lat="43.75782" lon="6.32034">
        <ele>812</ele>
        <time>2020-07-04T22:02:17Z</time>
      </trkpt>
      <trkpt lat="43.75806" lon="6.31995">
        <ele>799</ele>
        <time>2020-07-04T22:02:23Z</time>
      </trkpt>
      <trkpt lat="43.75815" lon="6.31985">
        <ele>792</ele>
        <time>2020-07-04T22:02:25Z</time>
      </trkpt>
      <trkpt lat="43.75854" lon="6.31949">
        <ele>774</ele>
        <time>2020-07-04T22:02:34Z</time>
      </trkpt>
      <trkpt lat="43.75863" lon="6.31946">
        <ele>775</ele>
        <time>2020-07-04T22:02:35Z</time>
      </trkpt>
      <trkpt lat="43.75875" lon="6.31946">
        <ele>778</ele>
        <time>2020-07-04T22:02:38Z</time>
      </trkpt>
      <trkpt lat="43.75888" lon="6.31952">
        <ele>786</ele>
        <time>2020-07-04T22:02:40Z</time>
      </trkpt>
      <trkpt lat="43.75918" lon="6.31974">
        <ele>806</ele>
        <time>2020-07-04T22:02:46Z</time>
      </trkpt>
      <trkpt lat="43.7593" lon="6.31976">
        <ele>810</ele>
        <time>2020-07-04T22:02:48Z</time>
      </trkpt>
      <trkpt lat="43.75938" lon="6.31974">
        <ele>812</ele>
        <time>2020-07-04T22:02:50Z</time>
      </trkpt>
      <trkpt lat="43.75947" lon="6.31967">
        <ele>812</ele>
        <time>2020-07-04T22:02:51Z</time>
      </trkpt>
      <trkpt lat="43.75959" lon="6.31955">
        <ele>812</ele>
        <time>2020-07-04T22:02:54Z</time>
      </trkpt>
      <trkpt lat="43.75985" lon="6.31919">
        <ele>810</ele>
        <time>2020-07-04T22:03:01Z</time>
      </trkpt>
      <trkpt lat="43.75991" lon="6.31906">
        <ele>810</ele>
        <time>2020-07-04T22:03:03Z</time>
      </trkpt>
      <trkpt lat="43.75994" lon="6.31892">
        <ele>809</ele>
        <time>2020-07-04T22:03:05Z</time>
      </trkpt>
      <trkpt lat="43.75993" lon="6.31858">
        <ele>803</ele>
        <time>2020-07-04T22:03:09Z</time>
      </trkpt>
      <trkpt lat="43.75987" lon="6.31828">
        <ele>795</ele>
        <time>2020-07-04T22:03:13Z</time>
      </trkpt>
      <trkpt lat="43.75966" lon="6.31748">
        <ele>782</ele>
        <time>2020-07-04T22:03:24Z</time>
      </trkpt>
      <trkpt lat="43.75964" lon="6.31733">
        <ele>780</ele>
        <time>2020-07-04T22:03:26Z</time>
      </trkpt>
      <trkpt lat="43.75965" lon="6.31711">
        <ele>780</ele>
        <time>2020-07-04T22:03:29Z</time>
      </trkpt>
      <trkpt lat="43.75969" lon="6.31692">
        <ele>782</ele>
        <time>2020-07-04T22:03:31Z</time>
      </trkpt>
      <trkpt lat="43.76024" lon="6.31603">
        <ele>800</ele>
        <time>2020-07-04T22:03:46Z</time>
      </trkpt>
      <trkpt lat="43.76035" lon="6.31594">
        <ele>798</ele>
        <time>2020-07-04T22:03:48Z</time>
      </trkpt>
      <trkpt lat="43.7604" lon="6.31592">
        <ele>798</ele>
        <time>2020-07-04T22:03:49Z</time>
      </trkpt>
      <trkpt lat="43.76052" lon="6.31594">
        <ele>798</ele>
        <time>2020-07-04T22:03:52Z</time>
      </trkpt>
      <trkpt lat="43.76067" lon="6.31602">
        <ele>800</ele>
        <time>2020-07-04T22:03:54Z</time>
      </trkpt>
      <trkpt lat="43.7611" lon="6.31635">
        <ele>805</ele>
        <time>2020-07-04T22:04:03Z</time>
      </trkpt>
      <trkpt lat="43.76149" lon="6.31671">
        <ele>815</ele>
        <time>2020-07-04T22:04:12Z</time>
      </trkpt>
      <trkpt lat="43.76157" lon="6.31675">
        <ele>817</ele>
        <time>2020-07-04T22:04:13Z</time>
      </trkpt>
      <trkpt lat="43.76186" lon="6.3168">
        <ele>818</ele>
        <time>2020-07-04T22:04:18Z</time>
      </trkpt>
      <trkpt lat="43.76198" lon="6.3168">
        <ele>817</ele>
        <time>2020-07-04T22:04:20Z</time>
      </trkpt>
      <trkpt lat="43.7621" lon="6.31676">
        <ele>815</ele>
        <time>2020-07-04T22:04:23Z</time>
      </trkpt>
      <trkpt lat="43.76234" lon="6.31655">
        <ele>802</ele>
        <time>2020-07-04T22:04:28Z</time>
      </trkpt>
      <trkpt lat="43.76247" lon="6.31647">
        <ele>798</ele>
        <time>2020-07-04T22:04:30Z</time>
      </trkpt>
      <trkpt lat="43.76256" lon="6.31649">
        <ele>797</ele>
        <time>2020-07-04T22:04:32Z</time>
      </trkpt>
      <trkpt lat="43.76263" lon="6.31653">
        <ele>796</ele>
        <time>2020-07-04T22:04:33Z</time>
      </trkpt>
      <trkpt lat="43.76269" lon="6.31659">
        <ele>797</ele>
        <time>2020-07-04T22:04:34Z</time>
      </trkpt>
      <trkpt lat="43.76275" lon="6.31669">
        <ele>800</ele>
        <time>2020-07-04T22:04:36Z</time>
      </trkpt>
      <trkpt lat="43.7628" lon="6.31681">
        <ele>804</ele>
        <time>2020-07-04T22:04:38Z</time>
      </trkpt>
      <trkpt lat="43.76292" lon="6.31722">
        <ele>819</ele>
        <time>2020-07-04T22:04:44Z</time>
      </trkpt>
      <trkpt lat="43.76297" lon="6.31732">
        <ele>822</ele>
        <time>2020-07-04T22:04:45Z</time>
      </trkpt>
      <trkpt lat="43.76305" lon="6.31743">
        <ele>823</ele>
        <time>2020-07-04T22:04:47Z</time>
      </trkpt>
      <trkpt lat="43.76318" lon="6.31754">
        <ele>822</ele>
        <time>2020-07-04T22:04:50Z</time>
      </trkpt>
      <trkpt lat="43.76365" lon="6.31775">
        <ele>815</ele>
        <time>2020-07-04T22:04:59Z</time>
      </trkpt>
      <trkpt lat="43.76375" lon="6.31784">
        <ele>816</ele>
        <time>2020-07-04T22:05:01Z</time>
      </trkpt>
      <trkpt lat="43.764" lon="6.31811">
        <ele>819</ele>
        <time>2020-07-04T22:05:06Z</time>
      </trkpt>
      <trkpt lat="43.76415" lon="6.3184">
        <ele>824</ele>
        <time>2020-07-04T22:05:11Z</time>
      </trkpt>
      <trkpt lat="43.76429" lon="6.31874">
        <ele>827</ele>
        <time>2020-07-04T22:05:16Z</time>
      </trkpt>
      <trkpt lat="43.76443" lon="6.31894">
        <ele>827</ele>
        <time>2020-07-04T22:05:20Z</time>
      </trkpt>
      <trkpt lat="43.7646" lon="6.3191">
        <ele>823</ele>
        <time>2020-07-04T22:05:23Z</time>
      </trkpt>
      <trkpt lat="43.76475" lon="6.31929">
        <ele>821</ele>
        <time>2020-07-04T22:05:27Z</time>
      </trkpt>
      <trkpt lat="43.76492" lon="6.31964">
        <ele>821</ele>
        <time>2020-07-04T22:05:32Z</time>
      </trkpt>
      <trkpt lat="43.76502" lon="6.32007">
        <ele>827</ele>
        <time>2020-07-04T22:05:38Z</time>
      </trkpt>
      <trkpt lat="43.7651" lon="6.32023">
        <ele>828</ele>
        <time>2020-07-04T22:05:41Z</time>
      </trkpt>
      <trkpt lat="43.76606" lon="6.32169">
        <ele>830</ele>
        <time>2020-07-04T22:06:06Z</time>
      </trkpt>
      <trkpt lat="43.76619" lon="6.32203">
        <ele>833</ele>
        <time>2020-07-04T22:06:11Z</time>
      </trkpt>
      <trkpt lat="43.76624" lon="6.32221">
        <ele>834</ele>
        <time>2020-07-04T22:06:13Z</time>
      </trkpt>
      <trkpt lat="43.76667" lon="6.32344">
        <ele>838</ele>
        <time>2020-07-04T22:06:31Z</time>
      </trkpt>
      <trkpt lat="43.76688" lon="6.32384">
        <ele>845</ele>
        <time>2020-07-04T22:06:37Z</time>
      </trkpt>
      <trkpt lat="43.76719" lon="6.32433">
        <ele>846</ele>
        <time>2020-07-04T22:06:46Z</time>
      </trkpt>
      <trkpt lat="43.76727" lon="6.3246">
        <ele>847</ele>
        <time>2020-07-04T22:06:49Z</time>
      </trkpt>
      <trkpt lat="43.76729" lon="6.32474">
        <ele>848</ele>
        <time>2020-07-04T22:06:51Z</time>
      </trkpt>
      <trkpt lat="43.76734" lon="6.32491">
        <ele>848</ele>
        <time>2020-07-04T22:06:54Z</time>
      </trkpt>
      <trkpt lat="43.76741" lon="6.32505">
        <ele>846</ele>
        <time>2020-07-04T22:06:56Z</time>
      </trkpt>
      <trkpt lat="43.76752" lon="6.3252">
        <ele>844</ele>
        <time>2020-07-04T22:06:59Z</time>
      </trkpt>
      <trkpt lat="43.76762" lon="6.32546">
        <ele>847</ele>
        <time>2020-07-04T22:07:02Z</time>
      </trkpt>
      <trkpt lat="43.76767" lon="6.32573">
        <ele>850</ele>
        <time>2020-07-04T22:07:06Z</time>
      </trkpt>
      <trkpt lat="43.76767" lon="6.32652">
        <ele>858</ele>
        <time>2020-07-04T22:07:16Z</time>
      </trkpt>
      <trkpt lat="43.76771" lon="6.32673">
        <ele>859</ele>
        <time>2020-07-04T22:07:19Z</time>
      </trkpt>
      <trkpt lat="43.76778" lon="6.32692">
        <ele>859</ele>
        <time>2020-07-04T22:07:22Z</time>
      </trkpt>
      <trkpt lat="43.7679" lon="6.32709">
        <ele>857</ele>
        <time>2020-07-04T22:07:25Z</time>
      </trkpt>
      <trkpt lat="43.76794" lon="6.32725">
        <ele>856</ele>
        <time>2020-07-04T22:07:27Z</time>
      </trkpt>
      <trkpt lat="43.76791" lon="6.3274">
        <ele>857</ele>
        <time>2020-07-04T22:07:29Z</time>
      </trkpt>
      <trkpt lat="43.76788" lon="6.3275">
        <ele>858</ele>
        <time>2020-07-04T22:07:30Z</time>
      </trkpt>
      <trkpt lat="43.76773" lon="6.32779">
        <ele>861</ele>
        <time>2020-07-04T22:07:35Z</time>
      </trkpt>
      <trkpt lat="43.76771" lon="6.32788">
        <ele>862</ele>
        <time>2020-07-04T22:07:36Z</time>
      </trkpt>
      <trkpt lat="43.76772" lon="6.32797">
        <ele>862</ele>
        <time>2020-07-04T22:07:37Z</time>
      </trkpt>
      <trkpt lat="43.76775" lon="6.32804">
        <ele>861</ele>
        <time>2020-07-04T22:07:38Z</time>
      </trkpt>
      <trkpt lat="43.76782" lon="6.3281">
        <ele>861</ele>
        <time>2020-07-04T22:07:40Z</time>
      </trkpt>
      <trkpt lat="43.76794" lon="6.32812">
        <ele>859</ele>
        <time>2020-07-04T22:07:42Z</time>
      </trkpt>
      <trkpt lat="43.76801" lon="6.32807">
        <ele>858</ele>
        <time>2020-07-04T22:07:43Z</time>
      </trkpt>
      <trkpt lat="43.7681" lon="6.32794">
        <ele>857</ele>
        <time>2020-07-04T22:07:46Z</time>
      </trkpt>
      <trkpt lat="43.76823" lon="6.32755">
        <ele>852</ele>
        <time>2020-07-04T22:07:51Z</time>
      </trkpt>
      <trkpt lat="43.76828" lon="6.32744">
        <ele>851</ele>
        <time>2020-07-04T22:07:53Z</time>
      </trkpt>
      <trkpt lat="43.76831" lon="6.32741">
        <ele>850</ele>
        <time>2020-07-04T22:07:53Z</time>
      </trkpt>
      <trkpt lat="43.76836" lon="6.3274">
        <ele>851</ele>
        <time>2020-07-04T22:07:54Z</time>
      </trkpt>
      <trkpt lat="43.76843" lon="6.32749">
        <ele>853</ele>
        <time>2020-07-04T22:07:56Z</time>
      </trkpt>
      <trkpt lat="43.76844" lon="6.32757">
        <ele>854</ele>
        <time>2020-07-04T22:07:57Z</time>
      </trkpt>
      <trkpt lat="43.76844" lon="6.32771">
        <ele>855</ele>
        <time>2020-07-04T22:07:59Z</time>
      </trkpt>
      <trkpt lat="43.76826" lon="6.32814">
        <ele>856</ele>
        <time>2020-07-04T22:08:05Z</time>
      </trkpt>
      <trkpt lat="43.76816" lon="6.32852">
        <ele>860</ele>
        <time>2020-07-04T22:08:10Z</time>
      </trkpt>
      <trkpt lat="43.76806" lon="6.32891">
        <ele>862</ele>
        <time>2020-07-04T22:08:16Z</time>
      </trkpt>
      <trkpt lat="43.76806" lon="6.32909">
        <ele>863</ele>
        <time>2020-07-04T22:08:18Z</time>
      </trkpt>
      <trkpt lat="43.76808" lon="6.3293">
        <ele>864</ele>
        <time>2020-07-04T22:08:21Z</time>
      </trkpt>
      <trkpt lat="43.76822" lon="6.32987">
        <ele>866</ele>
        <time>2020-07-04T22:08:29Z</time>
      </trkpt>
      <trkpt lat="43.76829" lon="6.32995">
        <ele>865</ele>
        <time>2020-07-04T22:08:30Z</time>
      </trkpt>
      <trkpt lat="43.76857" lon="6.33013">
        <ele>868</ele>
        <time>2020-07-04T22:08:36Z</time>
      </trkpt>
      <trkpt lat="43.76875" lon="6.33038">
        <ele>871</ele>
        <time>2020-07-04T22:08:40Z</time>
      </trkpt>
      <trkpt lat="43.76884" lon="6.33045">
        <ele>872</ele>
        <time>2020-07-04T22:08:42Z</time>
      </trkpt>
      <trkpt lat="43.76923" lon="6.33062">
        <ele>874</ele>
        <time>2020-07-04T22:08:49Z</time>
      </trkpt>
      <trkpt lat="43.76938" lon="6.3307">
        <ele>875</ele>
        <time>2020-07-04T22:08:52Z</time>
      </trkpt>
      <trkpt lat="43.76944" lon="6.33073">
        <ele>876</ele>
        <time>2020-07-04T22:08:53Z</time>
      </trkpt>
      <trkpt lat="43.76965" lon="6.33093">
        <ele>878</ele>
        <time>2020-07-04T22:08:58Z</time>
      </trkpt>
      <trkpt lat="43.77019" lon="6.33164">
        <ele>880</ele>
        <time>2020-07-04T22:09:11Z</time>
      </trkpt>
      <trkpt lat="43.77051" lon="6.33215">
        <ele>885</ele>
        <time>2020-07-04T22:09:20Z</time>
      </trkpt>
      <trkpt lat="43.77076" lon="6.3326">
        <ele>886</ele>
        <time>2020-07-04T22:09:27Z</time>
      </trkpt>
      <trkpt lat="43.77107" lon="6.33308">
        <ele>888</ele>
        <time>2020-07-04T22:09:35Z</time>
      </trkpt>
      <trkpt lat="43.77123" lon="6.3334">
        <ele>888</ele>
        <time>2020-07-04T22:09:40Z</time>
      </trkpt>
      <trkpt lat="43.77135" lon="6.33374">
        <ele>889</ele>
        <time>2020-07-04T22:09:45Z</time>
      </trkpt>
      <trkpt lat="43.77142" lon="6.33433">
        <ele>888</ele>
        <time>2020-07-04T22:09:53Z</time>
      </trkpt>
      <trkpt lat="43.77151" lon="6.33448">
        <ele>888</ele>
        <time>2020-07-04T22:09:55Z</time>
      </trkpt>
      <trkpt lat="43.77164" lon="6.33457">
        <ele>888</ele>
        <time>2020-07-04T22:09:58Z</time>
      </trkpt>
      <trkpt lat="43.77186" lon="6.33466">
        <ele>892</ele>
        <time>2020-07-04T22:10:02Z</time>
      </trkpt>
      <trkpt lat="43.77192" lon="6.3347">
        <ele>893</ele>
        <time>2020-07-04T22:10:03Z</time>
      </trkpt>
      <trkpt lat="43.772" lon="6.33478">
        <ele>894</ele>
        <time>2020-07-04T22:10:05Z</time>
      </trkpt>
      <trkpt lat="43.77212" lon="6.33503">
        <ele>895</ele>
        <time>2020-07-04T22:10:09Z</time>
      </trkpt>
      <trkpt lat="43.7723" lon="6.33574">
        <ele>893</ele>
        <time>2020-07-04T22:10:18Z</time>
      </trkpt>
      <trkpt lat="43.7724" lon="6.33598">
        <ele>894</ele>
        <time>2020-07-04T22:10:22Z</time>
      </trkpt>
      <trkpt lat="43.77247" lon="6.33604">
        <ele>894</ele>
        <time>2020-07-04T22:10:23Z</time>
      </trkpt>
      <trkpt lat="43.77264" lon="6.33606">
        <ele>896</ele>
        <time>2020-07-04T22:10:27Z</time>
      </trkpt>
      <trkpt lat="43.77269" lon="6.33604">
        <ele>897</ele>
        <time>2020-07-04T22:10:27Z</time>
      </trkpt>
      <trkpt lat="43.77291" lon="6.33586">
        <ele>900</ele>
        <time>2020-07-04T22:10:32Z</time>
      </trkpt>
      <trkpt lat="43.773" lon="6.33584">
        <ele>902</ele>
        <time>2020-07-04T22:10:34Z</time>
      </trkpt>
      <trkpt lat="43.77304" lon="6.33585">
        <ele>902</ele>
        <time>2020-07-04T22:10:34Z</time>
      </trkpt>
      <trkpt lat="43.77311" lon="6.33588">
        <ele>903</ele>
        <time>2020-07-04T22:10:36Z</time>
      </trkpt>
      <trkpt lat="43.77318" lon="6.33595">
        <ele>904</ele>
        <time>2020-07-04T22:10:37Z</time>
      </trkpt>
      <trkpt lat="43.77345" lon="6.33643">
        <ele>906</ele>
        <time>2020-07-04T22:10:45Z</time>
      </trkpt>
      <trkpt lat="43.77353" lon="6.33656">
        <ele>907</ele>
        <time>2020-07-04T22:10:47Z</time>
      </trkpt>
      <trkpt lat="43.7736" lon="6.33663">
        <ele>907</ele>
        <time>2020-07-04T22:10:49Z</time>
      </trkpt>
      <trkpt lat="43.77372" lon="6.33672">
        <ele>909</ele>
        <time>2020-07-04T22:10:51Z</time>
      </trkpt>
      <trkpt lat="43.77471" lon="6.33717">
        <ele>920</ele>
        <time>2020-07-04T22:11:10Z</time>
      </trkpt>
      <trkpt lat="43.7748" lon="6.33722">
        <ele>920</ele>
        <time>2020-07-04T22:11:11Z</time>
      </trkpt>
      <trkpt lat="43.77487" lon="6.33727">
        <ele>921</ele>
        <time>2020-07-04T22:11:13Z</time>
      </trkpt>
      <trkpt lat="43.77495" lon="6.33741">
        <ele>921</ele>
        <time>2020-07-04T22:11:15Z</time>
      </trkpt>
      <trkpt lat="43.77497" lon="6.3375">
        <ele>921</ele>
        <time>2020-07-04T22:11:16Z</time>
      </trkpt>
      <trkpt lat="43.77496" lon="6.33768">
        <ele>922</ele>
        <time>2020-07-04T22:11:19Z</time>
      </trkpt>
      <trkpt lat="43.77493" lon="6.33776">
        <ele>922</ele>
        <time>2020-07-04T22:11:20Z</time>
      </trkpt>
      <trkpt lat="43.77469" lon="6.33822">
        <ele>920</ele>
        <time>2020-07-04T22:11:27Z</time>
      </trkpt>
      <trkpt lat="43.77463" lon="6.33837">
        <ele>920</ele>
        <time>2020-07-04T22:11:29Z</time>
      </trkpt>
      <trkpt lat="43.77458" lon="6.33853">
        <ele>920</ele>
        <time>2020-07-04T22:11:32Z</time>
      </trkpt>
      <trkpt lat="43.77468" lon="6.33844">
        <ele>921</ele>
        <time>2020-07-04T22:11:34Z</time>
      </trkpt>
      <trkpt lat="43.7748" lon="6.33818">
        <ele>922</ele>
        <time>2020-07-04T22:11:38Z</time>
      </trkpt>
      <trkpt lat="43.77505" lon="6.33772">
        <ele>923</ele>
        <time>2020-07-04T22:11:45Z</time>
      </trkpt>
      <trkpt lat="43.7751" lon="6.33748">
        <ele>922</ele>
        <time>2020-07-04T22:11:48Z</time>
      </trkpt>
      <trkpt lat="43.77514" lon="6.3374">
        <ele>923</ele>
        <time>2020-07-04T22:11:49Z</time>
      </trkpt>
      <trkpt lat="43.77521" lon="6.33734">
        <ele>925</ele>
        <time>2020-07-04T22:11:51Z</time>
      </trkpt>
      <trkpt lat="43.7754" lon="6.33725">
        <ele>927</ele>
        <time>2020-07-04T22:11:55Z</time>
      </trkpt>
      <trkpt lat="43.77545" lon="6.33726">
        <ele>928</ele>
        <time>2020-07-04T22:11:55Z</time>
      </trkpt>
      <trkpt lat="43.77589" lon="6.33755">
        <ele>930</ele>
        <time>2020-07-04T22:12:04Z</time>
      </trkpt>
      <trkpt lat="43.77677" lon="6.33791">
        <ele>937</ele>
        <time>2020-07-04T22:12:20Z</time>
      </trkpt>
      <trkpt lat="43.77731" lon="6.33819">
        <ele>940</ele>
        <time>2020-07-04T22:12:31Z</time>
      </trkpt>
      <trkpt lat="43.7774" lon="6.33823">
        <ele>941</ele>
        <time>2020-07-04T22:12:32Z</time>
      </trkpt>
      <trkpt lat="43.77767" lon="6.33851">
        <ele>940</ele>
        <time>2020-07-04T22:12:38Z</time>
      </trkpt>
      <trkpt lat="43.77795" lon="6.33862">
        <ele>940</ele>
        <time>2020-07-04T22:12:44Z</time>
      </trkpt>
      <trkpt lat="43.77841" lon="6.33875">
        <ele>941</ele>
        <time>2020-07-04T22:12:52Z</time>
      </trkpt>
      <trkpt lat="43.77895" lon="6.33877">
        <ele>942</ele>
        <time>2020-07-04T22:13:02Z</time>
      </trkpt>
      <trkpt lat="43.77886" lon="6.33861">
        <ele>943</ele>
        <time>2020-07-04T22:13:04Z</time>
      </trkpt>
      <trkpt lat="43.7782" lon="6.33736">
        <ele>949</ele>
        <time>2020-07-04T22:13:24Z</time>
      </trkpt>
      <trkpt lat="43.77812" lon="6.33722">
        <ele>951</ele>
        <time>2020-07-04T22:13:26Z</time>
      </trkpt>
      <trkpt lat="43.77804" lon="6.33707">
        <ele>952</ele>
        <time>2020-07-04T22:13:29Z</time>
      </trkpt>
      <trkpt lat="43.7777" lon="6.3364">
        <ele>958</ele>
        <time>2020-07-04T22:13:39Z</time>
      </trkpt>
      <trkpt lat="43.77755" lon="6.33591">
        <ele>962</ele>
        <time>2020-07-04T22:13:46Z</time>
      </trkpt>
      <trkpt lat="43.77746" lon="6.3357">
        <ele>965</ele>
        <time>2020-07-04T22:13:49Z</time>
      </trkpt>
      <trkpt lat="43.77713" lon="6.33521">
        <ele>969</ele>
        <time>2020-07-04T22:13:58Z</time>
      </trkpt>
      <trkpt lat="43.77657" lon="6.33404">
        <ele>974</ele>
        <time>2020-07-04T22:14:16Z</time>
      </trkpt>
      <trkpt lat="43.7764" lon="6.3338">
        <ele>975</ele>
        <time>2020-07-04T22:14:20Z</time>
      </trkpt>
      <trkpt lat="43.77624" lon="6.33362">
        <ele>975</ele>
        <time>2020-07-04T22:14:24Z</time>
      </trkpt>
      <trkpt lat="43.77614" lon="6.33355">
        <ele>975</ele>
        <time>2020-07-04T22:14:26Z</time>
      </trkpt>
      <trkpt lat="43.77573" lon="6.33334">
        <ele>973</ele>
        <time>2020-07-04T22:14:34Z</time>
      </trkpt>
      <trkpt lat="43.77556" lon="6.33323">
        <ele>975</ele>
        <time>2020-07-04T22:14:37Z</time>
      </trkpt>
      <trkpt lat="43.77539" lon="6.33304">
        <ele>977</ele>
        <time>2020-07-04T22:14:41Z</time>
      </trkpt>
      <trkpt lat="43.77472" lon="6.33219">
        <ele>983</ele>
        <time>2020-07-04T22:14:57Z</time>
      </trkpt>
      <trkpt lat="43.77454" lon="6.33203">
        <ele>984</ele>
        <time>2020-07-04T22:15:01Z</time>
      </trkpt>
      <trkpt lat="43.77435" lon="6.33193">
        <ele>984</ele>
        <time>2020-07-04T22:15:04Z</time>
      </trkpt>
      <trkpt lat="43.77369" lon="6.33175">
        <ele>978</ele>
        <time>2020-07-04T22:15:16Z</time>
      </trkpt>
      <trkpt lat="43.77357" lon="6.33165">
        <ele>978</ele>
        <time>2020-07-04T22:15:19Z</time>
      </trkpt>
      <trkpt lat="43.77344" lon="6.33144">
        <ele>979</ele>
        <time>2020-07-04T22:15:22Z</time>
      </trkpt>
      <trkpt lat="43.77302" lon="6.33028">
        <ele>983</ele>
        <time>2020-07-04T22:15:39Z</time>
      </trkpt>
      <trkpt lat="43.77291" lon="6.32988">
        <ele>983</ele>
        <time>2020-07-04T22:15:45Z</time>
      </trkpt>
      <trkpt lat="43.77288" lon="6.3297">
        <ele>983</ele>
        <time>2020-07-04T22:15:47Z</time>
      </trkpt>
      <trkpt lat="43.77286" lon="6.32937">
        <ele>985</ele>
        <time>2020-07-04T22:15:51Z</time>
      </trkpt>
      <trkpt lat="43.77286" lon="6.32901">
        <ele>987</ele>
        <time>2020-07-04T22:15:56Z</time>
      </trkpt>
      <trkpt lat="43.77303" lon="6.32805">
        <ele>997</ele>
        <time>2020-07-04T22:16:09Z</time>
      </trkpt>
      <trkpt lat="43.77304" lon="6.32765">
        <ele>998</ele>
        <time>2020-07-04T22:16:14Z</time>
      </trkpt>
      <trkpt lat="43.773" lon="6.32721">
        <ele>1001</ele>
        <time>2020-07-04T22:16:19Z</time>
      </trkpt>
      <trkpt lat="43.77272" lon="6.32652">
        <ele>1000</ele>
        <time>2020-07-04T22:16:30Z</time>
      </trkpt>
      <trkpt lat="43.77268" lon="6.32634">
        <ele>1000</ele>
        <time>2020-07-04T22:16:32Z</time>
      </trkpt>
      <trkpt lat="43.77268" lon="6.32612">
        <ele>1001</ele>
        <time>2020-07-04T22:16:35Z</time>
      </trkpt>
      <trkpt lat="43.77269" lon="6.32598">
        <ele>1003</ele>
        <time>2020-07-04T22:16:37Z</time>
      </trkpt>
      <trkpt lat="43.77278" lon="6.32543">
        <ele>1009</ele>
        <time>2020-07-04T22:16:44Z</time>
      </trkpt>
      <trkpt lat="43.77276" lon="6.32527">
        <ele>1009</ele>
        <time>2020-07-04T22:16:46Z</time>
      </trkpt>
      <trkpt lat="43.7727" lon="6.32513">
        <ele>1007</ele>
        <time>2020-07-04T22:16:48Z</time>
      </trkpt>
      <trkpt lat="43.77219" lon="6.32446">
        <ele>1011</ele>
        <time>2020-07-04T22:17:01Z</time>
      </trkpt>
      <trkpt lat="43.77203" lon="6.32429">
        <ele>1012</ele>
        <time>2020-07-04T22:17:04Z</time>
      </trkpt>
      <trkpt lat="43.77169" lon="6.32408">
        <ele>1011</ele>
        <time>2020-07-04T22:17:11Z</time>
      </trkpt>
      <trkpt lat="43.77131" lon="6.32356">
        <ele>1015</ele>
        <time>2020-07-04T22:17:20Z</time>
      </trkpt>
      <trkpt lat="43.77093" lon="6.32319">
        <ele>1013</ele>
        <time>2020-07-04T22:17:29Z</time>
      </trkpt>
      <trkpt lat="43.77085" lon="6.32309">
        <ele>1013</ele>
        <time>2020-07-04T22:17:30Z</time>
      </trkpt>
      <trkpt lat="43.77061" lon="6.32271">
        <ele>1017</ele>
        <time>2020-07-04T22:17:37Z</time>
      </trkpt>
      <trkpt lat="43.77043" lon="6.32233">
        <ele>1020</ele>
        <time>2020-07-04T22:17:43Z</time>
      </trkpt>
      <trkpt lat="43.7702" lon="6.32161">
        <ele>1021</ele>
        <time>2020-07-04T22:17:53Z</time>
      </trkpt>
      <trkpt lat="43.77016" lon="6.32141">
        <ele>1020</ele>
        <time>2020-07-04T22:17:56Z</time>
      </trkpt>
      <trkpt lat="43.77012" lon="6.32096">
        <ele>1021</ele>
        <time>2020-07-04T22:18:01Z</time>
      </trkpt>
      <trkpt lat="43.77011" lon="6.32087">
        <ele>1021</ele>
        <time>2020-07-04T22:18:03Z</time>
      </trkpt>
      <trkpt lat="43.77009" lon="6.32027">
        <ele>1022</ele>
        <time>2020-07-04T22:18:10Z</time>
      </trkpt>
      <trkpt lat="43.7701" lon="6.31996">
        <ele>1023</ele>
        <time>2020-07-04T22:18:14Z</time>
      </trkpt>
      <trkpt lat="43.77009" lon="6.31989">
        <ele>1023</ele>
        <time>2020-07-04T22:18:15Z</time>
      </trkpt>
      <trkpt lat="43.76991" lon="6.31967">
        <ele>1018</ele>
        <time>2020-07-04T22:18:19Z</time>
      </trkpt>
      <trkpt lat="43.76986" lon="6.31952">
        <ele>1017</ele>
        <time>2020-07-04T22:18:22Z</time>
      </trkpt>
      <trkpt lat="43.76986" lon="6.31933">
        <ele>1017</ele>
        <time>2020-07-04T22:18:24Z</time>
      </trkpt>
      <trkpt lat="43.76991" lon="6.3189">
        <ele>1018</ele>
        <time>2020-07-04T22:18:30Z</time>
      </trkpt>
      <trkpt lat="43.76995" lon="6.31869">
        <ele>1019</ele>
        <time>2020-07-04T22:18:32Z</time>
      </trkpt>
      <trkpt lat="43.77025" lon="6.31763">
        <ele>1028</ele>
        <time>2020-07-04T22:18:47Z</time>
      </trkpt>
      <trkpt lat="43.77026" lon="6.31748">
        <ele>1029</ele>
        <time>2020-07-04T22:18:49Z</time>
      </trkpt>
      <trkpt lat="43.77024" lon="6.31741">
        <ele>1029</ele>
        <time>2020-07-04T22:18:50Z</time>
      </trkpt>
      <trkpt lat="43.77001" lon="6.31689">
        <ele>1031</ele>
        <time>2020-07-04T22:18:58Z</time>
      </trkpt>
      <trkpt lat="43.7699" lon="6.31672">
        <ele>1032</ele>
        <time>2020-07-04T22:19:01Z</time>
      </trkpt>
      <trkpt lat="43.76974" lon="6.31659">
        <ele>1032</ele>
        <time>2020-07-04T22:19:04Z</time>
      </trkpt>
      <trkpt lat="43.76963" lon="6.31643">
        <ele>1031</ele>
        <time>2020-07-04T22:19:07Z</time>
      </trkpt>
      <trkpt lat="43.76951" lon="6.31593">
        <ele>1034</ele>
        <time>2020-07-04T22:19:14Z</time>
      </trkpt>
      <trkpt lat="43.76939" lon="6.31579">
        <ele>1033</ele>
        <time>2020-07-04T22:19:16Z</time>
      </trkpt>
      <trkpt lat="43.76869" lon="6.31519">
        <ele>1031</ele>
        <time>2020-07-04T22:19:31Z</time>
      </trkpt>
      <trkpt lat="43.76862" lon="6.31511">
        <ele>1031</ele>
        <time>2020-07-04T22:19:33Z</time>
      </trkpt>
      <trkpt lat="43.76858" lon="6.31502">
        <ele>1030</ele>
        <time>2020-07-04T22:19:34Z</time>
      </trkpt>
      <trkpt lat="43.76855" lon="6.3149">
        <ele>1030</ele>
        <time>2020-07-04T22:19:36Z</time>
      </trkpt>
      <trkpt lat="43.76844" lon="6.314">
        <ele>1025</ele>
        <time>2020-07-04T22:19:47Z</time>
      </trkpt>
      <trkpt lat="43.7684" lon="6.31384">
        <ele>1023</ele>
        <time>2020-07-04T22:19:50Z</time>
      </trkpt>
      <trkpt lat="43.76816" lon="6.31302">
        <ele>1019</ele>
        <time>2020-07-04T22:20:01Z</time>
      </trkpt>
      <trkpt lat="43.76809" lon="6.3128">
        <ele>1019</ele>
        <time>2020-07-04T22:20:04Z</time>
      </trkpt>
      <trkpt lat="43.76792" lon="6.31244">
        <ele>1020</ele>
        <time>2020-07-04T22:20:10Z</time>
      </trkpt>
      <trkpt lat="43.76776" lon="6.31215">
        <ele>1020</ele>
        <time>2020-07-04T22:20:14Z</time>
      </trkpt>
      <trkpt lat="43.76749" lon="6.31176">
        <ele>1016</ele>
        <time>2020-07-04T22:20:21Z</time>
      </trkpt>
      <trkpt lat="43.76744" lon="6.31165">
        <ele>1016</ele>
        <time>2020-07-04T22:20:23Z</time>
      </trkpt>
      <trkpt lat="43.76738" lon="6.31146">
        <ele>1015</ele>
        <time>2020-07-04T22:20:25Z</time>
      </trkpt>
      <trkpt lat="43.76733" lon="6.31118">
        <ele>1013</ele>
        <time>2020-07-04T22:20:29Z</time>
      </trkpt>
      <trkpt lat="43.76733" lon="6.31097">
        <ele>1013</ele>
        <time>2020-07-04T22:20:32Z</time>
      </trkpt>
      <trkpt lat="43.76738" lon="6.31071">
        <ele>1013</ele>
        <time>2020-07-04T22:20:35Z</time>
      </trkpt>
      <trkpt lat="43.76749" lon="6.31032">
        <ele>1012</ele>
        <time>2020-07-04T22:20:41Z</time>
      </trkpt>
      <trkpt lat="43.7676" lon="6.31005">
        <ele>1012</ele>
        <time>2020-07-04T22:20:45Z</time>
      </trkpt>
      <trkpt lat="43.76772" lon="6.30984">
        <ele>1012</ele>
        <time>2020-07-04T22:20:48Z</time>
      </trkpt>
      <trkpt lat="43.76776" lon="6.30974">
        <ele>1011</ele>
        <time>2020-07-04T22:20:50Z</time>
      </trkpt>
      <trkpt lat="43.76788" lon="6.30934">
        <ele>1006</ele>
        <time>2020-07-04T22:20:55Z</time>
      </trkpt>
      <trkpt lat="43.76801" lon="6.30909">
        <ele>1004</ele>
        <time>2020-07-04T22:20:59Z</time>
      </trkpt>
      <trkpt lat="43.76815" lon="6.3089">
        <ele>1002</ele>
        <time>2020-07-04T22:21:03Z</time>
      </trkpt>
      <trkpt lat="43.76825" lon="6.30878">
        <ele>1001</ele>
        <time>2020-07-04T22:21:05Z</time>
      </trkpt>
      <trkpt lat="43.76842" lon="6.30863">
        <ele>998</ele>
        <time>2020-07-04T22:21:09Z</time>
      </trkpt>
      <trkpt lat="43.76849" lon="6.30859">
        <ele>997</ele>
        <time>2020-07-04T22:21:10Z</time>
      </trkpt>
      <trkpt lat="43.76855" lon="6.30858">
        <ele>997</ele>
        <time>2020-07-04T22:21:11Z</time>
      </trkpt>
      <trkpt lat="43.76866" lon="6.3086">
        <ele>998</ele>
        <time>2020-07-04T22:21:13Z</time>
      </trkpt>
      <trkpt lat="43.76924" lon="6.30895">
        <ele>1007</ele>
        <time>2020-07-04T22:21:24Z</time>
      </trkpt>
      <trkpt lat="43.7696" lon="6.30922">
        <ele>1010</ele>
        <time>2020-07-04T22:21:32Z</time>
      </trkpt>
      <trkpt lat="43.76976" lon="6.30928">
        <ele>1010</ele>
        <time>2020-07-04T22:21:34Z</time>
      </trkpt>
      <trkpt lat="43.76989" lon="6.30928">
        <ele>1009</ele>
        <time>2020-07-04T22:21:37Z</time>
      </trkpt>
      <trkpt lat="43.76995" lon="6.30924">
        <ele>1007</ele>
        <time>2020-07-04T22:21:38Z</time>
      </trkpt>
      <trkpt lat="43.77012" lon="6.3091">
        <ele>1007</ele>
        <time>2020-07-04T22:21:41Z</time>
      </trkpt>
      <trkpt lat="43.77016" lon="6.30905">
        <ele>1008</ele>
        <time>2020-07-04T22:21:42Z</time>
      </trkpt>
      <trkpt lat="43.77017" lon="6.30894">
        <ele>1007</ele>
        <time>2020-07-04T22:21:44Z</time>
      </trkpt>
      <trkpt lat="43.77012" lon="6.30872">
        <ele>1004</ele>
        <time>2020-07-04T22:21:47Z</time>
      </trkpt>
      <trkpt lat="43.77011" lon="6.30858">
        <ele>1002</ele>
        <time>2020-07-04T22:21:49Z</time>
      </trkpt>
      <trkpt lat="43.77009" lon="6.30814">
        <ele>997</ele>
        <time>2020-07-04T22:21:54Z</time>
      </trkpt>
      <trkpt lat="43.7701" lon="6.308">
        <ele>995</ele>
        <time>2020-07-04T22:21:56Z</time>
      </trkpt>
      <trkpt lat="43.77021" lon="6.30742">
        <ele>991</ele>
        <time>2020-07-04T22:22:04Z</time>
      </trkpt>
      <trkpt lat="43.77025" lon="6.30728">
        <ele>991</ele>
        <time>2020-07-04T22:22:06Z</time>
      </trkpt>
      <trkpt lat="43.77041" lon="6.30696">
        <ele>991</ele>
        <time>2020-07-04T22:22:11Z</time>
      </trkpt>
      <trkpt lat="43.77052" lon="6.30668">
        <ele>989</ele>
        <time>2020-07-04T22:22:15Z</time>
      </trkpt>
      <trkpt lat="43.77078" lon="6.30632">
        <ele>996</ele>
        <time>2020-07-04T22:22:21Z</time>
      </trkpt>
      <trkpt lat="43.77079" lon="6.3062">
        <ele>996</ele>
        <time>2020-07-04T22:22:23Z</time>
      </trkpt>
      <trkpt lat="43.77073" lon="6.30606">
        <ele>995</ele>
        <time>2020-07-04T22:22:25Z</time>
      </trkpt>
      <trkpt lat="43.77044" lon="6.30569">
        <ele>987</ele>
        <time>2020-07-04T22:22:32Z</time>
      </trkpt>
      <trkpt lat="43.77037" lon="6.30562">
        <ele>986</ele>
        <time>2020-07-04T22:22:34Z</time>
      </trkpt>
      <trkpt lat="43.7701" lon="6.30544">
        <ele>979</ele>
        <time>2020-07-04T22:22:39Z</time>
      </trkpt>
      <trkpt lat="43.77004" lon="6.30537">
        <ele>978</ele>
        <time>2020-07-04T22:22:40Z</time>
      </trkpt>
      <trkpt lat="43.76999" lon="6.3053">
        <ele>977</ele>
        <time>2020-07-04T22:22:42Z</time>
      </trkpt>
      <trkpt lat="43.76994" lon="6.30519">
        <ele>976</ele>
        <time>2020-07-04T22:22:43Z</time>
      </trkpt>
      <trkpt lat="43.76987" lon="6.30491">
        <ele>976</ele>
        <time>2020-07-04T22:22:47Z</time>
      </trkpt>
      <trkpt lat="43.76985" lon="6.30475">
        <ele>975</ele>
        <time>2020-07-04T22:22:49Z</time>
      </trkpt>
      <trkpt lat="43.76985" lon="6.30439">
        <ele>975</ele>
        <time>2020-07-04T22:22:54Z</time>
      </trkpt>
      <trkpt lat="43.76987" lon="6.30393">
        <ele>973</ele>
        <time>2020-07-04T22:23:00Z</time>
      </trkpt>
      <trkpt lat="43.76989" lon="6.30384">
        <ele>973</ele>
        <time>2020-07-04T22:23:01Z</time>
      </trkpt>
      <trkpt lat="43.76992" lon="6.30376">
        <ele>973</ele>
        <time>2020-07-04T22:23:02Z</time>
      </trkpt>
      <trkpt lat="43.76997" lon="6.30369">
        <ele>973</ele>
        <time>2020-07-04T22:23:03Z</time>
      </trkpt>
      <trkpt lat="43.77006" lon="6.30364">
        <ele>973</ele>
        <time>2020-07-04T22:23:05Z</time>
      </trkpt>
      <trkpt lat="43.77031" lon="6.3036">
        <ele>974</ele>
        <time>2020-07-04T22:23:10Z</time>
      </trkpt>
      <trkpt lat="43.7704" lon="6.30361">
        <ele>974</ele>
        <time>2020-07-04T22:23:11Z</time>
      </trkpt>
      <trkpt lat="43.77071" lon="6.30373">
        <ele>977</ele>
        <time>2020-07-04T22:23:17Z</time>
      </trkpt>
      <trkpt lat="43.77086" lon="6.30375">
        <ele>979</ele>
        <time>2020-07-04T22:23:20Z</time>
      </trkpt>
      <trkpt lat="43.77092" lon="6.30372">
        <ele>979</ele>
        <time>2020-07-04T22:23:21Z</time>
      </trkpt>
      <trkpt lat="43.77099" lon="6.30366">
        <ele>980</ele>
        <time>2020-07-04T22:23:22Z</time>
      </trkpt>
      <trkpt lat="43.77105" lon="6.30357">
        <ele>979</ele>
        <time>2020-07-04T22:23:24Z</time>
      </trkpt>
      <trkpt lat="43.77111" lon="6.30343">
        <ele>978</ele>
        <time>2020-07-04T22:23:26Z</time>
      </trkpt>
      <trkpt lat="43.77115" lon="6.30332">
        <ele>977</ele>
        <time>2020-07-04T22:23:27Z</time>
      </trkpt>
      <trkpt lat="43.77117" lon="6.30312">
        <ele>975</ele>
        <time>2020-07-04T22:23:30Z</time>
      </trkpt>
      <trkpt lat="43.77116" lon="6.30269">
        <ele>969</ele>
        <time>2020-07-04T22:23:36Z</time>
      </trkpt>
      <trkpt lat="43.77118" lon="6.30253">
        <ele>967</ele>
        <time>2020-07-04T22:23:38Z</time>
      </trkpt>
      <trkpt lat="43.77124" lon="6.30228">
        <ele>965</ele>
        <time>2020-07-04T22:23:41Z</time>
      </trkpt>
      <trkpt lat="43.77133" lon="6.3021">
        <ele>964</ele>
        <time>2020-07-04T22:23:44Z</time>
      </trkpt>
      <trkpt lat="43.77175" lon="6.30155">
        <ele>964</ele>
        <time>2020-07-04T22:23:54Z</time>
      </trkpt>
      <trkpt lat="43.77185" lon="6.30137">
        <ele>964</ele>
        <time>2020-07-04T22:23:57Z</time>
      </trkpt>
      <trkpt lat="43.77197" lon="6.30111">
        <ele>964</ele>
        <time>2020-07-04T22:24:01Z</time>
      </trkpt>
      <trkpt lat="43.772" lon="6.30098">
        <ele>963</ele>
        <time>2020-07-04T22:24:03Z</time>
      </trkpt>
      <trkpt lat="43.77202" lon="6.30085">
        <ele>961</ele>
        <time>2020-07-04T22:24:04Z</time>
      </trkpt>
      <trkpt lat="43.77203" lon="6.30063">
        <ele>960</ele>
        <time>2020-07-04T22:24:07Z</time>
      </trkpt>
      <trkpt lat="43.77197" lon="6.30016">
        <ele>954</ele>
        <time>2020-07-04T22:24:13Z</time>
      </trkpt>
      <trkpt lat="43.77191" lon="6.29941">
        <ele>950</ele>
        <time>2020-07-04T22:24:23Z</time>
      </trkpt>
      <trkpt lat="43.77192" lon="6.29921">
        <ele>950</ele>
        <time>2020-07-04T22:24:26Z</time>
      </trkpt>
      <trkpt lat="43.77195" lon="6.29905">
        <ele>949</ele>
        <time>2020-07-04T22:24:28Z</time>
      </trkpt>
      <trkpt lat="43.77198" lon="6.299">
        <ele>949</ele>
        <time>2020-07-04T22:24:29Z</time>
      </trkpt>
      <trkpt lat="43.77218" lon="6.29881">
        <ele>949</ele>
        <time>2020-07-04T22:24:33Z</time>
      </trkpt>
      <trkpt lat="43.77232" lon="6.29861">
        <ele>948</ele>
        <time>2020-07-04T22:24:37Z</time>
      </trkpt>
      <trkpt lat="43.77248" lon="6.2983">
        <ele>945</ele>
        <time>2020-07-04T22:24:41Z</time>
      </trkpt>
      <trkpt lat="43.77256" lon="6.2982">
        <ele>945</ele>
        <time>2020-07-04T22:24:43Z</time>
      </trkpt>
      <trkpt lat="43.77273" lon="6.29807">
        <ele>946</ele>
        <time>2020-07-04T22:24:47Z</time>
      </trkpt>
      <trkpt lat="43.77301" lon="6.29792">
        <ele>949</ele>
        <time>2020-07-04T22:24:52Z</time>
      </trkpt>
      <trkpt lat="43.77313" lon="6.29777">
        <ele>949</ele>
        <time>2020-07-04T22:24:55Z</time>
      </trkpt>
      <trkpt lat="43.77323" lon="6.29751">
        <ele>948</ele>
        <time>2020-07-04T22:24:59Z</time>
      </trkpt>
      <trkpt lat="43.77338" lon="6.29694">
        <ele>938</ele>
        <time>2020-07-04T22:25:07Z</time>
      </trkpt>
      <trkpt lat="43.7735" lon="6.29661">
        <ele>934</ele>
        <time>2020-07-04T22:25:11Z</time>
      </trkpt>
      <trkpt lat="43.77386" lon="6.29584">
        <ele>929</ele>
        <time>2020-07-04T22:25:23Z</time>
      </trkpt>
      <trkpt lat="43.77408" lon="6.29523">
        <ele>925</ele>
        <time>2020-07-04T22:25:32Z</time>
      </trkpt>
      <trkpt lat="43.77422" lon="6.29494">
        <ele>924</ele>
        <time>2020-07-04T22:25:36Z</time>
      </trkpt>
      <trkpt lat="43.77455" lon="6.29446">
        <ele>926</ele>
        <time>2020-07-04T22:25:45Z</time>
      </trkpt>
      <trkpt lat="43.77467" lon="6.29425">
        <ele>926</ele>
        <time>2020-07-04T22:25:48Z</time>
      </trkpt>
      <trkpt lat="43.7747" lon="6.29407">
        <ele>924</ele>
        <time>2020-07-04T22:25:51Z</time>
      </trkpt>
      <trkpt lat="43.7747" lon="6.29391">
        <ele>922</ele>
        <time>2020-07-04T22:25:53Z</time>
      </trkpt>
      <trkpt lat="43.77467" lon="6.29379">
        <ele>920</ele>
        <time>2020-07-04T22:25:54Z</time>
      </trkpt>
      <trkpt lat="43.77454" lon="6.2934">
        <ele>912</ele>
        <time>2020-07-04T22:26:00Z</time>
      </trkpt>
      <trkpt lat="43.77455" lon="6.29323">
        <ele>910</ele>
        <time>2020-07-04T22:26:02Z</time>
      </trkpt>
      <trkpt lat="43.77458" lon="6.29306">
        <ele>909</ele>
        <time>2020-07-04T22:26:04Z</time>
      </trkpt>
      <trkpt lat="43.77471" lon="6.29282">
        <ele>908</ele>
        <time>2020-07-04T22:26:08Z</time>
      </trkpt>
      <trkpt lat="43.77507" lon="6.29225">
        <ele>906</ele>
        <time>2020-07-04T22:26:18Z</time>
      </trkpt>
      <trkpt lat="43.77539" lon="6.29186">
        <ele>908</ele>
        <time>2020-07-04T22:26:25Z</time>
      </trkpt>
      <trkpt lat="43.77551" lon="6.29173">
        <ele>909</ele>
        <time>2020-07-04T22:26:28Z</time>
      </trkpt>
      <trkpt lat="43.77562" lon="6.29159">
        <ele>910</ele>
        <time>2020-07-04T22:26:31Z</time>
      </trkpt>
      <trkpt lat="43.77568" lon="6.29148">
        <ele>909</ele>
        <time>2020-07-04T22:26:33Z</time>
      </trkpt>
      <trkpt lat="43.77571" lon="6.2914">
        <ele>908</ele>
        <time>2020-07-04T22:26:34Z</time>
      </trkpt>
      <trkpt lat="43.77586" lon="6.29066">
        <ele>900</ele>
        <time>2020-07-04T22:26:44Z</time>
      </trkpt>
      <trkpt lat="43.77596" lon="6.29036">
        <ele>901</ele>
        <time>2020-07-04T22:26:48Z</time>
      </trkpt>
      <trkpt lat="43.77596" lon="6.29021">
        <ele>898</ele>
        <time>2020-07-04T22:26:50Z</time>
      </trkpt>
      <trkpt lat="43.77592" lon="6.28987">
        <ele>892</ele>
        <time>2020-07-04T22:26:54Z</time>
      </trkpt>
      <trkpt lat="43.77603" lon="6.28915">
        <ele>891</ele>
        <time>2020-07-04T22:27:04Z</time>
      </trkpt>
      <trkpt lat="43.77606" lon="6.28878">
        <ele>891</ele>
        <time>2020-07-04T22:27:09Z</time>
      </trkpt>
      <trkpt lat="43.77605" lon="6.28836">
        <ele>888</ele>
        <time>2020-07-04T22:27:14Z</time>
      </trkpt>
      <trkpt lat="43.77607" lon="6.28762">
        <ele>886</ele>
        <time>2020-07-04T22:27:23Z</time>
      </trkpt>
      <trkpt lat="43.77607" lon="6.28706">
        <ele>882</ele>
        <time>2020-07-04T22:27:31Z</time>
      </trkpt>
      <trkpt lat="43.77605" lon="6.28687">
        <ele>880</ele>
        <time>2020-07-04T22:27:33Z</time>
      </trkpt>
      <trkpt lat="43.77599" lon="6.28659">
        <ele>875</ele>
        <time>2020-07-04T22:27:37Z</time>
      </trkpt>
      <trkpt lat="43.77585" lon="6.28628">
        <ele>869</ele>
        <time>2020-07-04T22:27:42Z</time>
      </trkpt>
      <trkpt lat="43.77577" lon="6.28604">
        <ele>867</ele>
        <time>2020-07-04T22:27:45Z</time>
      </trkpt>
      <trkpt lat="43.77576" lon="6.28582">
        <ele>868</ele>
        <time>2020-07-04T22:27:48Z</time>
      </trkpt>
      <trkpt lat="43.77587" lon="6.28492">
        <ele>865</ele>
        <time>2020-07-04T22:27:59Z</time>
      </trkpt>
      <trkpt lat="43.77591" lon="6.2848">
        <ele>864</ele>
        <time>2020-07-04T22:28:01Z</time>
      </trkpt>
      <trkpt lat="43.77596" lon="6.28471">
        <ele>864</ele>
        <time>2020-07-04T22:28:03Z</time>
      </trkpt>
      <trkpt lat="43.77641" lon="6.28397">
        <ele>859</ele>
        <time>2020-07-04T22:28:15Z</time>
      </trkpt>
      <trkpt lat="43.77666" lon="6.28368">
        <ele>855</ele>
        <time>2020-07-04T22:28:21Z</time>
      </trkpt>
      <trkpt lat="43.77672" lon="6.28364">
        <ele>854</ele>
        <time>2020-07-04T22:28:22Z</time>
      </trkpt>
      <trkpt lat="43.7769" lon="6.28361">
        <ele>855</ele>
        <time>2020-07-04T22:28:25Z</time>
      </trkpt>
      <trkpt lat="43.77749" lon="6.28362">
        <ele>862</ele>
        <time>2020-07-04T22:28:36Z</time>
      </trkpt>
      <trkpt lat="43.77812" lon="6.28349">
        <ele>855</ele>
        <time>2020-07-04T22:28:47Z</time>
      </trkpt>
      <trkpt lat="43.77876" lon="6.28322">
        <ele>849</ele>
        <time>2020-07-04T22:28:59Z</time>
      </trkpt>
      <trkpt lat="43.77939" lon="6.28278">
        <ele>841</ele>
        <time>2020-07-04T22:29:12Z</time>
      </trkpt>
      <trkpt lat="43.78025" lon="6.28257">
        <ele>841</ele>
        <time>2020-07-04T22:29:27Z</time>
      </trkpt>
      <trkpt lat="43.78055" lon="6.28261">
        <ele>844</ele>
        <time>2020-07-04T22:29:32Z</time>
      </trkpt>
      <trkpt lat="43.7806" lon="6.2826">
        <ele>844</ele>
        <time>2020-07-04T22:29:33Z</time>
      </trkpt>
      <trkpt lat="43.78064" lon="6.28257">
        <ele>843</ele>
        <time>2020-07-04T22:29:34Z</time>
      </trkpt>
      <trkpt lat="43.78069" lon="6.28248">
        <ele>840</ele>
        <time>2020-07-04T22:29:36Z</time>
      </trkpt>
      <trkpt lat="43.7807" lon="6.28242">
        <ele>838</ele>
        <time>2020-07-04T22:29:36Z</time>
      </trkpt>
      <trkpt lat="43.78069" lon="6.28237">
        <ele>836</ele>
        <time>2020-07-04T22:29:37Z</time>
      </trkpt>
      <trkpt lat="43.78064" lon="6.28228">
        <ele>833</ele>
        <time>2020-07-04T22:29:39Z</time>
      </trkpt>
      <trkpt lat="43.78059" lon="6.28226">
        <ele>832</ele>
        <time>2020-07-04T22:29:39Z</time>
      </trkpt>
      <trkpt lat="43.78044" lon="6.28229">
        <ele>832</ele>
        <time>2020-07-04T22:29:42Z</time>
      </trkpt>
      <trkpt lat="43.7802" lon="6.28238">
        <ele>834</ele>
        <time>2020-07-04T22:29:47Z</time>
      </trkpt>
      <trkpt lat="43.78005" lon="6.2824">
        <ele>834</ele>
        <time>2020-07-04T22:29:49Z</time>
      </trkpt>
      <trkpt lat="43.77963" lon="6.28228">
        <ele>825</ele>
        <time>2020-07-04T22:29:57Z</time>
      </trkpt>
      <trkpt lat="43.7794" lon="6.28228">
        <ele>823</ele>
        <time>2020-07-04T22:30:01Z</time>
      </trkpt>
      <trkpt lat="43.77904" lon="6.28237">
        <ele>821</ele>
        <time>2020-07-04T22:30:08Z</time>
      </trkpt>
      <trkpt lat="43.77859" lon="6.28264">
        <ele>824</ele>
        <time>2020-07-04T22:30:16Z</time>
      </trkpt>
      <trkpt lat="43.77852" lon="6.28265">
        <ele>824</ele>
        <time>2020-07-04T22:30:17Z</time>
      </trkpt>
      <trkpt lat="43.77833" lon="6.28263">
        <ele>820</ele>
        <time>2020-07-04T22:30:21Z</time>
      </trkpt>
      <trkpt lat="43.77797" lon="6.28267">
        <ele>822</ele>
        <time>2020-07-04T22:30:27Z</time>
      </trkpt>
      <trkpt lat="43.7775" lon="6.28259">
        <ele>818</ele>
        <time>2020-07-04T22:30:36Z</time>
      </trkpt>
      <trkpt lat="43.77668" lon="6.28236">
        <ele>813</ele>
        <time>2020-07-04T22:30:51Z</time>
      </trkpt>
      <trkpt lat="43.77641" lon="6.28236">
        <ele>810</ele>
        <time>2020-07-04T22:30:55Z</time>
      </trkpt>
      <trkpt lat="43.77629" lon="6.28238">
        <ele>810</ele>
        <time>2020-07-04T22:30:58Z</time>
      </trkpt>
      <trkpt lat="43.77617" lon="6.28243">
        <ele>809</ele>
        <time>2020-07-04T22:31:00Z</time>
      </trkpt>
      <trkpt lat="43.77605" lon="6.28244">
        <ele>808</ele>
        <time>2020-07-04T22:31:02Z</time>
      </trkpt>
      <trkpt lat="43.776" lon="6.28242">
        <ele>807</ele>
        <time>2020-07-04T22:31:03Z</time>
      </trkpt>
      <trkpt lat="43.77597" lon="6.28238">
        <ele>806</ele>
        <time>2020-07-04T22:31:04Z</time>
      </trkpt>
      <trkpt lat="43.77595" lon="6.28231">
        <ele>806</ele>
        <time>2020-07-04T22:31:05Z</time>
      </trkpt>
      <trkpt lat="43.77595" lon="6.28225">
        <ele>806</ele>
        <time>2020-07-04T22:31:05Z</time>
      </trkpt>
      <trkpt lat="43.77597" lon="6.28219">
        <ele>806</ele>
        <time>2020-07-04T22:31:06Z</time>
      </trkpt>
      <trkpt lat="43.776" lon="6.28215">
        <ele>806</ele>
        <time>2020-07-04T22:31:07Z</time>
      </trkpt>
      <trkpt lat="43.77611" lon="6.28211">
        <ele>806</ele>
        <time>2020-07-04T22:31:09Z</time>
      </trkpt>
      <trkpt lat="43.77715" lon="6.28208">
        <ele>803</ele>
        <time>2020-07-04T22:31:27Z</time>
      </trkpt>
      <trkpt lat="43.77767" lon="6.28204">
        <ele>800</ele>
        <time>2020-07-04T22:31:37Z</time>
      </trkpt>
      <trkpt lat="43.77823" lon="6.28184">
        <ele>796</ele>
        <time>2020-07-04T22:31:47Z</time>
      </trkpt>
      <trkpt lat="43.77864" lon="6.28152">
        <ele>789</ele>
        <time>2020-07-04T22:31:55Z</time>
      </trkpt>
      <trkpt lat="43.77939" lon="6.28087">
        <ele>777</ele>
        <time>2020-07-04T22:32:11Z</time>
      </trkpt>
      <trkpt lat="43.77991" lon="6.28072">
        <ele>776</ele>
        <time>2020-07-04T22:32:21Z</time>
      </trkpt>
      <trkpt lat="43.78049" lon="6.28038">
        <ele>775</ele>
        <time>2020-07-04T22:32:32Z</time>
      </trkpt>
      <trkpt lat="43.7806" lon="6.28031">
        <ele>775</ele>
        <time>2020-07-04T22:32:34Z</time>
      </trkpt>
      <trkpt lat="43.78082" lon="6.28002">
        <ele>771</ele>
        <time>2020-07-04T22:32:39Z</time>
      </trkpt>
      <trkpt lat="43.78086" lon="6.27995">
        <ele>771</ele>
        <time>2020-07-04T22:32:41Z</time>
      </trkpt>
      <trkpt lat="43.78088" lon="6.27987">
        <ele>771</ele>
        <time>2020-07-04T22:32:42Z</time>
      </trkpt>
      <trkpt lat="43.78089" lon="6.27956">
        <ele>766</ele>
        <time>2020-07-04T22:32:46Z</time>
      </trkpt>
      <trkpt lat="43.78094" lon="6.27918">
        <ele>762</ele>
        <time>2020-07-04T22:32:51Z</time>
      </trkpt>
      <trkpt lat="43.78103" lon="6.27892">
        <ele>761</ele>
        <time>2020-07-04T22:32:54Z</time>
      </trkpt>
      <trkpt lat="43.7811" lon="6.2788">
        <ele>761</ele>
        <time>2020-07-04T22:32:56Z</time>
      </trkpt>
      <trkpt lat="43.78129" lon="6.27859">
        <ele>763</ele>
        <time>2020-07-04T22:33:01Z</time>
      </trkpt>
      <trkpt lat="43.78215" lon="6.27707">
        <ele>751</ele>
        <time>2020-07-04T22:33:25Z</time>
      </trkpt>
      <trkpt lat="43.78225" lon="6.277">
        <ele>753</ele>
        <time>2020-07-04T22:33:27Z</time>
      </trkpt>
      <trkpt lat="43.78254" lon="6.27696">
        <ele>762</ele>
        <time>2020-07-04T22:33:33Z</time>
      </trkpt>
      <trkpt lat="43.78264" lon="6.27684">
        <ele>765</ele>
        <time>2020-07-04T22:33:35Z</time>
      </trkpt>
      <trkpt lat="43.78268" lon="6.27671">
        <ele>764</ele>
        <time>2020-07-04T22:33:37Z</time>
      </trkpt>
      <trkpt lat="43.78281" lon="6.27593">
        <ele>743</ele>
        <time>2020-07-04T22:33:47Z</time>
      </trkpt>
      <trkpt lat="43.7829" lon="6.2756">
        <ele>738</ele>
        <time>2020-07-04T22:33:52Z</time>
      </trkpt>
      <trkpt lat="43.78295" lon="6.2755">
        <ele>738</ele>
        <time>2020-07-04T22:33:53Z</time>
      </trkpt>
      <trkpt lat="43.7833" lon="6.27503">
        <ele>743</ele>
        <time>2020-07-04T22:34:02Z</time>
      </trkpt>
      <trkpt lat="43.78335" lon="6.2749">
        <ele>743</ele>
        <time>2020-07-04T22:34:04Z</time>
      </trkpt>
      <trkpt lat="43.78342" lon="6.27461">
        <ele>740</ele>
        <time>2020-07-04T22:34:08Z</time>
      </trkpt>
      <trkpt lat="43.78348" lon="6.27402">
        <ele>728</ele>
        <time>2020-07-04T22:34:15Z</time>
      </trkpt>
      <trkpt lat="43.78356" lon="6.27378">
        <ele>727</ele>
        <time>2020-07-04T22:34:19Z</time>
      </trkpt>
      <trkpt lat="43.78364" lon="6.2736">
        <ele>726</ele>
        <time>2020-07-04T22:34:21Z</time>
      </trkpt>
      <trkpt lat="43.78411" lon="6.27285">
        <ele>728</ele>
        <time>2020-07-04T22:34:34Z</time>
      </trkpt>
      <trkpt lat="43.78424" lon="6.2727">
        <ele>731</ele>
        <time>2020-07-04T22:34:37Z</time>
      </trkpt>
      <trkpt lat="43.78441" lon="6.27257">
        <ele>739</ele>
        <time>2020-07-04T22:34:41Z</time>
      </trkpt>
      <trkpt lat="43.78448" lon="6.27244">
        <ele>742</ele>
        <time>2020-07-04T22:34:43Z</time>
      </trkpt>
      <trkpt lat="43.78449" lon="6.27228">
        <ele>740</ele>
        <time>2020-07-04T22:34:45Z</time>
      </trkpt>
      <trkpt lat="43.78443" lon="6.27191">
        <ele>730</ele>
        <time>2020-07-04T22:34:50Z</time>
      </trkpt>
      <trkpt lat="43.78446" lon="6.27147">
        <ele>729</ele>
        <time>2020-07-04T22:34:55Z</time>
      </trkpt>
      <trkpt lat="43.78448" lon="6.27135">
        <ele>731</ele>
        <time>2020-07-04T22:34:57Z</time>
      </trkpt>
      <trkpt lat="43.78459" lon="6.27098">
        <ele>739</ele>
        <time>2020-07-04T22:35:02Z</time>
      </trkpt>
      <trkpt lat="43.78459" lon="6.27091">
        <ele>739</ele>
        <time>2020-07-04T22:35:03Z</time>
      </trkpt>
      <trkpt lat="43.78456" lon="6.27064">
        <ele>736</ele>
        <time>2020-07-04T22:35:06Z</time>
      </trkpt>
      <trkpt lat="43.78441" lon="6.26999">
        <ele>724</ele>
        <time>2020-07-04T22:35:15Z</time>
      </trkpt>
      <trkpt lat="43.78436" lon="6.26964">
        <ele>718</ele>
        <time>2020-07-04T22:35:20Z</time>
      </trkpt>
      <trkpt lat="43.78435" lon="6.26941">
        <ele>716</ele>
        <time>2020-07-04T22:35:23Z</time>
      </trkpt>
      <trkpt lat="43.78431" lon="6.26811">
        <ele>714</ele>
        <time>2020-07-04T22:35:39Z</time>
      </trkpt>
      <trkpt lat="43.78432" lon="6.26791">
        <ele>716</ele>
        <time>2020-07-04T22:35:42Z</time>
      </trkpt>
      <trkpt lat="43.78434" lon="6.26776">
        <ele>717</ele>
        <time>2020-07-04T22:35:44Z</time>
      </trkpt>
      <trkpt lat="43.78437" lon="6.26766">
        <ele>718</ele>
        <time>2020-07-04T22:35:45Z</time>
      </trkpt>
      <trkpt lat="43.78447" lon="6.26749">
        <ele>720</ele>
        <time>2020-07-04T22:35:48Z</time>
      </trkpt>
      <trkpt lat="43.78455" lon="6.26741">
        <ele>719</ele>
        <time>2020-07-04T22:35:50Z</time>
      </trkpt>
      <trkpt lat="43.78495" lon="6.2671">
        <ele>710</ele>
        <time>2020-07-04T22:35:58Z</time>
      </trkpt>
      <trkpt lat="43.78525" lon="6.26679">
        <ele>702</ele>
        <time>2020-07-04T22:36:05Z</time>
      </trkpt>
      <trkpt lat="43.78535" lon="6.26674">
        <ele>700</ele>
        <time>2020-07-04T22:36:07Z</time>
      </trkpt>
      <trkpt lat="43.78548" lon="6.26671">
        <ele>699</ele>
        <time>2020-07-04T22:36:09Z</time>
      </trkpt>
      <trkpt lat="43.78574" lon="6.26677">
        <ele>703</ele>
        <time>2020-07-04T22:36:14Z</time>
      </trkpt>
      <trkpt lat="43.78586" lon="6.26677">
        <ele>704</ele>
        <time>2020-07-04T22:36:16Z</time>
      </trkpt>
      <trkpt lat="43.78594" lon="6.26674">
        <ele>705</ele>
        <time>2020-07-04T22:36:17Z</time>
      </trkpt>
      <trkpt lat="43.78609" lon="6.26659">
        <ele>703</ele>
        <time>2020-07-04T22:36:21Z</time>
      </trkpt>
      <trkpt lat="43.7862" lon="6.26643">
        <ele>699</ele>
        <time>2020-07-04T22:36:23Z</time>
      </trkpt>
      <trkpt lat="43.78643" lon="6.26622">
        <ele>696</ele>
        <time>2020-07-04T22:36:28Z</time>
      </trkpt>
      <trkpt lat="43.78672" lon="6.26602">
        <ele>691</ele>
        <time>2020-07-04T22:36:34Z</time>
      </trkpt>
      <trkpt lat="43.78734" lon="6.26576">
        <ele>682</ele>
        <time>2020-07-04T22:36:46Z</time>
      </trkpt>
      <trkpt lat="43.78743" lon="6.26576">
        <ele>683</ele>
        <time>2020-07-04T22:36:47Z</time>
      </trkpt>
      <trkpt lat="43.78746" lon="6.26579">
        <ele>684</ele>
        <time>2020-07-04T22:36:48Z</time>
      </trkpt>
      <trkpt lat="43.78767" lon="6.26619">
        <ele>698</ele>
        <time>2020-07-04T22:36:54Z</time>
      </trkpt>
      <trkpt lat="43.7878" lon="6.26629">
        <ele>699</ele>
        <time>2020-07-04T22:36:57Z</time>
      </trkpt>
      <trkpt lat="43.78805" lon="6.26643">
        <ele>698</ele>
        <time>2020-07-04T22:37:02Z</time>
      </trkpt>
      <trkpt lat="43.78829" lon="6.26649">
        <ele>695</ele>
        <time>2020-07-04T22:37:06Z</time>
      </trkpt>
      <trkpt lat="43.78873" lon="6.26667">
        <ele>710</ele>
        <time>2020-07-04T22:37:14Z</time>
      </trkpt>
      <trkpt lat="43.7888" lon="6.26667">
        <ele>711</ele>
        <time>2020-07-04T22:37:15Z</time>
      </trkpt>
      <trkpt lat="43.78891" lon="6.26663">
        <ele>710</ele>
        <time>2020-07-04T22:37:17Z</time>
      </trkpt>
      <trkpt lat="43.78903" lon="6.2665">
        <ele>705</ele>
        <time>2020-07-04T22:37:20Z</time>
      </trkpt>
      <trkpt lat="43.78908" lon="6.26639">
        <ele>700</ele>
        <time>2020-07-04T22:37:22Z</time>
      </trkpt>
      <trkpt lat="43.7891" lon="6.26625">
        <ele>693</ele>
        <time>2020-07-04T22:37:24Z</time>
      </trkpt>
      <trkpt lat="43.7891" lon="6.26602">
        <ele>681</ele>
        <time>2020-07-04T22:37:27Z</time>
      </trkpt>
      <trkpt lat="43.78912" lon="6.26591">
        <ele>675</ele>
        <time>2020-07-04T22:37:28Z</time>
      </trkpt>
      <trkpt lat="43.78931" lon="6.26545">
        <ele>664</ele>
        <time>2020-07-04T22:37:35Z</time>
      </trkpt>
      <trkpt lat="43.78936" lon="6.26538">
        <ele>662</ele>
        <time>2020-07-04T22:37:36Z</time>
      </trkpt>
      <trkpt lat="43.78944" lon="6.26532">
        <ele>662</ele>
        <time>2020-07-04T22:37:38Z</time>
      </trkpt>
      <trkpt lat="43.78968" lon="6.26528">
        <ele>666</ele>
        <time>2020-07-04T22:37:42Z</time>
      </trkpt>
      <trkpt lat="43.78997" lon="6.26528">
        <ele>672</ele>
        <time>2020-07-04T22:37:47Z</time>
      </trkpt>
      <trkpt lat="43.79033" lon="6.26519">
        <ele>670</ele>
        <time>2020-07-04T22:37:54Z</time>
      </trkpt>
      <trkpt lat="43.79042" lon="6.26516">
        <ele>669</ele>
        <time>2020-07-04T22:37:55Z</time>
      </trkpt>
      <trkpt lat="43.79057" lon="6.26504">
        <ele>662</ele>
        <time>2020-07-04T22:37:58Z</time>
      </trkpt>
      <trkpt lat="43.79072" lon="6.26498">
        <ele>658</ele>
        <time>2020-07-04T22:38:01Z</time>
      </trkpt>
      <trkpt lat="43.79089" lon="6.26499">
        <ele>658</ele>
        <time>2020-07-04T22:38:04Z</time>
      </trkpt>
      <trkpt lat="43.79146" lon="6.26522">
        <ele>670</ele>
        <time>2020-07-04T22:38:15Z</time>
      </trkpt>
      <trkpt lat="43.79155" lon="6.26521">
        <ele>669</ele>
        <time>2020-07-04T22:38:16Z</time>
      </trkpt>
      <trkpt lat="43.7918" lon="6.26512">
        <ele>660</ele>
        <time>2020-07-04T22:38:21Z</time>
      </trkpt>
      <trkpt lat="43.7919" lon="6.2651">
        <ele>658</ele>
        <time>2020-07-04T22:38:23Z</time>
      </trkpt>
      <trkpt lat="43.79199" lon="6.26514">
        <ele>660</ele>
        <time>2020-07-04T22:38:24Z</time>
      </trkpt>
      <trkpt lat="43.79226" lon="6.26515">
        <ele>658</ele>
        <time>2020-07-04T22:38:29Z</time>
      </trkpt>
      <trkpt lat="43.79263" lon="6.26519">
        <ele>661</ele>
        <time>2020-07-04T22:38:36Z</time>
      </trkpt>
      <trkpt lat="43.79289" lon="6.26509">
        <ele>661</ele>
        <time>2020-07-04T22:38:41Z</time>
      </trkpt>
      <trkpt lat="43.79312" lon="6.26508">
        <ele>665</ele>
        <time>2020-07-04T22:38:45Z</time>
      </trkpt>
      <trkpt lat="43.79327" lon="6.26501">
        <ele>665</ele>
        <time>2020-07-04T22:38:48Z</time>
      </trkpt>
      <trkpt lat="43.79359" lon="6.26481">
        <ele>669</ele>
        <time>2020-07-04T22:38:54Z</time>
      </trkpt>
      <trkpt lat="43.79377" lon="6.26462">
        <ele>670</ele>
        <time>2020-07-04T22:38:58Z</time>
      </trkpt>
      <trkpt lat="43.79383" lon="6.26449">
        <ele>668</ele>
        <time>2020-07-04T22:39:00Z</time>
      </trkpt>
      <trkpt lat="43.79389" lon="6.2641">
        <ele>656</ele>
        <time>2020-07-04T22:39:05Z</time>
      </trkpt>
      <trkpt lat="43.79395" lon="6.26394">
        <ele>655</ele>
        <time>2020-07-04T22:39:07Z</time>
      </trkpt>
      <trkpt lat="43.79404" lon="6.26373">
        <ele>653</ele>
        <time>2020-07-04T22:39:10Z</time>
      </trkpt>
      <trkpt lat="43.79446" lon="6.26307">
        <ele>647</ele>
        <time>2020-07-04T22:39:22Z</time>
      </trkpt>
      <trkpt lat="43.7945" lon="6.26294">
        <ele>644</ele>
        <time>2020-07-04T22:39:24Z</time>
      </trkpt>
      <trkpt lat="43.79457" lon="6.26262">
        <ele>636</ele>
        <time>2020-07-04T22:39:28Z</time>
      </trkpt>
      <trkpt lat="43.7946" lon="6.26256">
        <ele>634</ele>
        <time>2020-07-04T22:39:29Z</time>
      </trkpt>
      <trkpt lat="43.79468" lon="6.26249">
        <ele>633</ele>
        <time>2020-07-04T22:39:30Z</time>
      </trkpt>
      <trkpt lat="43.79484" lon="6.26252">
        <ele>636</ele>
        <time>2020-07-04T22:39:33Z</time>
      </trkpt>
      <trkpt lat="43.79506" lon="6.26266">
        <ele>643</ele>
        <time>2020-07-04T22:39:38Z</time>
      </trkpt>
      <trkpt lat="43.79511" lon="6.26272">
        <ele>644</ele>
        <time>2020-07-04T22:39:39Z</time>
      </trkpt>
      <trkpt lat="43.79523" lon="6.26296">
        <ele>651</ele>
        <time>2020-07-04T22:39:43Z</time>
      </trkpt>
      <trkpt lat="43.7953" lon="6.26306">
        <ele>653</ele>
        <time>2020-07-04T22:39:44Z</time>
      </trkpt>
      <trkpt lat="43.79544" lon="6.26318">
        <ele>656</ele>
        <time>2020-07-04T22:39:47Z</time>
      </trkpt>
      <trkpt lat="43.7957" lon="6.26327">
        <ele>655</ele>
        <time>2020-07-04T22:39:52Z</time>
      </trkpt>
      <trkpt lat="43.79579" lon="6.26327">
        <ele>654</ele>
        <time>2020-07-04T22:39:54Z</time>
      </trkpt>
      <trkpt lat="43.79618" lon="6.26315">
        <ele>654</ele>
        <time>2020-07-04T22:40:01Z</time>
      </trkpt>
      <trkpt lat="43.79641" lon="6.263">
        <ele>651</ele>
        <time>2020-07-04T22:40:05Z</time>
      </trkpt>
      <trkpt lat="43.79665" lon="6.26294">
        <ele>652</ele>
        <time>2020-07-04T22:40:10Z</time>
      </trkpt>
      <trkpt lat="43.7968" lon="6.26288">
        <ele>655</ele>
        <time>2020-07-04T22:40:12Z</time>
      </trkpt>
      <trkpt lat="43.79694" lon="6.26271">
        <ele>653</ele>
        <time>2020-07-04T22:40:16Z</time>
      </trkpt>
      <trkpt lat="43.79733" lon="6.26244">
        <ele>658</ele>
        <time>2020-07-04T22:40:23Z</time>
      </trkpt>
      <trkpt lat="43.79742" lon="6.26238">
        <ele>660</ele>
        <time>2020-07-04T22:40:25Z</time>
      </trkpt>
      <trkpt lat="43.79747" lon="6.26234">
        <ele>661</ele>
        <time>2020-07-04T22:40:26Z</time>
      </trkpt>
      <trkpt lat="43.79774" lon="6.26198">
        <ele>665</ele>
        <time>2020-07-04T22:40:33Z</time>
      </trkpt>
      <trkpt lat="43.79802" lon="6.26177">
        <ele>678</ele>
        <time>2020-07-04T22:40:39Z</time>
      </trkpt>
      <trkpt lat="43.7981" lon="6.26167">
        <ele>683</ele>
        <time>2020-07-04T22:40:41Z</time>
      </trkpt>
      <trkpt lat="43.79812" lon="6.26155">
        <ele>681</ele>
        <time>2020-07-04T22:40:42Z</time>
      </trkpt>
      <trkpt lat="43.79811" lon="6.2615">
        <ele>680</ele>
        <time>2020-07-04T22:40:43Z</time>
      </trkpt>
      <trkpt lat="43.79796" lon="6.26122">
        <ele>664</ele>
        <time>2020-07-04T22:40:47Z</time>
      </trkpt>
      <trkpt lat="43.79781" lon="6.26091">
        <ele>648</ele>
        <time>2020-07-04T22:40:52Z</time>
      </trkpt>
      <trkpt lat="43.79781" lon="6.26082">
        <ele>646</ele>
        <time>2020-07-04T22:40:53Z</time>
      </trkpt>
      <trkpt lat="43.79782" lon="6.26073">
        <ele>646</ele>
        <time>2020-07-04T22:40:54Z</time>
      </trkpt>
      <trkpt lat="43.79791" lon="6.26054">
        <ele>648</ele>
        <time>2020-07-04T22:40:57Z</time>
      </trkpt>
      <trkpt lat="43.79806" lon="6.26029">
        <ele>651</ele>
        <time>2020-07-04T22:41:01Z</time>
      </trkpt>
      <trkpt lat="43.79818" lon="6.26003">
        <ele>651</ele>
        <time>2020-07-04T22:41:05Z</time>
      </trkpt>
      <trkpt lat="43.79839" lon="6.2598">
        <ele>647</ele>
        <time>2020-07-04T22:41:10Z</time>
      </trkpt>
      <trkpt lat="43.79852" lon="6.25972">
        <ele>647</ele>
        <time>2020-07-04T22:41:13Z</time>
      </trkpt>
      <trkpt lat="43.79871" lon="6.25969">
        <ele>653</ele>
        <time>2020-07-04T22:41:16Z</time>
      </trkpt>
      <trkpt lat="43.79881" lon="6.25965">
        <ele>654</ele>
        <time>2020-07-04T22:41:18Z</time>
      </trkpt>
      <trkpt lat="43.79911" lon="6.25951">
        <ele>658</ele>
        <time>2020-07-04T22:41:24Z</time>
      </trkpt>
      <trkpt lat="43.79931" lon="6.25947">
        <ele>656</ele>
        <time>2020-07-04T22:41:27Z</time>
      </trkpt>
      <trkpt lat="43.79947" lon="6.25949">
        <ele>654</ele>
        <time>2020-07-04T22:41:30Z</time>
      </trkpt>
      <trkpt lat="43.79973" lon="6.25963">
        <ele>658</ele>
        <time>2020-07-04T22:41:35Z</time>
      </trkpt>
      <trkpt lat="43.79986" lon="6.25967">
        <ele>658</ele>
        <time>2020-07-04T22:41:37Z</time>
      </trkpt>
      <trkpt lat="43.80009" lon="6.25963">
        <ele>659</ele>
        <time>2020-07-04T22:41:42Z</time>
      </trkpt>
      <trkpt lat="43.8005" lon="6.25966">
        <ele>689</ele>
        <time>2020-07-04T22:41:49Z</time>
      </trkpt>
      <trkpt lat="43.80056" lon="6.25964">
        <ele>692</ele>
        <time>2020-07-04T22:41:50Z</time>
      </trkpt>
      <trkpt lat="43.80066" lon="6.25956">
        <ele>694</ele>
        <time>2020-07-04T22:41:52Z</time>
      </trkpt>
      <trkpt lat="43.80072" lon="6.2594">
        <ele>689</ele>
        <time>2020-07-04T22:41:54Z</time>
      </trkpt>
      <trkpt lat="43.80075" lon="6.2591">
        <ele>677</ele>
        <time>2020-07-04T22:41:58Z</time>
      </trkpt>
      <trkpt lat="43.80077" lon="6.25876">
        <ele>678</ele>
        <time>2020-07-04T22:42:03Z</time>
      </trkpt>
      <trkpt lat="43.80082" lon="6.25857">
        <ele>680</ele>
        <time>2020-07-04T22:42:05Z</time>
      </trkpt>
      <trkpt lat="43.80082" lon="6.25848">
        <ele>680</ele>
        <time>2020-07-04T22:42:06Z</time>
      </trkpt>
      <trkpt lat="43.8008" lon="6.25837">
        <ele>678</ele>
        <time>2020-07-04T22:42:08Z</time>
      </trkpt>
      <trkpt lat="43.80066" lon="6.25801">
        <ele>669</ele>
        <time>2020-07-04T22:42:13Z</time>
      </trkpt>
      <trkpt lat="43.80062" lon="6.25798">
        <ele>666</ele>
        <time>2020-07-04T22:42:14Z</time>
      </trkpt>
      <trkpt lat="43.80047" lon="6.25792">
        <ele>655</ele>
        <time>2020-07-04T22:42:17Z</time>
      </trkpt>
      <trkpt lat="43.80042" lon="6.25787">
        <ele>651</ele>
        <time>2020-07-04T22:42:18Z</time>
      </trkpt>
      <trkpt lat="43.80036" lon="6.25775">
        <ele>645</ele>
        <time>2020-07-04T22:42:20Z</time>
      </trkpt>
      <trkpt lat="43.80026" lon="6.25752">
        <ele>634</ele>
        <time>2020-07-04T22:42:23Z</time>
      </trkpt>
      <trkpt lat="43.80024" lon="6.25744">
        <ele>629</ele>
        <time>2020-07-04T22:42:24Z</time>
      </trkpt>
      <trkpt lat="43.80025" lon="6.25732">
        <ele>625</ele>
        <time>2020-07-04T22:42:26Z</time>
      </trkpt>
      <trkpt lat="43.80036" lon="6.25718">
        <ele>629</ele>
        <time>2020-07-04T22:42:28Z</time>
      </trkpt>
      <trkpt lat="43.8006" lon="6.25699">
        <ele>644</ele>
        <time>2020-07-04T22:42:33Z</time>
      </trkpt>
      <trkpt lat="43.80078" lon="6.25671">
        <ele>651</ele>
        <time>2020-07-04T22:42:38Z</time>
      </trkpt>
      <trkpt lat="43.80119" lon="6.25625">
        <ele>651</ele>
        <time>2020-07-04T22:42:47Z</time>
      </trkpt>
      <trkpt lat="43.80162" lon="6.25567">
        <ele>656</ele>
        <time>2020-07-04T22:42:58Z</time>
      </trkpt>
      <trkpt lat="43.80185" lon="6.25552">
        <ele>663</ele>
        <time>2020-07-04T22:43:03Z</time>
      </trkpt>
      <trkpt lat="43.802" lon="6.25547">
        <ele>670</ele>
        <time>2020-07-04T22:43:05Z</time>
      </trkpt>
      <trkpt lat="43.80215" lon="6.25533">
        <ele>671</ele>
        <time>2020-07-04T22:43:09Z</time>
      </trkpt>
      <trkpt lat="43.80222" lon="6.25518">
        <ele>666</ele>
        <time>2020-07-04T22:43:11Z</time>
      </trkpt>
      <trkpt lat="43.80229" lon="6.25497">
        <ele>659</ele>
        <time>2020-07-04T22:43:14Z</time>
      </trkpt>
      <trkpt lat="43.80237" lon="6.25465">
        <ele>647</ele>
        <time>2020-07-04T22:43:18Z</time>
      </trkpt>
      <trkpt lat="43.80243" lon="6.25446">
        <ele>641</ele>
        <time>2020-07-04T22:43:21Z</time>
      </trkpt>
      <trkpt lat="43.80247" lon="6.25439">
        <ele>640</ele>
        <time>2020-07-04T22:43:22Z</time>
      </trkpt>
      <trkpt lat="43.80253" lon="6.25433">
        <ele>640</ele>
        <time>2020-07-04T22:43:23Z</time>
      </trkpt>
      <trkpt lat="43.80258" lon="6.25431">
        <ele>640</ele>
        <time>2020-07-04T22:43:24Z</time>
      </trkpt>
      <trkpt lat="43.80264" lon="6.25428">
        <ele>640</ele>
        <time>2020-07-04T22:43:25Z</time>
      </trkpt>
      <trkpt lat="43.80275" lon="6.25427">
        <ele>641</ele>
        <time>2020-07-04T22:43:27Z</time>
      </trkpt>
      <trkpt lat="43.80291" lon="6.25432">
        <ele>647</ele>
        <time>2020-07-04T22:43:30Z</time>
      </trkpt>
      <trkpt lat="43.80309" lon="6.25439">
        <ele>655</ele>
        <time>2020-07-04T22:43:34Z</time>
      </trkpt>
      <trkpt lat="43.80318" lon="6.25442">
        <ele>659</ele>
        <time>2020-07-04T22:43:35Z</time>
      </trkpt>
      <trkpt lat="43.80332" lon="6.25441">
        <ele>661</ele>
        <time>2020-07-04T22:43:38Z</time>
      </trkpt>
      <trkpt lat="43.80345" lon="6.25436">
        <ele>661</ele>
        <time>2020-07-04T22:43:40Z</time>
      </trkpt>
      <trkpt lat="43.80367" lon="6.25418">
        <ele>654</ele>
        <time>2020-07-04T22:43:45Z</time>
      </trkpt>
      <trkpt lat="43.80378" lon="6.25402">
        <ele>645</ele>
        <time>2020-07-04T22:43:48Z</time>
      </trkpt>
      <trkpt lat="43.80388" lon="6.25395">
        <ele>642</ele>
        <time>2020-07-04T22:43:50Z</time>
      </trkpt>
      <trkpt lat="43.804" lon="6.25395">
        <ele>644</ele>
        <time>2020-07-04T22:43:52Z</time>
      </trkpt>
      <trkpt lat="43.80417" lon="6.25404">
        <ele>654</ele>
        <time>2020-07-04T22:43:55Z</time>
      </trkpt>
      <trkpt lat="43.80429" lon="6.25406">
        <ele>656</ele>
        <time>2020-07-04T22:43:57Z</time>
      </trkpt>
      <trkpt lat="43.80458" lon="6.25394">
        <ele>650</ele>
        <time>2020-07-04T22:44:02Z</time>
      </trkpt>
      <trkpt lat="43.80499" lon="6.25399">
        <ele>657</ele>
        <time>2020-07-04T22:44:10Z</time>
      </trkpt>
      <trkpt lat="43.80531" lon="6.25396">
        <ele>653</ele>
        <time>2020-07-04T22:44:15Z</time>
      </trkpt>
      <trkpt lat="43.80543" lon="6.25396">
        <ele>651</ele>
        <time>2020-07-04T22:44:18Z</time>
      </trkpt>
      <trkpt lat="43.80562" lon="6.25399">
        <ele>652</ele>
        <time>2020-07-04T22:44:21Z</time>
      </trkpt>
      <trkpt lat="43.80581" lon="6.25407">
        <ele>655</ele>
        <time>2020-07-04T22:44:25Z</time>
      </trkpt>
      <trkpt lat="43.80587" lon="6.25412">
        <ele>656</ele>
        <time>2020-07-04T22:44:26Z</time>
      </trkpt>
      <trkpt lat="43.80597" lon="6.2543">
        <ele>665</ele>
        <time>2020-07-04T22:44:29Z</time>
      </trkpt>
      <trkpt lat="43.80602" lon="6.25435">
        <ele>667</ele>
        <time>2020-07-04T22:44:30Z</time>
      </trkpt>
      <trkpt lat="43.80615" lon="6.25446">
        <ele>671</ele>
        <time>2020-07-04T22:44:33Z</time>
      </trkpt>
      <trkpt lat="43.80632" lon="6.25456">
        <ele>673</ele>
        <time>2020-07-04T22:44:36Z</time>
      </trkpt>
      <trkpt lat="43.80644" lon="6.25454">
        <ele>668</ele>
        <time>2020-07-04T22:44:38Z</time>
      </trkpt>
      <trkpt lat="43.80663" lon="6.25439">
        <ele>654</ele>
        <time>2020-07-04T22:44:42Z</time>
      </trkpt>
      <trkpt lat="43.80674" lon="6.25438">
        <ele>651</ele>
        <time>2020-07-04T22:44:44Z</time>
      </trkpt>
      <trkpt lat="43.80755" lon="6.25473">
        <ele>659</ele>
        <time>2020-07-04T22:44:59Z</time>
      </trkpt>
      <trkpt lat="43.80784" lon="6.25479">
        <ele>661</ele>
        <time>2020-07-04T22:45:04Z</time>
      </trkpt>
      <trkpt lat="43.80833" lon="6.25483">
        <ele>661</ele>
        <time>2020-07-04T22:45:13Z</time>
      </trkpt>
      <trkpt lat="43.80847" lon="6.25482">
        <ele>661</ele>
        <time>2020-07-04T22:45:15Z</time>
      </trkpt>
      <trkpt lat="43.80859" lon="6.25477">
        <ele>659</ele>
        <time>2020-07-04T22:45:18Z</time>
      </trkpt>
      <trkpt lat="43.80865" lon="6.25472">
        <ele>658</ele>
        <time>2020-07-04T22:45:19Z</time>
      </trkpt>
      <trkpt lat="43.8088" lon="6.2545">
        <ele>650</ele>
        <time>2020-07-04T22:45:23Z</time>
      </trkpt>
      <trkpt lat="43.80891" lon="6.25442">
        <ele>648</ele>
        <time>2020-07-04T22:45:25Z</time>
      </trkpt>
      <trkpt lat="43.80901" lon="6.25442">
        <ele>649</ele>
        <time>2020-07-04T22:45:27Z</time>
      </trkpt>
      <trkpt lat="43.80928" lon="6.2545">
        <ele>650</ele>
        <time>2020-07-04T22:45:32Z</time>
      </trkpt>
      <trkpt lat="43.80941" lon="6.25455">
        <ele>650</ele>
        <time>2020-07-04T22:45:34Z</time>
      </trkpt>
      <trkpt lat="43.80974" lon="6.25479">
        <ele>651</ele>
        <time>2020-07-04T22:45:41Z</time>
      </trkpt>
      <trkpt lat="43.80986" lon="6.25493">
        <ele>652</ele>
        <time>2020-07-04T22:45:43Z</time>
      </trkpt>
      <trkpt lat="43.81011" lon="6.25542">
        <ele>661</ele>
        <time>2020-07-04T22:45:51Z</time>
      </trkpt>
      <trkpt lat="43.81021" lon="6.25551">
        <ele>662</ele>
        <time>2020-07-04T22:45:53Z</time>
      </trkpt>
      <trkpt lat="43.81036" lon="6.25558">
        <ele>663</ele>
        <time>2020-07-04T22:45:56Z</time>
      </trkpt>
      <trkpt lat="43.81046" lon="6.2556">
        <ele>663</ele>
        <time>2020-07-04T22:45:58Z</time>
      </trkpt>
      <trkpt lat="43.81058" lon="6.25556">
        <ele>661</ele>
        <time>2020-07-04T22:46:00Z</time>
      </trkpt>
      <trkpt lat="43.81066" lon="6.25545">
        <ele>657</ele>
        <time>2020-07-04T22:46:02Z</time>
      </trkpt>
      <trkpt lat="43.81077" lon="6.2552">
        <ele>649</ele>
        <time>2020-07-04T22:46:06Z</time>
      </trkpt>
      <trkpt lat="43.81087" lon="6.25512">
        <ele>647</ele>
        <time>2020-07-04T22:46:08Z</time>
      </trkpt>
      <trkpt lat="43.81101" lon="6.25511">
        <ele>647</ele>
        <time>2020-07-04T22:46:10Z</time>
      </trkpt>
      <trkpt lat="43.81145" lon="6.25522">
        <ele>651</ele>
        <time>2020-07-04T22:46:18Z</time>
      </trkpt>
      <trkpt lat="43.8117" lon="6.2552">
        <ele>652</ele>
        <time>2020-07-04T22:46:23Z</time>
      </trkpt>
      <trkpt lat="43.81196" lon="6.25522">
        <ele>658</ele>
        <time>2020-07-04T22:46:27Z</time>
      </trkpt>
      <trkpt lat="43.81205" lon="6.2552">
        <ele>660</ele>
        <time>2020-07-04T22:46:29Z</time>
      </trkpt>
      <trkpt lat="43.81215" lon="6.25518">
        <ele>661</ele>
        <time>2020-07-04T22:46:31Z</time>
      </trkpt>
      <trkpt lat="43.8122" lon="6.25515">
        <ele>661</ele>
        <time>2020-07-04T22:46:32Z</time>
      </trkpt>
      <trkpt lat="43.81224" lon="6.2551">
        <ele>661</ele>
        <time>2020-07-04T22:46:33Z</time>
      </trkpt>
      <trkpt lat="43.81227" lon="6.25505">
        <ele>660</ele>
        <time>2020-07-04T22:46:34Z</time>
      </trkpt>
      <trkpt lat="43.81228" lon="6.25492">
        <ele>657</ele>
        <time>2020-07-04T22:46:35Z</time>
      </trkpt>
      <trkpt lat="43.81223" lon="6.25478">
        <ele>653</ele>
        <time>2020-07-04T22:46:37Z</time>
      </trkpt>
      <trkpt lat="43.8122" lon="6.25457">
        <ele>649</ele>
        <time>2020-07-04T22:46:40Z</time>
      </trkpt>
      <trkpt lat="43.8122" lon="6.25447">
        <ele>647</ele>
        <time>2020-07-04T22:46:41Z</time>
      </trkpt>
      <trkpt lat="43.81233" lon="6.25403">
        <ele>642</ele>
        <time>2020-07-04T22:46:47Z</time>
      </trkpt>
      <trkpt lat="43.81236" lon="6.25393">
        <ele>641</ele>
        <time>2020-07-04T22:46:49Z</time>
      </trkpt>
      <trkpt lat="43.81242" lon="6.25384">
        <ele>642</ele>
        <time>2020-07-04T22:46:50Z</time>
      </trkpt>
      <trkpt lat="43.81275" lon="6.25352">
        <ele>650</ele>
        <time>2020-07-04T22:46:58Z</time>
      </trkpt>
      <trkpt lat="43.81281" lon="6.25344">
        <ele>651</ele>
        <time>2020-07-04T22:46:59Z</time>
      </trkpt>
      <trkpt lat="43.81286" lon="6.25335">
        <ele>651</ele>
        <time>2020-07-04T22:47:01Z</time>
      </trkpt>
      <trkpt lat="43.81291" lon="6.25315">
        <ele>652</ele>
        <time>2020-07-04T22:47:03Z</time>
      </trkpt>
      <trkpt lat="43.81292" lon="6.25305">
        <ele>652</ele>
        <time>2020-07-04T22:47:05Z</time>
      </trkpt>
      <trkpt lat="43.8129" lon="6.2525">
        <ele>648</ele>
        <time>2020-07-04T22:47:12Z</time>
      </trkpt>
      <trkpt lat="43.81288" lon="6.25223">
        <ele>647</ele>
        <time>2020-07-04T22:47:15Z</time>
      </trkpt>
      <trkpt lat="43.81282" lon="6.2518">
        <ele>644</ele>
        <time>2020-07-04T22:47:21Z</time>
      </trkpt>
      <trkpt lat="43.81275" lon="6.25083">
        <ele>639</ele>
        <time>2020-07-04T22:47:33Z</time>
      </trkpt>
      <trkpt lat="43.81281" lon="6.2504">
        <ele>636</ele>
        <time>2020-07-04T22:47:39Z</time>
      </trkpt>
      <trkpt lat="43.81286" lon="6.2503">
        <ele>636</ele>
        <time>2020-07-04T22:47:40Z</time>
      </trkpt>
      <trkpt lat="43.81291" lon="6.25028">
        <ele>637</ele>
        <time>2020-07-04T22:47:41Z</time>
      </trkpt>
      <trkpt lat="43.81297" lon="6.25028">
        <ele>639</ele>
        <time>2020-07-04T22:47:42Z</time>
      </trkpt>
      <trkpt lat="43.81318" lon="6.25044">
        <ele>648</ele>
        <time>2020-07-04T22:47:47Z</time>
      </trkpt>
      <trkpt lat="43.81332" lon="6.25049">
        <ele>653</ele>
        <time>2020-07-04T22:47:49Z</time>
      </trkpt>
      <trkpt lat="43.81338" lon="6.25049">
        <ele>654</ele>
        <time>2020-07-04T22:47:50Z</time>
      </trkpt>
      <trkpt lat="43.81355" lon="6.25042">
        <ele>657</ele>
        <time>2020-07-04T22:47:53Z</time>
      </trkpt>
      <trkpt lat="43.81402" lon="6.25018">
        <ele>664</ele>
        <time>2020-07-04T22:48:02Z</time>
      </trkpt>
      <trkpt lat="43.81421" lon="6.25005">
        <ele>666</ele>
        <time>2020-07-04T22:48:06Z</time>
      </trkpt>
      <trkpt lat="43.81425" lon="6.24998">
        <ele>666</ele>
        <time>2020-07-04T22:48:07Z</time>
      </trkpt>
      <trkpt lat="43.81428" lon="6.2499">
        <ele>666</ele>
        <time>2020-07-04T22:48:08Z</time>
      </trkpt>
      <trkpt lat="43.81429" lon="6.24976">
        <ele>666</ele>
        <time>2020-07-04T22:48:10Z</time>
      </trkpt>
      <trkpt lat="43.81422" lon="6.24949">
        <ele>662</ele>
        <time>2020-07-04T22:48:14Z</time>
      </trkpt>
      <trkpt lat="43.81419" lon="6.24933">
        <ele>661</ele>
        <time>2020-07-04T22:48:16Z</time>
      </trkpt>
      <trkpt lat="43.81422" lon="6.24912">
        <ele>660</ele>
        <time>2020-07-04T22:48:19Z</time>
      </trkpt>
      <trkpt lat="43.81431" lon="6.24883">
        <ele>661</ele>
        <time>2020-07-04T22:48:23Z</time>
      </trkpt>
      <trkpt lat="43.81445" lon="6.24859">
        <ele>662</ele>
        <time>2020-07-04T22:48:27Z</time>
      </trkpt>
      <trkpt lat="43.81463" lon="6.24837">
        <ele>665</ele>
        <time>2020-07-04T22:48:31Z</time>
      </trkpt>
      <trkpt lat="43.81483" lon="6.2482">
        <ele>669</ele>
        <time>2020-07-04T22:48:35Z</time>
      </trkpt>
      <trkpt lat="43.81505" lon="6.24808">
        <ele>673</ele>
        <time>2020-07-04T22:48:39Z</time>
      </trkpt>
      <trkpt lat="43.81513" lon="6.24795">
        <ele>674</ele>
        <time>2020-07-04T22:48:42Z</time>
      </trkpt>
      <trkpt lat="43.81513" lon="6.24779">
        <ele>673</ele>
        <time>2020-07-04T22:48:44Z</time>
      </trkpt>
      <trkpt lat="43.81512" lon="6.2477">
        <ele>672</ele>
        <time>2020-07-04T22:48:45Z</time>
      </trkpt>
      <trkpt lat="43.81505" lon="6.24751">
        <ele>669</ele>
        <time>2020-07-04T22:48:48Z</time>
      </trkpt>
      <trkpt lat="43.81503" lon="6.24734">
        <ele>669</ele>
        <time>2020-07-04T22:48:50Z</time>
      </trkpt>
      <trkpt lat="43.81508" lon="6.24709">
        <ele>672</ele>
        <time>2020-07-04T22:48:53Z</time>
      </trkpt>
      <trkpt lat="43.8152" lon="6.24674">
        <ele>676</ele>
        <time>2020-07-04T22:48:58Z</time>
      </trkpt>
      <trkpt lat="43.81523" lon="6.24654">
        <ele>677</ele>
        <time>2020-07-04T22:49:01Z</time>
      </trkpt>
      <trkpt lat="43.81522" lon="6.24646">
        <ele>677</ele>
        <time>2020-07-04T22:49:02Z</time>
      </trkpt>
      <trkpt lat="43.81519" lon="6.24638">
        <ele>677</ele>
        <time>2020-07-04T22:49:03Z</time>
      </trkpt>
      <trkpt lat="43.8149" lon="6.24585">
        <ele>675</ele>
        <time>2020-07-04T22:49:12Z</time>
      </trkpt>
      <trkpt lat="43.81481" lon="6.24558">
        <ele>676</ele>
        <time>2020-07-04T22:49:15Z</time>
      </trkpt>
      <trkpt lat="43.81472" lon="6.24516">
        <ele>675</ele>
        <time>2020-07-04T22:49:21Z</time>
      </trkpt>
      <trkpt lat="43.8147" lon="6.24485">
        <ele>673</ele>
        <time>2020-07-04T22:49:25Z</time>
      </trkpt>
      <trkpt lat="43.81472" lon="6.24469">
        <ele>672</ele>
        <time>2020-07-04T22:49:27Z</time>
      </trkpt>
      <trkpt lat="43.81488" lon="6.24388">
        <ele>667</ele>
        <time>2020-07-04T22:49:38Z</time>
      </trkpt>
      <trkpt lat="43.81494" lon="6.24358">
        <ele>664</ele>
        <time>2020-07-04T22:49:42Z</time>
      </trkpt>
      <trkpt lat="43.81502" lon="6.24333">
        <ele>662</ele>
        <time>2020-07-04T22:49:45Z</time>
      </trkpt>
      <trkpt lat="43.81508" lon="6.24322">
        <ele>661</ele>
        <time>2020-07-04T22:49:47Z</time>
      </trkpt>
      <trkpt lat="43.81515" lon="6.24312">
        <ele>660</ele>
        <time>2020-07-04T22:49:49Z</time>
      </trkpt>
      <trkpt lat="43.81551" lon="6.2428">
        <ele>660</ele>
        <time>2020-07-04T22:49:56Z</time>
      </trkpt>
      <trkpt lat="43.81619" lon="6.24253">
        <ele>662</ele>
        <time>2020-07-04T22:50:09Z</time>
      </trkpt>
      <trkpt lat="43.8164" lon="6.24248">
        <ele>662</ele>
        <time>2020-07-04T22:50:13Z</time>
      </trkpt>
      <trkpt lat="43.81649" lon="6.24248">
        <ele>663</ele>
        <time>2020-07-04T22:50:14Z</time>
      </trkpt>
      <trkpt lat="43.81666" lon="6.24252">
        <ele>664</ele>
        <time>2020-07-04T22:50:18Z</time>
      </trkpt>
      <trkpt lat="43.8168" lon="6.2426">
        <ele>665</ele>
        <time>2020-07-04T22:50:20Z</time>
      </trkpt>
      <trkpt lat="43.81689" lon="6.24269">
        <ele>665</ele>
        <time>2020-07-04T22:50:22Z</time>
      </trkpt>
      <trkpt lat="43.81722" lon="6.24325">
        <ele>668</ele>
        <time>2020-07-04T22:50:31Z</time>
      </trkpt>
      <trkpt lat="43.81734" lon="6.24343">
        <ele>669</ele>
        <time>2020-07-04T22:50:35Z</time>
      </trkpt>
      <trkpt lat="43.81743" lon="6.2435">
        <ele>669</ele>
        <time>2020-07-04T22:50:36Z</time>
      </trkpt>
      <trkpt lat="43.81757" lon="6.24357">
        <ele>669</ele>
        <time>2020-07-04T22:50:39Z</time>
      </trkpt>
      <trkpt lat="43.81763" lon="6.24357">
        <ele>670</ele>
        <time>2020-07-04T22:50:40Z</time>
      </trkpt>
      <trkpt lat="43.81768" lon="6.24353">
        <ele>669</ele>
        <time>2020-07-04T22:50:41Z</time>
      </trkpt>
      <trkpt lat="43.81772" lon="6.24345">
        <ele>669</ele>
        <time>2020-07-04T22:50:42Z</time>
      </trkpt>
      <trkpt lat="43.81791" lon="6.24277">
        <ele>665</ele>
        <time>2020-07-04T22:50:52Z</time>
      </trkpt>
      <trkpt lat="43.81806" lon="6.24216">
        <ele>662</ele>
        <time>2020-07-04T22:51:00Z</time>
      </trkpt>
      <trkpt lat="43.81807" lon="6.24193">
        <ele>660</ele>
        <time>2020-07-04T22:51:03Z</time>
      </trkpt>
      <trkpt lat="43.81797" lon="6.24126">
        <ele>654</ele>
        <time>2020-07-04T22:51:12Z</time>
      </trkpt>
      <trkpt lat="43.81796" lon="6.2411">
        <ele>653</ele>
        <time>2020-07-04T22:51:14Z</time>
      </trkpt>
      <trkpt lat="43.81804" lon="6.24064">
        <ele>652</ele>
        <time>2020-07-04T22:51:20Z</time>
      </trkpt>
      <trkpt lat="43.81817" lon="6.24017">
        <ele>654</ele>
        <time>2020-07-04T22:51:26Z</time>
      </trkpt>
      <trkpt lat="43.81817" lon="6.23995">
        <ele>654</ele>
        <time>2020-07-04T22:51:29Z</time>
      </trkpt>
      <trkpt lat="43.81815" lon="6.23977">
        <ele>653</ele>
        <time>2020-07-04T22:51:32Z</time>
      </trkpt>
      <trkpt lat="43.81828" lon="6.2392">
        <ele>655</ele>
        <time>2020-07-04T22:51:39Z</time>
      </trkpt>
      <trkpt lat="43.81864" lon="6.23835">
        <ele>657</ele>
        <time>2020-07-04T22:51:52Z</time>
      </trkpt>
      <trkpt lat="43.81865" lon="6.23832">
        <ele>656</ele>
        <time>2020-07-04T22:51:52Z</time>
      </trkpt>
      <trkpt lat="43.81896" lon="6.23765">
        <ele>658</ele>
        <time>2020-07-04T22:52:03Z</time>
      </trkpt>
      <trkpt lat="43.81898" lon="6.23756">
        <ele>658</ele>
        <time>2020-07-04T22:52:04Z</time>
      </trkpt>
      <trkpt lat="43.81899" lon="6.23732">
        <ele>657</ele>
        <time>2020-07-04T22:52:07Z</time>
      </trkpt>
      <trkpt lat="43.81893" lon="6.23688">
        <ele>656</ele>
        <time>2020-07-04T22:52:13Z</time>
      </trkpt>
      <trkpt lat="43.81894" lon="6.23677">
        <ele>656</ele>
        <time>2020-07-04T22:52:14Z</time>
      </trkpt>
      <trkpt lat="43.81896" lon="6.23661">
        <ele>655</ele>
        <time>2020-07-04T22:52:16Z</time>
      </trkpt>
      <trkpt lat="43.81911" lon="6.23603">
        <ele>654</ele>
        <time>2020-07-04T22:52:24Z</time>
      </trkpt>
      <trkpt lat="43.81912" lon="6.2357">
        <ele>651</ele>
        <time>2020-07-04T22:52:28Z</time>
      </trkpt>
      <trkpt lat="43.81911" lon="6.23519">
        <ele>646</ele>
        <time>2020-07-04T22:52:35Z</time>
      </trkpt>
      <trkpt lat="43.81913" lon="6.23504">
        <ele>645</ele>
        <time>2020-07-04T22:52:37Z</time>
      </trkpt>
      <trkpt lat="43.81919" lon="6.23481">
        <ele>643</ele>
        <time>2020-07-04T22:52:40Z</time>
      </trkpt>
      <trkpt lat="43.81933" lon="6.23455">
        <ele>640</ele>
        <time>2020-07-04T22:52:44Z</time>
      </trkpt>
      <trkpt lat="43.8194" lon="6.23447">
        <ele>640</ele>
        <time>2020-07-04T22:52:46Z</time>
      </trkpt>
      <trkpt lat="43.81953" lon="6.23441">
        <ele>639</ele>
        <time>2020-07-04T22:52:48Z</time>
      </trkpt>
      <trkpt lat="43.81985" lon="6.23442">
        <ele>642</ele>
        <time>2020-07-04T22:52:54Z</time>
      </trkpt>
      <trkpt lat="43.81998" lon="6.23434">
        <ele>641</ele>
        <time>2020-07-04T22:52:56Z</time>
      </trkpt>
      <trkpt lat="43.82007" lon="6.2342">
        <ele>638</ele>
        <time>2020-07-04T22:52:59Z</time>
      </trkpt>
      <trkpt lat="43.82018" lon="6.23384">
        <ele>630</ele>
        <time>2020-07-04T22:53:04Z</time>
      </trkpt>
      <trkpt lat="43.82028" lon="6.2337">
        <ele>628</ele>
        <time>2020-07-04T22:53:06Z</time>
      </trkpt>
      <trkpt lat="43.8204" lon="6.23363">
        <ele>628</ele>
        <time>2020-07-04T22:53:09Z</time>
      </trkpt>
      <trkpt lat="43.82062" lon="6.23357">
        <ele>629</ele>
        <time>2020-07-04T22:53:13Z</time>
      </trkpt>
      <trkpt lat="43.82077" lon="6.23346">
        <ele>629</ele>
        <time>2020-07-04T22:53:16Z</time>
      </trkpt>
      <trkpt lat="43.82091" lon="6.2333">
        <ele>626</ele>
        <time>2020-07-04T22:53:19Z</time>
      </trkpt>
      <trkpt lat="43.82113" lon="6.23292">
        <ele>620</ele>
        <time>2020-07-04T22:53:25Z</time>
      </trkpt>
      <trkpt lat="43.8213" lon="6.2327">
        <ele>618</ele>
        <time>2020-07-04T22:53:29Z</time>
      </trkpt>
      <trkpt lat="43.82143" lon="6.23256">
        <ele>618</ele>
        <time>2020-07-04T22:53:32Z</time>
      </trkpt>
      <trkpt lat="43.82158" lon="6.23245">
        <ele>619</ele>
        <time>2020-07-04T22:53:35Z</time>
      </trkpt>
      <trkpt lat="43.82196" lon="6.23225">
        <ele>616</ele>
        <time>2020-07-04T22:53:42Z</time>
      </trkpt>
      <trkpt lat="43.82225" lon="6.23214">
        <ele>615</ele>
        <time>2020-07-04T22:53:48Z</time>
      </trkpt>
      <trkpt lat="43.82242" lon="6.2321">
        <ele>614</ele>
        <time>2020-07-04T22:53:51Z</time>
      </trkpt>
      <trkpt lat="43.82276" lon="6.23208">
        <ele>612</ele>
        <time>2020-07-04T22:53:57Z</time>
      </trkpt>
      <trkpt lat="43.8229" lon="6.23213">
        <ele>611</ele>
        <time>2020-07-04T22:53:59Z</time>
      </trkpt>
      <trkpt lat="43.82332" lon="6.23246">
        <ele>613</ele>
        <time>2020-07-04T22:54:08Z</time>
      </trkpt>
      <trkpt lat="43.82349" lon="6.23254">
        <ele>613</ele>
        <time>2020-07-04T22:54:11Z</time>
      </trkpt>
      <trkpt lat="43.82357" lon="6.23254">
        <ele>613</ele>
        <time>2020-07-04T22:54:13Z</time>
      </trkpt>
      <trkpt lat="43.82368" lon="6.23251">
        <ele>612</ele>
        <time>2020-07-04T22:54:15Z</time>
      </trkpt>
      <trkpt lat="43.82397" lon="6.2324">
        <ele>609</ele>
        <time>2020-07-04T22:54:20Z</time>
      </trkpt>
      <trkpt lat="43.82433" lon="6.23213">
        <ele>606</ele>
        <time>2020-07-04T22:54:27Z</time>
      </trkpt>
      <trkpt lat="43.82535" lon="6.23083">
        <ele>594</ele>
        <time>2020-07-04T22:54:52Z</time>
      </trkpt>
      <trkpt lat="43.82541" lon="6.23072">
        <ele>593</ele>
        <time>2020-07-04T22:54:54Z</time>
      </trkpt>
      <trkpt lat="43.82544" lon="6.23065">
        <ele>593</ele>
        <time>2020-07-04T22:54:55Z</time>
      </trkpt>
      <trkpt lat="43.82546" lon="6.23058">
        <ele>593</ele>
        <time>2020-07-04T22:54:56Z</time>
      </trkpt>
      <trkpt lat="43.82551" lon="6.23009">
        <ele>587</ele>
        <time>2020-07-04T22:55:02Z</time>
      </trkpt>
      <trkpt lat="43.82553" lon="6.22961">
        <ele>582</ele>
        <time>2020-07-04T22:55:08Z</time>
      </trkpt>
      <trkpt lat="43.82556" lon="6.22951">
        <ele>582</ele>
        <time>2020-07-04T22:55:10Z</time>
      </trkpt>
      <trkpt lat="43.82564" lon="6.22939">
        <ele>581</ele>
        <time>2020-07-04T22:55:12Z</time>
      </trkpt>
      <trkpt lat="43.82577" lon="6.22929">
        <ele>581</ele>
        <time>2020-07-04T22:55:14Z</time>
      </trkpt>
      <trkpt lat="43.82637" lon="6.22905">
        <ele>578</ele>
        <time>2020-07-04T22:55:26Z</time>
      </trkpt>
      <trkpt lat="43.82664" lon="6.22892">
        <ele>577</ele>
        <time>2020-07-04T22:55:31Z</time>
      </trkpt>
      <trkpt lat="43.82672" lon="6.22887">
        <ele>576</ele>
        <time>2020-07-04T22:55:32Z</time>
      </trkpt>
      <trkpt lat="43.82757" lon="6.22813">
        <ele>567</ele>
        <time>2020-07-04T22:55:50Z</time>
      </trkpt>
      <trkpt lat="43.82777" lon="6.22803">
        <ele>566</ele>
        <time>2020-07-04T22:55:54Z</time>
      </trkpt>
      <trkpt lat="43.82805" lon="6.22795">
        <ele>564</ele>
        <time>2020-07-04T22:55:59Z</time>
      </trkpt>
      <trkpt lat="43.82811" lon="6.22792">
        <ele>563</ele>
        <time>2020-07-04T22:56:00Z</time>
      </trkpt>
      <trkpt lat="43.82814" lon="6.22787">
        <ele>563</ele>
        <time>2020-07-04T22:56:01Z</time>
      </trkpt>
      <trkpt lat="43.82815" lon="6.22776">
        <ele>561</ele>
        <time>2020-07-04T22:56:02Z</time>
      </trkpt>
      <trkpt lat="43.82813" lon="6.2277">
        <ele>561</ele>
        <time>2020-07-04T22:56:03Z</time>
      </trkpt>
      <trkpt lat="43.82811" lon="6.22766">
        <ele>560</ele>
        <time>2020-07-04T22:56:04Z</time>
      </trkpt>
      <trkpt lat="43.82807" lon="6.22764">
        <ele>560</ele>
        <time>2020-07-04T22:56:05Z</time>
      </trkpt>
      <trkpt lat="43.82774" lon="6.22757">
        <ele>560</ele>
        <time>2020-07-04T22:56:10Z</time>
      </trkpt>
      <trkpt lat="43.82742" lon="6.22754">
        <ele>560</ele>
        <time>2020-07-04T22:56:16Z</time>
      </trkpt>
      <trkpt lat="43.82735" lon="6.22748">
        <ele>559</ele>
        <time>2020-07-04T22:56:18Z</time>
      </trkpt>
      <trkpt lat="43.82732" lon="6.22737">
        <ele>558</ele>
        <time>2020-07-04T22:56:19Z</time>
      </trkpt>
      <trkpt lat="43.82733" lon="6.22731">
        <ele>558</ele>
        <time>2020-07-04T22:56:20Z</time>
      </trkpt>
      <trkpt lat="43.82737" lon="6.22725">
        <ele>557</ele>
        <time>2020-07-04T22:56:21Z</time>
      </trkpt>
      <trkpt lat="43.82805" lon="6.22667">
        <ele>551</ele>
        <time>2020-07-04T22:56:35Z</time>
      </trkpt>
      <trkpt lat="43.82824" lon="6.22657">
        <ele>549</ele>
        <time>2020-07-04T22:56:39Z</time>
      </trkpt>
      <trkpt lat="43.8283" lon="6.22657">
        <ele>549</ele>
        <time>2020-07-04T22:56:40Z</time>
      </trkpt>
      <trkpt lat="43.82841" lon="6.22659">
        <ele>547</ele>
        <time>2020-07-04T22:56:42Z</time>
      </trkpt>
      <trkpt lat="43.82852" lon="6.22668">
        <ele>547</ele>
        <time>2020-07-04T22:56:44Z</time>
      </trkpt>
      <trkpt lat="43.82892" lon="6.22743">
        <ele>547</ele>
        <time>2020-07-04T22:56:56Z</time>
      </trkpt>
      <trkpt lat="43.82909" lon="6.22792">
        <ele>551</ele>
        <time>2020-07-04T22:57:03Z</time>
      </trkpt>
      <trkpt lat="43.82913" lon="6.22798">
        <ele>551</ele>
        <time>2020-07-04T22:57:04Z</time>
      </trkpt>
      <trkpt lat="43.82917" lon="6.228">
        <ele>551</ele>
        <time>2020-07-04T22:57:05Z</time>
      </trkpt>
      <trkpt lat="43.82925" lon="6.22797">
        <ele>549</ele>
        <time>2020-07-04T22:57:06Z</time>
      </trkpt>
      <trkpt lat="43.82928" lon="6.22794">
        <ele>548</ele>
        <time>2020-07-04T22:57:07Z</time>
      </trkpt>
      <trkpt lat="43.82929" lon="6.22788">
        <ele>547</ele>
        <time>2020-07-04T22:57:08Z</time>
      </trkpt>
      <trkpt lat="43.82926" lon="6.22768">
        <ele>545</ele>
        <time>2020-07-04T22:57:10Z</time>
      </trkpt>
      <trkpt lat="43.82886" lon="6.22674">
        <ele>541</ele>
        <time>2020-07-04T22:57:24Z</time>
      </trkpt>
      <trkpt lat="43.82873" lon="6.2263">
        <ele>538</ele>
        <time>2020-07-04T22:57:31Z</time>
      </trkpt>
      <trkpt lat="43.82837" lon="6.2257">
        <ele>536</ele>
        <time>2020-07-04T22:57:41Z</time>
      </trkpt>
      <trkpt lat="43.82823" lon="6.22539">
        <ele>534</ele>
        <time>2020-07-04T22:57:45Z</time>
      </trkpt>
      <trkpt lat="43.82819" lon="6.22529">
        <ele>533</ele>
        <time>2020-07-04T22:57:47Z</time>
      </trkpt>
      <trkpt lat="43.82809" lon="6.225">
        <ele>531</ele>
        <time>2020-07-04T22:57:51Z</time>
      </trkpt>
      <trkpt lat="43.82808" lon="6.22482">
        <ele>530</ele>
        <time>2020-07-04T22:57:53Z</time>
      </trkpt>
      <trkpt lat="43.82813" lon="6.22476">
        <ele>529</ele>
        <time>2020-07-04T22:57:54Z</time>
      </trkpt>
      <trkpt lat="43.82814" lon="6.22472">
        <ele>529</ele>
        <time>2020-07-04T22:57:55Z</time>
      </trkpt>
      <trkpt lat="43.82814" lon="6.22463">
        <ele>528</ele>
        <time>2020-07-04T22:57:56Z</time>
      </trkpt>
      <trkpt lat="43.82809" lon="6.22455">
        <ele>527</ele>
        <time>2020-07-04T22:57:57Z</time>
      </trkpt>
      <trkpt lat="43.82805" lon="6.22453">
        <ele>527</ele>
        <time>2020-07-04T22:57:58Z</time>
      </trkpt>
      <trkpt lat="43.82801" lon="6.22453">
        <ele>528</ele>
        <time>2020-07-04T22:57:59Z</time>
      </trkpt>
      <trkpt lat="43.82795" lon="6.22459">
        <ele>528</ele>
        <time>2020-07-04T22:58:00Z</time>
      </trkpt>
      <trkpt lat="43.82786" lon="6.2246">
        <ele>529</ele>
        <time>2020-07-04T22:58:02Z</time>
      </trkpt>
      <trkpt lat="43.82748" lon="6.22458">
        <ele>529</ele>
        <time>2020-07-04T22:58:09Z</time>
      </trkpt>
      <trkpt lat="43.8272" lon="6.2246">
        <ele>529</ele>
        <time>2020-07-04T22:58:14Z</time>
      </trkpt>
      <trkpt lat="43.82644" lon="6.22471">
        <ele>528</ele>
        <time>2020-07-04T22:58:27Z</time>
      </trkpt>
      <trkpt lat="43.82619" lon="6.22472">
        <ele>528</ele>
        <time>2020-07-04T22:58:32Z</time>
      </trkpt>
      <trkpt lat="43.82509" lon="6.22469">
        <ele>523</ele>
        <time>2020-07-04T22:58:51Z</time>
      </trkpt>
      <trkpt lat="43.82476" lon="6.22463">
        <ele>520</ele>
        <time>2020-07-04T22:58:57Z</time>
      </trkpt>
      <trkpt lat="43.8241" lon="6.22442">
        <ele>514</ele>
        <time>2020-07-04T22:59:09Z</time>
      </trkpt>
      <trkpt lat="43.82391" lon="6.2244">
        <ele>513</ele>
        <time>2020-07-04T22:59:13Z</time>
      </trkpt>
      <trkpt lat="43.82365" lon="6.22443">
        <ele>513</ele>
        <time>2020-07-04T22:59:17Z</time>
      </trkpt>
      <trkpt lat="43.8234" lon="6.22453">
        <ele>513</ele>
        <time>2020-07-04T22:59:22Z</time>
      </trkpt>
      <trkpt lat="43.82326" lon="6.2246">
        <ele>513</ele>
        <time>2020-07-04T22:59:24Z</time>
      </trkpt>
      <trkpt lat="43.82108" lon="6.22594">
        <ele>511</ele>
        <time>2020-07-04T23:00:07Z</time>
      </trkpt>
      <trkpt lat="43.82062" lon="6.22617">
        <ele>510</ele>
        <time>2020-07-04T23:00:16Z</time>
      </trkpt>
      <trkpt lat="43.82009" lon="6.22646">
        <ele>509</ele>
        <time>2020-07-04T23:00:26Z</time>
      </trkpt>
      <trkpt lat="43.81989" lon="6.22654">
        <ele>509</ele>
        <time>2020-07-04T23:00:29Z</time>
      </trkpt>
      <trkpt lat="43.81949" lon="6.2266">
        <ele>508</ele>
        <time>2020-07-04T23:00:37Z</time>
      </trkpt>
      <trkpt lat="43.81856" lon="6.22662">
        <ele>506</ele>
        <time>2020-07-04T23:00:53Z</time>
      </trkpt>
      <trkpt lat="43.81363" lon="6.22635">
        <ele>491</ele>
        <time>2020-07-04T23:02:21Z</time>
      </trkpt>
      <trkpt lat="43.8133" lon="6.22642">
        <ele>489</ele>
        <time>2020-07-04T23:02:27Z</time>
      </trkpt>
      <trkpt lat="43.81304" lon="6.22655">
        <ele>489</ele>
        <time>2020-07-04T23:02:32Z</time>
      </trkpt>
      <trkpt lat="43.81237" lon="6.22704">
        <ele>490</ele>
        <time>2020-07-04T23:02:45Z</time>
      </trkpt>
      <trkpt lat="43.81208" lon="6.22722">
        <ele>491</ele>
        <time>2020-07-04T23:02:51Z</time>
      </trkpt>
      <trkpt lat="43.81097" lon="6.22771">
        <ele>491</ele>
        <time>2020-07-04T23:03:12Z</time>
      </trkpt>
      <trkpt lat="43.80935" lon="6.22841">
        <ele>485</ele>
        <time>2020-07-04T23:03:42Z</time>
      </trkpt>
      <trkpt lat="43.80911" lon="6.22854">
        <ele>485</ele>
        <time>2020-07-04T23:03:46Z</time>
      </trkpt>
      <trkpt lat="43.80884" lon="6.22879">
        <ele>486</ele>
        <time>2020-07-04T23:03:52Z</time>
      </trkpt>
      <trkpt lat="43.80862" lon="6.22908">
        <ele>486</ele>
        <time>2020-07-04T23:03:58Z</time>
      </trkpt>
      <trkpt lat="43.80849" lon="6.2293">
        <ele>487</ele>
        <time>2020-07-04T23:04:01Z</time>
      </trkpt>
      <trkpt lat="43.80829" lon="6.22978">
        <ele>490</ele>
        <time>2020-07-04T23:04:08Z</time>
      </trkpt>
      <trkpt lat="43.80824" lon="6.22994">
        <ele>491</ele>
        <time>2020-07-04T23:04:11Z</time>
      </trkpt>
      <trkpt lat="43.80815" lon="6.23045">
        <ele>494</ele>
        <time>2020-07-04T23:04:17Z</time>
      </trkpt>
      <trkpt lat="43.80814" lon="6.23081">
        <ele>496</ele>
        <time>2020-07-04T23:04:22Z</time>
      </trkpt>
      <trkpt lat="43.80819" lon="6.23135">
        <ele>499</ele>
        <time>2020-07-04T23:04:29Z</time>
      </trkpt>
      <trkpt lat="43.8083" lon="6.23184">
        <ele>502</ele>
        <time>2020-07-04T23:04:36Z</time>
      </trkpt>
      <trkpt lat="43.80856" lon="6.23272">
        <ele>507</ele>
        <time>2020-07-04T23:04:48Z</time>
      </trkpt>
      <trkpt lat="43.8086" lon="6.23296">
        <ele>507</ele>
        <time>2020-07-04T23:04:51Z</time>
      </trkpt>
      <trkpt lat="43.80862" lon="6.23324">
        <ele>508</ele>
        <time>2020-07-04T23:04:55Z</time>
      </trkpt>
      <trkpt lat="43.80858" lon="6.23365">
        <ele>511</ele>
        <time>2020-07-04T23:05:00Z</time>
      </trkpt>
      <trkpt lat="43.80855" lon="6.23379">
        <ele>512</ele>
        <time>2020-07-04T23:05:02Z</time>
      </trkpt>
      <trkpt lat="43.80846" lon="6.23404">
        <ele>515</ele>
        <time>2020-07-04T23:05:05Z</time>
      </trkpt>
      <trkpt lat="43.80833" lon="6.23429">
        <ele>517</ele>
        <time>2020-07-04T23:05:09Z</time>
      </trkpt>
      <trkpt lat="43.80817" lon="6.23449">
        <ele>519</ele>
        <time>2020-07-04T23:05:13Z</time>
      </trkpt>
      <trkpt lat="43.80789" lon="6.2347">
        <ele>521</ele>
        <time>2020-07-04T23:05:19Z</time>
      </trkpt>
      <trkpt lat="43.80779" lon="6.23474">
        <ele>521</ele>
        <time>2020-07-04T23:05:21Z</time>
      </trkpt>
      <trkpt lat="43.80759" lon="6.23478">
        <ele>522</ele>
        <time>2020-07-04T23:05:24Z</time>
      </trkpt>
      <trkpt lat="43.80736" lon="6.23478">
        <ele>523</ele>
        <time>2020-07-04T23:05:28Z</time>
      </trkpt>
      <trkpt lat="43.80412" lon="6.23369">
        <ele>528</ele>
        <time>2020-07-04T23:06:28Z</time>
      </trkpt>
      <trkpt lat="43.804" lon="6.23369">
        <ele>529</ele>
        <time>2020-07-04T23:06:30Z</time>
      </trkpt>
      <trkpt lat="43.80379" lon="6.23372">
        <ele>530</ele>
        <time>2020-07-04T23:06:34Z</time>
      </trkpt>
      <trkpt lat="43.8036" lon="6.23385">
        <ele>531</ele>
        <time>2020-07-04T23:06:37Z</time>
      </trkpt>
      <trkpt lat="43.80352" lon="6.23393">
        <ele>531</ele>
        <time>2020-07-04T23:06:39Z</time>
      </trkpt>
      <trkpt lat="43.8034" lon="6.23409">
        <ele>532</ele>
        <time>2020-07-04T23:06:42Z</time>
      </trkpt>
      <trkpt lat="43.80333" lon="6.23428">
        <ele>531</ele>
        <time>2020-07-04T23:06:45Z</time>
      </trkpt>
      <trkpt lat="43.80326" lon="6.23462">
        <ele>527</ele>
        <time>2020-07-04T23:06:49Z</time>
      </trkpt>
      <trkpt lat="43.80325" lon="6.23474">
        <ele>526</ele>
        <time>2020-07-04T23:06:51Z</time>
      </trkpt>
      <trkpt lat="43.80327" lon="6.23498">
        <ele>524</ele>
        <time>2020-07-04T23:06:54Z</time>
      </trkpt>
      <trkpt lat="43.8033" lon="6.23513">
        <ele>523</ele>
        <time>2020-07-04T23:06:56Z</time>
      </trkpt>
      <trkpt lat="43.80341" lon="6.23539">
        <ele>522</ele>
        <time>2020-07-04T23:07:00Z</time>
      </trkpt>
      <trkpt lat="43.80402" lon="6.23662">
        <ele>523</ele>
        <time>2020-07-04T23:07:19Z</time>
      </trkpt>
      <trkpt lat="43.80415" lon="6.23693">
        <ele>523</ele>
        <time>2020-07-04T23:07:24Z</time>
      </trkpt>
      <trkpt lat="43.80424" lon="6.23725">
        <ele>522</ele>
        <time>2020-07-04T23:07:28Z</time>
      </trkpt>
      <trkpt lat="43.80428" lon="6.23767">
        <ele>519</ele>
        <time>2020-07-04T23:07:33Z</time>
      </trkpt>
      <trkpt lat="43.80426" lon="6.23811">
        <ele>515</ele>
        <time>2020-07-04T23:07:39Z</time>
      </trkpt>
      <trkpt lat="43.80411" lon="6.23904">
        <ele>508</ele>
        <time>2020-07-04T23:07:51Z</time>
      </trkpt>
      <trkpt lat="43.80408" lon="6.23946">
        <ele>508</ele>
        <time>2020-07-04T23:07:57Z</time>
      </trkpt>
      <trkpt lat="43.8041" lon="6.23991">
        <ele>510</ele>
        <time>2020-07-04T23:08:03Z</time>
      </trkpt>
      <trkpt lat="43.80422" lon="6.24081">
        <ele>509</ele>
        <time>2020-07-04T23:08:14Z</time>
      </trkpt>
      <trkpt lat="43.80426" lon="6.24128">
        <ele>507</ele>
        <time>2020-07-04T23:08:20Z</time>
      </trkpt>
      <trkpt lat="43.80425" lon="6.24191">
        <ele>502</ele>
        <time>2020-07-04T23:08:28Z</time>
      </trkpt>
      <trkpt lat="43.8042" lon="6.24267">
        <ele>498</ele>
        <time>2020-07-04T23:08:38Z</time>
      </trkpt>
      <trkpt lat="43.80417" lon="6.24333">
        <ele>495</ele>
        <time>2020-07-04T23:08:47Z</time>
      </trkpt>
      <trkpt lat="43.80418" lon="6.24356">
        <ele>494</ele>
        <time>2020-07-04T23:08:50Z</time>
      </trkpt>
      <trkpt lat="43.80424" lon="6.24433">
        <ele>492</ele>
        <time>2020-07-04T23:09:00Z</time>
      </trkpt>
      <trkpt lat="43.80424" lon="6.2448">
        <ele>489</ele>
        <time>2020-07-04T23:09:06Z</time>
      </trkpt>
      <trkpt lat="43.80398" lon="6.24712">
        <ele>486</ele>
        <time>2020-07-04T23:09:36Z</time>
      </trkpt>
      <trkpt lat="43.80391" lon="6.24741">
        <ele>487</ele>
        <time>2020-07-04T23:09:40Z</time>
      </trkpt>
      <trkpt lat="43.80386" lon="6.24757">
        <ele>487</ele>
        <time>2020-07-04T23:09:42Z</time>
      </trkpt>
      <trkpt lat="43.80379" lon="6.24774">
        <ele>487</ele>
        <time>2020-07-04T23:09:45Z</time>
      </trkpt>
      <trkpt lat="43.80368" lon="6.24794">
        <ele>488</ele>
        <time>2020-07-04T23:09:48Z</time>
      </trkpt>
      <trkpt lat="43.80313" lon="6.2488">
        <ele>491</ele>
        <time>2020-07-04T23:10:03Z</time>
      </trkpt>
      <trkpt lat="43.80307" lon="6.24894">
        <ele>492</ele>
        <time>2020-07-04T23:10:05Z</time>
      </trkpt>
      <trkpt lat="43.80304" lon="6.24905">
        <ele>492</ele>
        <time>2020-07-04T23:10:06Z</time>
      </trkpt>
      <trkpt lat="43.80301" lon="6.24938">
        <ele>495</ele>
        <time>2020-07-04T23:10:10Z</time>
      </trkpt>
      <trkpt lat="43.80295" lon="6.24963">
        <ele>496</ele>
        <time>2020-07-04T23:10:14Z</time>
      </trkpt>
      <trkpt lat="43.80286" lon="6.2498">
        <ele>495</ele>
        <time>2020-07-04T23:10:16Z</time>
      </trkpt>
      <trkpt lat="43.80278" lon="6.24988">
        <ele>494</ele>
        <time>2020-07-04T23:10:18Z</time>
      </trkpt>
      <trkpt lat="43.8027" lon="6.24992">
        <ele>493</ele>
        <time>2020-07-04T23:10:20Z</time>
      </trkpt>
      <trkpt lat="43.80255" lon="6.24995">
        <ele>490</ele>
        <time>2020-07-04T23:10:22Z</time>
      </trkpt>
      <trkpt lat="43.80236" lon="6.24989">
        <ele>487</ele>
        <time>2020-07-04T23:10:26Z</time>
      </trkpt>
      <trkpt lat="43.80219" lon="6.24979">
        <ele>485</ele>
        <time>2020-07-04T23:10:29Z</time>
      </trkpt>
      <trkpt lat="43.80127" lon="6.24908">
        <ele>496</ele>
        <time>2020-07-04T23:10:48Z</time>
      </trkpt>
      <trkpt lat="43.8012" lon="6.24902">
        <ele>498</ele>
        <time>2020-07-04T23:10:49Z</time>
      </trkpt>
      <trkpt lat="43.80121" lon="6.24883">
        <ele>494</ele>
        <time>2020-07-04T23:10:52Z</time>
      </trkpt>
      <trkpt lat="43.80121" lon="6.24875">
        <ele>493</ele>
        <time>2020-07-04T23:10:53Z</time>
      </trkpt>
      <trkpt lat="43.80117" lon="6.24866">
        <ele>493</ele>
        <time>2020-07-04T23:10:54Z</time>
      </trkpt>
      <trkpt lat="43.80103" lon="6.24878">
        <ele>501</ele>
        <time>2020-07-04T23:10:57Z</time>
      </trkpt>
      <trkpt lat="43.80107" lon="6.24887">
        <ele>501</ele>
        <time>2020-07-04T23:10:59Z</time>
      </trkpt>
      <trkpt lat="43.80113" lon="6.24895">
        <ele>500</ele>
        <time>2020-07-04T23:11:00Z</time>
      </trkpt>
      <trkpt lat="43.8012" lon="6.24902">
        <ele>498</ele>
        <time>2020-07-04T23:11:02Z</time>
      </trkpt>
      <trkpt lat="43.80127" lon="6.24908">
        <ele>496</ele>
        <time>2020-07-04T23:11:03Z</time>
      </trkpt>
      <trkpt lat="43.80219" lon="6.24979">
        <ele>485</ele>
        <time>2020-07-04T23:11:22Z</time>
      </trkpt>
      <trkpt lat="43.80236" lon="6.24989">
        <ele>487</ele>
        <time>2020-07-04T23:11:25Z</time>
      </trkpt>
      <trkpt lat="43.80255" lon="6.24995">
        <ele>490</ele>
        <time>2020-07-04T23:11:28Z</time>
      </trkpt>
      <trkpt lat="43.8027" lon="6.24992">
        <ele>493</ele>
        <time>2020-07-04T23:11:31Z</time>
      </trkpt>
      <trkpt lat="43.80278" lon="6.24988">
        <ele>494</ele>
        <time>2020-07-04T23:11:33Z</time>
      </trkpt>
      <trkpt lat="43.80286" lon="6.2498">
        <ele>495</ele>
        <time>2020-07-04T23:11:34Z</time>
      </trkpt>
      <trkpt lat="43.80295" lon="6.24963">
        <ele>496</ele>
        <time>2020-07-04T23:11:37Z</time>
      </trkpt>
      <trkpt lat="43.80301" lon="6.24938">
        <ele>495</ele>
        <time>2020-07-04T23:11:41Z</time>
      </trkpt>
      <trkpt lat="43.80304" lon="6.24905">
        <ele>492</ele>
        <time>2020-07-04T23:11:45Z</time>
      </trkpt>
      <trkpt lat="43.80307" lon="6.24894">
        <ele>492</ele>
        <time>2020-07-04T23:11:46Z</time>
      </trkpt>
      <trkpt lat="43.80313" lon="6.2488">
        <ele>491</ele>
        <time>2020-07-04T23:11:48Z</time>
      </trkpt>
      <trkpt lat="43.80368" lon="6.24794">
        <ele>488</ele>
        <time>2020-07-04T23:12:03Z</time>
      </trkpt>
      <trkpt lat="43.80379" lon="6.24774">
        <ele>487</ele>
        <time>2020-07-04T23:12:06Z</time>
      </trkpt>
      <trkpt lat="43.80386" lon="6.24757">
        <ele>487</ele>
        <time>2020-07-04T23:12:09Z</time>
      </trkpt>
      <trkpt lat="43.80391" lon="6.24741">
        <ele>487</ele>
        <time>2020-07-04T23:12:11Z</time>
      </trkpt>
      <trkpt lat="43.80398" lon="6.24712">
        <ele>486</ele>
        <time>2020-07-04T23:12:15Z</time>
      </trkpt>
      <trkpt lat="43.80424" lon="6.2448">
        <ele>489</ele>
        <time>2020-07-04T23:12:45Z</time>
      </trkpt>
      <trkpt lat="43.80424" lon="6.24433">
        <ele>492</ele>
        <time>2020-07-04T23:12:51Z</time>
      </trkpt>
      <trkpt lat="43.80418" lon="6.24356">
        <ele>494</ele>
        <time>2020-07-04T23:13:01Z</time>
      </trkpt>
      <trkpt lat="43.80417" lon="6.24333">
        <ele>495</ele>
        <time>2020-07-04T23:13:04Z</time>
      </trkpt>
      <trkpt lat="43.8042" lon="6.24267">
        <ele>498</ele>
        <time>2020-07-04T23:13:13Z</time>
      </trkpt>
      <trkpt lat="43.80425" lon="6.24191">
        <ele>502</ele>
        <time>2020-07-04T23:13:22Z</time>
      </trkpt>
      <trkpt lat="43.80426" lon="6.24128">
        <ele>507</ele>
        <time>2020-07-04T23:13:31Z</time>
      </trkpt>
      <trkpt lat="43.80422" lon="6.24081">
        <ele>509</ele>
        <time>2020-07-04T23:13:37Z</time>
      </trkpt>
      <trkpt lat="43.8041" lon="6.23991">
        <ele>510</ele>
        <time>2020-07-04T23:13:48Z</time>
      </trkpt>
      <trkpt lat="43.80408" lon="6.23946">
        <ele>508</ele>
        <time>2020-07-04T23:13:54Z</time>
      </trkpt>
      <trkpt lat="43.80411" lon="6.23904">
        <ele>508</ele>
        <time>2020-07-04T23:14:00Z</time>
      </trkpt>
      <trkpt lat="43.80426" lon="6.23811">
        <ele>515</ele>
        <time>2020-07-04T23:14:12Z</time>
      </trkpt>
      <trkpt lat="43.80428" lon="6.23767">
        <ele>519</ele>
        <time>2020-07-04T23:14:17Z</time>
      </trkpt>
      <trkpt lat="43.80424" lon="6.23725">
        <ele>522</ele>
        <time>2020-07-04T23:14:23Z</time>
      </trkpt>
      <trkpt lat="43.80415" lon="6.23693">
        <ele>523</ele>
        <time>2020-07-04T23:14:27Z</time>
      </trkpt>
      <trkpt lat="43.80402" lon="6.23662">
        <ele>523</ele>
        <time>2020-07-04T23:14:32Z</time>
      </trkpt>
      <trkpt lat="43.80341" lon="6.23539">
        <ele>522</ele>
        <time>2020-07-04T23:14:51Z</time>
      </trkpt>
      <trkpt lat="43.8033" lon="6.23513">
        <ele>523</ele>
        <time>2020-07-04T23:14:55Z</time>
      </trkpt>
      <trkpt lat="43.80327" lon="6.23498">
        <ele>524</ele>
        <time>2020-07-04T23:14:57Z</time>
      </trkpt>
      <trkpt lat="43.80325" lon="6.23474">
        <ele>526</ele>
        <time>2020-07-04T23:15:00Z</time>
      </trkpt>
      <trkpt lat="43.80326" lon="6.23462">
        <ele>527</ele>
        <time>2020-07-04T23:15:02Z</time>
      </trkpt>
      <trkpt lat="43.80333" lon="6.23428">
        <ele>531</ele>
        <time>2020-07-04T23:15:06Z</time>
      </trkpt>
      <trkpt lat="43.8034" lon="6.23409">
        <ele>532</ele>
        <time>2020-07-04T23:15:09Z</time>
      </trkpt>
      <trkpt lat="43.80352" lon="6.23393">
        <ele>531</ele>
        <time>2020-07-04T23:15:12Z</time>
      </trkpt>
      <trkpt lat="43.8036" lon="6.23385">
        <ele>531</ele>
        <time>2020-07-04T23:15:14Z</time>
      </trkpt>
      <trkpt lat="43.80379" lon="6.23372">
        <ele>530</ele>
        <time>2020-07-04T23:15:17Z</time>
      </trkpt>
      <trkpt lat="43.804" lon="6.23369">
        <ele>529</ele>
        <time>2020-07-04T23:15:21Z</time>
      </trkpt>
      <trkpt lat="43.80412" lon="6.23369">
        <ele>528</ele>
        <time>2020-07-04T23:15:23Z</time>
      </trkpt>
      <trkpt lat="43.80736" lon="6.23478">
        <ele>523</ele>
        <time>2020-07-04T23:16:23Z</time>
      </trkpt>
      <trkpt lat="43.80759" lon="6.23478">
        <ele>522</ele>
        <time>2020-07-04T23:16:27Z</time>
      </trkpt>
      <trkpt lat="43.80779" lon="6.23474">
        <ele>521</ele>
        <time>2020-07-04T23:16:30Z</time>
      </trkpt>
      <trkpt lat="43.80789" lon="6.2347">
        <ele>521</ele>
        <time>2020-07-04T23:16:32Z</time>
      </trkpt>
      <trkpt lat="43.80817" lon="6.23449">
        <ele>519</ele>
        <time>2020-07-04T23:16:38Z</time>
      </trkpt>
      <trkpt lat="43.80833" lon="6.23429">
        <ele>517</ele>
        <time>2020-07-04T23:16:42Z</time>
      </trkpt>
      <trkpt lat="43.80846" lon="6.23404">
        <ele>515</ele>
        <time>2020-07-04T23:16:46Z</time>
      </trkpt>
      <trkpt lat="43.80855" lon="6.23379">
        <ele>512</ele>
        <time>2020-07-04T23:16:49Z</time>
      </trkpt>
      <trkpt lat="43.80858" lon="6.23365">
        <ele>511</ele>
        <time>2020-07-04T23:16:51Z</time>
      </trkpt>
      <trkpt lat="43.80862" lon="6.23324">
        <ele>508</ele>
        <time>2020-07-04T23:16:56Z</time>
      </trkpt>
      <trkpt lat="43.8086" lon="6.23296">
        <ele>507</ele>
        <time>2020-07-04T23:17:00Z</time>
      </trkpt>
      <trkpt lat="43.80856" lon="6.23272">
        <ele>507</ele>
        <time>2020-07-04T23:17:03Z</time>
      </trkpt>
      <trkpt lat="43.8083" lon="6.23184">
        <ele>502</ele>
        <time>2020-07-04T23:17:15Z</time>
      </trkpt>
      <trkpt lat="43.80819" lon="6.23135">
        <ele>499</ele>
        <time>2020-07-04T23:17:22Z</time>
      </trkpt>
      <trkpt lat="43.80814" lon="6.23081">
        <ele>496</ele>
        <time>2020-07-04T23:17:29Z</time>
      </trkpt>
      <trkpt lat="43.80815" lon="6.23045">
        <ele>494</ele>
        <time>2020-07-04T23:17:34Z</time>
      </trkpt>
      <trkpt lat="43.80824" lon="6.22994">
        <ele>491</ele>
        <time>2020-07-04T23:17:40Z</time>
      </trkpt>
      <trkpt lat="43.80829" lon="6.22978">
        <ele>490</ele>
        <time>2020-07-04T23:17:43Z</time>
      </trkpt>
      <trkpt lat="43.80849" lon="6.2293">
        <ele>487</ele>
        <time>2020-07-04T23:17:50Z</time>
      </trkpt>
      <trkpt lat="43.80862" lon="6.22908">
        <ele>486</ele>
        <time>2020-07-04T23:17:53Z</time>
      </trkpt>
      <trkpt lat="43.80884" lon="6.22879">
        <ele>486</ele>
        <time>2020-07-04T23:17:59Z</time>
      </trkpt>
      <trkpt lat="43.80911" lon="6.22854">
        <ele>485</ele>
        <time>2020-07-04T23:18:04Z</time>
      </trkpt>
      <trkpt lat="43.80935" lon="6.22841">
        <ele>485</ele>
        <time>2020-07-04T23:18:09Z</time>
      </trkpt>
      <trkpt lat="43.81097" lon="6.22771">
        <ele>491</ele>
        <time>2020-07-04T23:18:39Z</time>
      </trkpt>
      <trkpt lat="43.81208" lon="6.22722">
        <ele>491</ele>
        <time>2020-07-04T23:19:00Z</time>
      </trkpt>
      <trkpt lat="43.81237" lon="6.22704">
        <ele>490</ele>
        <time>2020-07-04T23:19:06Z</time>
      </trkpt>
      <trkpt lat="43.81304" lon="6.22655">
        <ele>489</ele>
        <time>2020-07-04T23:19:19Z</time>
      </trkpt>
      <trkpt lat="43.8133" lon="6.22642">
        <ele>489</ele>
        <time>2020-07-04T23:19:24Z</time>
      </trkpt>
      <trkpt lat="43.81363" lon="6.22635">
        <ele>491</ele>
        <time>2020-07-04T23:19:30Z</time>
      </trkpt>
      <trkpt lat="43.81856" lon="6.22662">
        <ele>506</ele>
        <time>2020-07-04T23:20:58Z</time>
      </trkpt>
      <trkpt lat="43.81917" lon="6.2267">
        <ele>509</ele>
        <time>2020-07-04T23:21:09Z</time>
      </trkpt>
      <trkpt lat="43.8195" lon="6.22671">
        <ele>509</ele>
        <time>2020-07-04T23:21:15Z</time>
      </trkpt>
      <trkpt lat="43.81988" lon="6.22666">
        <ele>510</ele>
        <time>2020-07-04T23:21:21Z</time>
      </trkpt>
      <trkpt lat="43.82013" lon="6.22656">
        <ele>510</ele>
        <time>2020-07-04T23:21:26Z</time>
      </trkpt>
      <trkpt lat="43.82065" lon="6.22627">
        <ele>511</ele>
        <time>2020-07-04T23:21:36Z</time>
      </trkpt>
      <trkpt lat="43.82108" lon="6.22594">
        <ele>511</ele>
        <time>2020-07-04T23:21:45Z</time>
      </trkpt>
      <trkpt lat="43.82326" lon="6.2246">
        <ele>513</ele>
        <time>2020-07-04T23:22:27Z</time>
      </trkpt>
      <trkpt lat="43.8234" lon="6.22453">
        <ele>513</ele>
        <time>2020-07-04T23:22:30Z</time>
      </trkpt>
      <trkpt lat="43.82365" lon="6.22443">
        <ele>513</ele>
        <time>2020-07-04T23:22:34Z</time>
      </trkpt>
      <trkpt lat="43.82391" lon="6.2244">
        <ele>513</ele>
        <time>2020-07-04T23:22:39Z</time>
      </trkpt>
      <trkpt lat="43.8241" lon="6.22442">
        <ele>514</ele>
        <time>2020-07-04T23:22:42Z</time>
      </trkpt>
      <trkpt lat="43.82476" lon="6.22463">
        <ele>520</ele>
        <time>2020-07-04T23:22:54Z</time>
      </trkpt>
      <trkpt lat="43.82509" lon="6.22469">
        <ele>523</ele>
        <time>2020-07-04T23:23:00Z</time>
      </trkpt>
      <trkpt lat="43.82619" lon="6.22472">
        <ele>528</ele>
        <time>2020-07-04T23:23:20Z</time>
      </trkpt>
      <trkpt lat="43.82644" lon="6.22471">
        <ele>528</ele>
        <time>2020-07-04T23:23:24Z</time>
      </trkpt>
      <trkpt lat="43.8272" lon="6.2246">
        <ele>529</ele>
        <time>2020-07-04T23:23:38Z</time>
      </trkpt>
      <trkpt lat="43.82748" lon="6.22458">
        <ele>529</ele>
        <time>2020-07-04T23:23:43Z</time>
      </trkpt>
      <trkpt lat="43.82764" lon="6.2246">
        <ele>529</ele>
        <time>2020-07-04T23:23:46Z</time>
      </trkpt>
      <trkpt lat="43.82787" lon="6.22469">
        <ele>529</ele>
        <time>2020-07-04T23:23:50Z</time>
      </trkpt>
      <trkpt lat="43.82793" lon="6.22473">
        <ele>529</ele>
        <time>2020-07-04T23:23:51Z</time>
      </trkpt>
      <trkpt lat="43.82798" lon="6.22482">
        <ele>530</ele>
        <time>2020-07-04T23:23:53Z</time>
      </trkpt>
      <trkpt lat="43.82803" lon="6.22484">
        <ele>530</ele>
        <time>2020-07-04T23:23:54Z</time>
      </trkpt>
      <trkpt lat="43.82811" lon="6.2248">
        <ele>529</ele>
        <time>2020-07-04T23:23:55Z</time>
      </trkpt>
      <trkpt lat="43.82814" lon="6.22472">
        <ele>529</ele>
        <time>2020-07-04T23:23:56Z</time>
      </trkpt>
      <trkpt lat="43.82824" lon="6.22468">
        <ele>528</ele>
        <time>2020-07-04T23:23:58Z</time>
      </trkpt>
      <trkpt lat="43.82845" lon="6.22466">
        <ele>527</ele>
        <time>2020-07-04T23:24:02Z</time>
      </trkpt>
      <trkpt lat="43.82927" lon="6.22484">
        <ele>521</ele>
        <time>2020-07-04T23:24:17Z</time>
      </trkpt>
      <trkpt lat="43.82954" lon="6.22488">
        <ele>521</ele>
        <time>2020-07-04T23:24:22Z</time>
      </trkpt>
      <trkpt lat="43.8302" lon="6.22498">
        <ele>522</ele>
        <time>2020-07-04T23:24:33Z</time>
      </trkpt>
      <trkpt lat="43.83054" lon="6.22499">
        <ele>525</ele>
        <time>2020-07-04T23:24:39Z</time>
      </trkpt>
      <trkpt lat="43.8309" lon="6.2249">
        <ele>527</ele>
        <time>2020-07-04T23:24:46Z</time>
      </trkpt>
      <trkpt lat="43.83116" lon="6.22474">
        <ele>530</ele>
        <time>2020-07-04T23:24:51Z</time>
      </trkpt>
      <trkpt lat="43.83126" lon="6.22465">
        <ele>530</ele>
        <time>2020-07-04T23:24:53Z</time>
      </trkpt>
      <trkpt lat="43.83154" lon="6.22429">
        <ele>531</ele>
        <time>2020-07-04T23:25:00Z</time>
      </trkpt>
      <trkpt lat="43.83188" lon="6.22379">
        <ele>532</ele>
        <time>2020-07-04T23:25:09Z</time>
      </trkpt>
      <trkpt lat="43.83271" lon="6.22239">
        <ele>532</ele>
        <time>2020-07-04T23:25:32Z</time>
      </trkpt>
      <trkpt lat="43.83329" lon="6.22157">
        <ele>534</ele>
        <time>2020-07-04T23:25:47Z</time>
      </trkpt>
      <trkpt lat="43.83348" lon="6.22137">
        <ele>535</ele>
        <time>2020-07-04T23:25:51Z</time>
      </trkpt>
      <trkpt lat="43.83385" lon="6.22116">
        <ele>537</ele>
        <time>2020-07-04T23:25:58Z</time>
      </trkpt>
      <trkpt lat="43.83424" lon="6.22089">
        <ele>539</ele>
        <time>2020-07-04T23:26:06Z</time>
      </trkpt>
      <trkpt lat="43.83441" lon="6.22079">
        <ele>541</ele>
        <time>2020-07-04T23:26:09Z</time>
      </trkpt>
      <trkpt lat="43.83448" lon="6.22077">
        <ele>542</ele>
        <time>2020-07-04T23:26:10Z</time>
      </trkpt>
      <trkpt lat="43.83458" lon="6.2208">
        <ele>544</ele>
        <time>2020-07-04T23:26:12Z</time>
      </trkpt>
      <trkpt lat="43.83465" lon="6.22094">
        <ele>547</ele>
        <time>2020-07-04T23:26:14Z</time>
      </trkpt>
      <trkpt lat="43.83465" lon="6.22102">
        <ele>547</ele>
        <time>2020-07-04T23:26:15Z</time>
      </trkpt>
      <trkpt lat="43.83464" lon="6.22108">
        <ele>547</ele>
        <time>2020-07-04T23:26:16Z</time>
      </trkpt>
      <trkpt lat="43.8346" lon="6.22118">
        <ele>547</ele>
        <time>2020-07-04T23:26:18Z</time>
      </trkpt>
      <trkpt lat="43.83406" lon="6.22189">
        <ele>544</ele>
        <time>2020-07-04T23:26:31Z</time>
      </trkpt>
      <trkpt lat="43.83398" lon="6.22205">
        <ele>544</ele>
        <time>2020-07-04T23:26:33Z</time>
      </trkpt>
      <trkpt lat="43.83397" lon="6.22213">
        <ele>545</ele>
        <time>2020-07-04T23:26:34Z</time>
      </trkpt>
      <trkpt lat="43.834" lon="6.22222">
        <ele>546</ele>
        <time>2020-07-04T23:26:36Z</time>
      </trkpt>
      <trkpt lat="43.83404" lon="6.22229">
        <ele>547</ele>
        <time>2020-07-04T23:26:37Z</time>
      </trkpt>
      <trkpt lat="43.83409" lon="6.22232">
        <ele>548</ele>
        <time>2020-07-04T23:26:38Z</time>
      </trkpt>
      <trkpt lat="43.83415" lon="6.22232">
        <ele>548</ele>
        <time>2020-07-04T23:26:39Z</time>
      </trkpt>
      <trkpt lat="43.8342" lon="6.2223">
        <ele>549</ele>
        <time>2020-07-04T23:26:40Z</time>
      </trkpt>
      <trkpt lat="43.83435" lon="6.22211">
        <ele>551</ele>
        <time>2020-07-04T23:26:43Z</time>
      </trkpt>
      <trkpt lat="43.8345" lon="6.22198">
        <ele>552</ele>
        <time>2020-07-04T23:26:47Z</time>
      </trkpt>
      <trkpt lat="43.83456" lon="6.22195">
        <ele>553</ele>
        <time>2020-07-04T23:26:48Z</time>
      </trkpt>
      <trkpt lat="43.83479" lon="6.22191">
        <ele>557</ele>
        <time>2020-07-04T23:26:52Z</time>
      </trkpt>
      <trkpt lat="43.83494" lon="6.22184">
        <ele>559</ele>
        <time>2020-07-04T23:26:55Z</time>
      </trkpt>
      <trkpt lat="43.83499" lon="6.22177">
        <ele>559</ele>
        <time>2020-07-04T23:26:56Z</time>
      </trkpt>
      <trkpt lat="43.83503" lon="6.22167">
        <ele>559</ele>
        <time>2020-07-04T23:26:57Z</time>
      </trkpt>
      <trkpt lat="43.83508" lon="6.22142">
        <ele>558</ele>
        <time>2020-07-04T23:27:01Z</time>
      </trkpt>
      <trkpt lat="43.83512" lon="6.22131">
        <ele>558</ele>
        <time>2020-07-04T23:27:02Z</time>
      </trkpt>
      <trkpt lat="43.83534" lon="6.22101">
        <ele>559</ele>
        <time>2020-07-04T23:27:08Z</time>
      </trkpt>
      <trkpt lat="43.8354" lon="6.22094">
        <ele>559</ele>
        <time>2020-07-04T23:27:09Z</time>
      </trkpt>
      <trkpt lat="43.83547" lon="6.22091">
        <ele>560</ele>
        <time>2020-07-04T23:27:11Z</time>
      </trkpt>
      <trkpt lat="43.83576" lon="6.22089">
        <ele>565</ele>
        <time>2020-07-04T23:27:16Z</time>
      </trkpt>
      <trkpt lat="43.83587" lon="6.22087">
        <ele>566</ele>
        <time>2020-07-04T23:27:18Z</time>
      </trkpt>
      <trkpt lat="43.83618" lon="6.2207">
        <ele>566</ele>
        <time>2020-07-04T23:27:24Z</time>
      </trkpt>
      <trkpt lat="43.83634" lon="6.22067">
        <ele>567</ele>
        <time>2020-07-04T23:27:26Z</time>
      </trkpt>
      <trkpt lat="43.83659" lon="6.22071">
        <ele>569</ele>
        <time>2020-07-04T23:27:31Z</time>
      </trkpt>
      <trkpt lat="43.83746" lon="6.22103">
        <ele>580</ele>
        <time>2020-07-04T23:27:47Z</time>
      </trkpt>
      <trkpt lat="43.8378" lon="6.22125">
        <ele>585</ele>
        <time>2020-07-04T23:27:54Z</time>
      </trkpt>
      <trkpt lat="43.83793" lon="6.22136">
        <ele>586</ele>
        <time>2020-07-04T23:27:56Z</time>
      </trkpt>
      <trkpt lat="43.83798" lon="6.22143">
        <ele>587</ele>
        <time>2020-07-04T23:27:58Z</time>
      </trkpt>
      <trkpt lat="43.83805" lon="6.22162">
        <ele>590</ele>
        <time>2020-07-04T23:28:00Z</time>
      </trkpt>
      <trkpt lat="43.83811" lon="6.22171">
        <ele>591</ele>
        <time>2020-07-04T23:28:02Z</time>
      </trkpt>
      <trkpt lat="43.83815" lon="6.22176">
        <ele>591</ele>
        <time>2020-07-04T23:28:03Z</time>
      </trkpt>
      <trkpt lat="43.83822" lon="6.22178">
        <ele>591</ele>
        <time>2020-07-04T23:28:04Z</time>
      </trkpt>
      <trkpt lat="43.8383" lon="6.22178">
        <ele>590</ele>
        <time>2020-07-04T23:28:06Z</time>
      </trkpt>
      <trkpt lat="43.83837" lon="6.22174">
        <ele>590</ele>
        <time>2020-07-04T23:28:07Z</time>
      </trkpt>
      <trkpt lat="43.83843" lon="6.22166">
        <ele>589</ele>
        <time>2020-07-04T23:28:08Z</time>
      </trkpt>
      <trkpt lat="43.83854" lon="6.22141">
        <ele>587</ele>
        <time>2020-07-04T23:28:12Z</time>
      </trkpt>
      <trkpt lat="43.83865" lon="6.22128">
        <ele>587</ele>
        <time>2020-07-04T23:28:15Z</time>
      </trkpt>
      <trkpt lat="43.83879" lon="6.22122">
        <ele>587</ele>
        <time>2020-07-04T23:28:17Z</time>
      </trkpt>
      <trkpt lat="43.83887" lon="6.22122">
        <ele>588</ele>
        <time>2020-07-04T23:28:19Z</time>
      </trkpt>
      <trkpt lat="43.83901" lon="6.22126">
        <ele>589</ele>
        <time>2020-07-04T23:28:21Z</time>
      </trkpt>
      <trkpt lat="43.83909" lon="6.22134">
        <ele>591</ele>
        <time>2020-07-04T23:28:23Z</time>
      </trkpt>
      <trkpt lat="43.83919" lon="6.22145">
        <ele>593</ele>
        <time>2020-07-04T23:28:25Z</time>
      </trkpt>
      <trkpt lat="43.83942" lon="6.22178">
        <ele>596</ele>
        <time>2020-07-04T23:28:31Z</time>
      </trkpt>
      <trkpt lat="43.83951" lon="6.22187">
        <ele>597</ele>
        <time>2020-07-04T23:28:33Z</time>
      </trkpt>
      <trkpt lat="43.83961" lon="6.22193">
        <ele>597</ele>
        <time>2020-07-04T23:28:35Z</time>
      </trkpt>
      <trkpt lat="43.83981" lon="6.22199">
        <ele>597</ele>
        <time>2020-07-04T23:28:39Z</time>
      </trkpt>
      <trkpt lat="43.8399" lon="6.22198">
        <ele>596</ele>
        <time>2020-07-04T23:28:40Z</time>
      </trkpt>
      <trkpt lat="43.84039" lon="6.22189">
        <ele>599</ele>
        <time>2020-07-04T23:28:49Z</time>
      </trkpt>
      <trkpt lat="43.84095" lon="6.22143">
        <ele>599</ele>
        <time>2020-07-04T23:29:01Z</time>
      </trkpt>
      <trkpt lat="43.84117" lon="6.22137">
        <ele>601</ele>
        <time>2020-07-04T23:29:05Z</time>
      </trkpt>
      <trkpt lat="43.8412" lon="6.22141">
        <ele>602</ele>
        <time>2020-07-04T23:29:06Z</time>
      </trkpt>
      <trkpt lat="43.84124" lon="6.22142">
        <ele>602</ele>
        <time>2020-07-04T23:29:06Z</time>
      </trkpt>
      <trkpt lat="43.84131" lon="6.22139">
        <ele>603</ele>
        <time>2020-07-04T23:29:08Z</time>
      </trkpt>
      <trkpt lat="43.84135" lon="6.22129">
        <ele>601</ele>
        <time>2020-07-04T23:29:09Z</time>
      </trkpt>
      <trkpt lat="43.84133" lon="6.2212">
        <ele>600</ele>
        <time>2020-07-04T23:29:10Z</time>
      </trkpt>
      <trkpt lat="43.84142" lon="6.22098">
        <ele>598</ele>
        <time>2020-07-04T23:29:13Z</time>
      </trkpt>
      <trkpt lat="43.84153" lon="6.22082">
        <ele>596</ele>
        <time>2020-07-04T23:29:16Z</time>
      </trkpt>
      <trkpt lat="43.84187" lon="6.22034">
        <ele>591</ele>
        <time>2020-07-04T23:29:25Z</time>
      </trkpt>
      <trkpt lat="43.84201" lon="6.22018">
        <ele>589</ele>
        <time>2020-07-04T23:29:28Z</time>
      </trkpt>
      <trkpt lat="43.84226" lon="6.21997">
        <ele>587</ele>
        <time>2020-07-04T23:29:33Z</time>
      </trkpt>
      <trkpt lat="43.84239" lon="6.21988">
        <ele>587</ele>
        <time>2020-07-04T23:29:36Z</time>
      </trkpt>
      <trkpt lat="43.84265" lon="6.21976">
        <ele>586</ele>
        <time>2020-07-04T23:29:41Z</time>
      </trkpt>
      <trkpt lat="43.8436" lon="6.21945">
        <ele>582</ele>
        <time>2020-07-04T23:29:58Z</time>
      </trkpt>
      <trkpt lat="43.84393" lon="6.21933">
        <ele>582</ele>
        <time>2020-07-04T23:30:04Z</time>
      </trkpt>
      <trkpt lat="43.84417" lon="6.21918">
        <ele>581</ele>
        <time>2020-07-04T23:30:09Z</time>
      </trkpt>
      <trkpt lat="43.84437" lon="6.21899">
        <ele>579</ele>
        <time>2020-07-04T23:30:13Z</time>
      </trkpt>
      <trkpt lat="43.84458" lon="6.2187">
        <ele>576</ele>
        <time>2020-07-04T23:30:19Z</time>
      </trkpt>
      <trkpt lat="43.84469" lon="6.21848">
        <ele>573</ele>
        <time>2020-07-04T23:30:22Z</time>
      </trkpt>
      <trkpt lat="43.84477" lon="6.2183">
        <ele>572</ele>
        <time>2020-07-04T23:30:25Z</time>
      </trkpt>
      <trkpt lat="43.84488" lon="6.21794">
        <ele>571</ele>
        <time>2020-07-04T23:30:30Z</time>
      </trkpt>
      <trkpt lat="43.84492" lon="6.21773">
        <ele>571</ele>
        <time>2020-07-04T23:30:32Z</time>
      </trkpt>
      <trkpt lat="43.84496" lon="6.21723">
        <ele>570</ele>
        <time>2020-07-04T23:30:39Z</time>
      </trkpt>
      <trkpt lat="43.84492" lon="6.21681">
        <ele>569</ele>
        <time>2020-07-04T23:30:44Z</time>
      </trkpt>
      <trkpt lat="43.84489" lon="6.21667">
        <ele>569</ele>
        <time>2020-07-04T23:30:46Z</time>
      </trkpt>
      <trkpt lat="43.84484" lon="6.21647">
        <ele>569</ele>
        <time>2020-07-04T23:30:49Z</time>
      </trkpt>
      <trkpt lat="43.84476" lon="6.21623">
        <ele>570</ele>
        <time>2020-07-04T23:30:52Z</time>
      </trkpt>
      <trkpt lat="43.84469" lon="6.21608">
        <ele>571</ele>
        <time>2020-07-04T23:30:55Z</time>
      </trkpt>
      <trkpt lat="43.84466" lon="6.21595">
        <ele>571</ele>
        <time>2020-07-04T23:30:56Z</time>
      </trkpt>
      <trkpt lat="43.84462" lon="6.21583">
        <ele>571</ele>
        <time>2020-07-04T23:30:58Z</time>
      </trkpt>
      <trkpt lat="43.84463" lon="6.21578">
        <ele>571</ele>
        <time>2020-07-04T23:30:59Z</time>
      </trkpt>
      <trkpt lat="43.84476" lon="6.21564">
        <ele>572</ele>
        <time>2020-07-04T23:31:02Z</time>
      </trkpt>
      <trkpt lat="43.84481" lon="6.21561">
        <ele>573</ele>
        <time>2020-07-04T23:31:03Z</time>
      </trkpt>
      <trkpt lat="43.84493" lon="6.21557">
        <ele>573</ele>
        <time>2020-07-04T23:31:05Z</time>
      </trkpt>
      <trkpt lat="43.845" lon="6.21557">
        <ele>574</ele>
        <time>2020-07-04T23:31:06Z</time>
      </trkpt>
      <trkpt lat="43.84507" lon="6.21561">
        <ele>574</ele>
        <time>2020-07-04T23:31:07Z</time>
      </trkpt>
      <trkpt lat="43.84511" lon="6.21566">
        <ele>575</ele>
        <time>2020-07-04T23:31:08Z</time>
      </trkpt>
      <trkpt lat="43.84519" lon="6.21583">
        <ele>576</ele>
        <time>2020-07-04T23:31:11Z</time>
      </trkpt>
      <trkpt lat="43.84536" lon="6.21639">
        <ele>576</ele>
        <time>2020-07-04T23:31:19Z</time>
      </trkpt>
      <trkpt lat="43.84542" lon="6.21651">
        <ele>577</ele>
        <time>2020-07-04T23:31:21Z</time>
      </trkpt>
      <trkpt lat="43.84563" lon="6.21676">
        <ele>579</ele>
        <time>2020-07-04T23:31:26Z</time>
      </trkpt>
      <trkpt lat="43.84608" lon="6.21711">
        <ele>582</ele>
        <time>2020-07-04T23:31:35Z</time>
      </trkpt>
      <trkpt lat="43.84644" lon="6.21743">
        <ele>583</ele>
        <time>2020-07-04T23:31:42Z</time>
      </trkpt>
      <trkpt lat="43.84652" lon="6.21748">
        <ele>583</ele>
        <time>2020-07-04T23:31:44Z</time>
      </trkpt>
      <trkpt lat="43.84678" lon="6.21757">
        <ele>585</ele>
        <time>2020-07-04T23:31:49Z</time>
      </trkpt>
      <trkpt lat="43.84696" lon="6.21767">
        <ele>587</ele>
        <time>2020-07-04T23:31:52Z</time>
      </trkpt>
      <trkpt lat="43.8473" lon="6.21797">
        <ele>589</ele>
        <time>2020-07-04T23:31:59Z</time>
      </trkpt>
      <trkpt lat="43.84746" lon="6.21778">
        <ele>592</ele>
        <time>2020-07-04T23:32:03Z</time>
      </trkpt>
      <trkpt lat="43.84754" lon="6.21778">
        <ele>593</ele>
        <time>2020-07-04T23:32:05Z</time>
      </trkpt>
    </trkseg>
  </trk>
</gpx>